Darstellungsparameter: Aktuell verwendete Einstellungen:
Skalierung der Graphiken ... ?
xyx+y,   Skalierungsfaktor:      Skalierung: Modus: x, Faktor: 1
Darstellungszeitraum ... ?
Vom - - bis: - -   Zeitraum: 06.03.2019 - 05.09.2019
Min/Max/Avg-Anzeige ... ?
Zeige MMA aktuell
Zeige MMA Monat
Zeige MMA alles
Zeige --A aktuell
Zeige --A Monat
Zeige --A alles
Keine MMA-Anzeige
MMA:
Keine MMA-Graphiken
MMA-Basis: 06.03.2019 - 05.09.2019
Quicknavigation für Darstellung... ?
Tage:      1T, 2T, 3T, 5T -1T -2T -3T -5T +1T +2T +3T +5T
Wochen: 1W, 2W, 3W -1W -2W -3W +1W +2W +3W
Monate: 1M, 3M, 6M -1M -3M -6M +1M +3M +6M
Jahre:    1J, 3J, 5J, 10J -1J -3J -5J -10J +1J +3J +5J +10J
Nutze für die Darstellung ... ?
Originaldaten oder ...
Mittelwerte Minima Maxima auf...
Stundenbasis Tagesbasis Wochenbasis
Monatsbasis Jahresbasis      Datenbasis: Mittelwerte auf Stundenbasis
Darstellen als:
Statistik (Auto) Statistik J:M      Darstellung:
Zur Graphik,    zurück zur Übersicht aller Sensoren.
 
Tabellarische Datenbersicht: ?
 
Sensor: Nr:Datum:Temp:Feuchte:Taupunkt:
Aussen-T/F 1 06-03-2019 00:00:00 5.65 C 91.6667 % 4.4 C
2 06-03-2019 01:00:00 6.15 C 91.5833 % 4.89 C
3 06-03-2019 02:00:00 7.03333 C 89.8333 % 5.48 C
4 06-03-2019 03:00:00 7 C 89.5000 % 5.4 C
5 06-03-2019 04:00:00 6.81667 C 91.0000 % 5.45 C
6 06-03-2019 05:00:00 7.175 C 89.2500 % 5.53 C
7 06-03-2019 06:00:00 6.40833 C 89.6667 % 4.84 C
8 06-03-2019 07:00:00 5.44167 C 91.2500 % 4.13 C
9 06-03-2019 08:00:00 6.43333 C 91.0000 % 5.07 C
10 06-03-2019 09:00:00 8.15833 C 84.3333 % 5.68 C
11 06-03-2019 10:00:00 10.00833 C 76.3333 % 6.04 C
12 06-03-2019 11:00:00 12.275 C 65.4167 % 5.99 C
13 06-03-2019 12:00:00 13.31667 C 59.2500 % 5.54 C
14 06-03-2019 13:00:00 13.375 C 61.0000 % 6.02 C
15 06-03-2019 14:00:00 13.7 C 61.7500 % 6.5 C
16 06-03-2019 15:00:00 14.56667 C 58.7500 % 6.59 C
17 06-03-2019 16:00:00 15.19167 C 57.4167 % 6.85 C
18 06-03-2019 17:00:00 13.93333 C 68.2500 % 8.18 C
19 06-03-2019 18:00:00 13.00833 C 72.5833 % 8.2 C
20 06-03-2019 19:00:00 11.65833 C 81.2500 % 8.56 C
21 06-03-2019 20:00:00 10.65 C 84.8333 % 8.21 C
22 06-03-2019 21:00:00 10.675 C 84.0833 % 8.1 C
23 06-03-2019 22:00:00 10.66667 C 84.1667 % 8.11 C
24 06-03-2019 23:00:00 11.175 C 81.3333 % 8.1 C
25 07-03-2019 00:00:00 11.05833 C 83.6667 % 8.4 C
Sensor: Nr:Datum:Temp:Feuchte:Taupunkt:
Aussen-T/F 26 07-03-2019 01:00:00 10.93333 C 87.5000 % 8.94 C
27 07-03-2019 02:00:00 10.025 C 91.6667 % 8.73 C
28 07-03-2019 03:00:00 9.58333 C 92.5833 % 8.44 C
29 07-03-2019 04:00:00 10.08333 C 88.5833 % 8.29 C
30 07-03-2019 05:00:00 11.45 C 79.6667 % 8.06 C
31 07-03-2019 06:00:00 12.05833 C 73.9167 % 7.56 C
32 07-03-2019 07:00:00 11.325 C 74.2500 % 6.91 C
33 07-03-2019 08:00:00 10.69167 C 75.9167 % 6.62 C
34 07-03-2019 09:00:00 10.06667 C 82.6667 % 7.26 C
35 07-03-2019 10:00:00 10.225 C 82.1667 % 7.32 C
36 07-03-2019 11:00:00 9.8 C 83.9167 % 7.21 C
37 07-03-2019 12:00:00 10.78333 C 74.6667 % 6.47 C
38 07-03-2019 13:00:00 12 C 68.6667 % 6.43 C
39 07-03-2019 14:00:00 10.40833 C 78.0833 % 6.76 C
40 07-03-2019 15:00:00 10.825 C 74.0833 % 6.4 C
41 07-03-2019 16:00:00 9.88333 C 79.0833 % 6.43 C
42 07-03-2019 17:00:00 10.14167 C 75.0000 % 5.92 C
43 07-03-2019 18:00:00 9.45 C 72.4167 % 4.75 C
44 07-03-2019 19:00:00 8.46667 C 79.5000 % 5.13 C
45 07-03-2019 20:00:00 8.64167 C 76.5833 % 4.77 C
46 07-03-2019 21:00:00 9.23333 C 74.5833 % 4.96 C
47 07-03-2019 22:00:00 9.2 C 74.7500 % 4.96 C
48 07-03-2019 23:00:00 8.64167 C 76.9167 % 4.83 C
49 08-03-2019 00:00:00 7.65833 C 84.2500 % 5.17 C
50 08-03-2019 01:00:00 7.05833 C 85.9167 % 4.87 C
Sensor: Nr:Datum:Temp:Feuchte:Taupunkt:
Aussen-T/F 51 08-03-2019 02:00:00 8.15833 C 77.3333 % 4.44 C
52 08-03-2019 03:00:00 8.15 C 75.1667 % 4.02 C
53 08-03-2019 04:00:00 8.05 C 76.2500 % 4.13 C
54 08-03-2019 05:00:00 7.8 C 78.1667 % 4.24 C
55 08-03-2019 06:00:00 7.60833 C 79.8333 % 4.36 C
56 08-03-2019 07:00:00 7.7 C 80.4167 % 4.55 C
57 08-03-2019 08:00:00 7.85 C 81.7500 % 4.93 C
58 08-03-2019 09:00:00 7.68333 C 85.2500 % 5.37 C
59 08-03-2019 10:00:00 7.75 C 85.0833 % 5.41 C
60 08-03-2019 11:00:00 8.65833 C 79.3333 % 5.29 C
61 08-03-2019 12:00:00 9.21667 C 72.0833 % 4.46 C
62 08-03-2019 13:00:00 9.8 C 68.8333 % 4.36 C
63 08-03-2019 14:00:00 10.34167 C 64.2500 % 3.89 C
64 08-03-2019 15:00:00 11.25 C 62.0000 % 4.25 C
65 08-03-2019 16:00:00 10.26667 C 70.0833 % 5.06 C
66 08-03-2019 17:00:00 9.15833 C 77.5833 % 5.45 C
67 08-03-2019 18:00:00 7.425 C 85.2500 % 5.11 C
68 08-03-2019 19:00:00 6.83333 C 87.8333 % 4.96 C
69 08-03-2019 20:00:00 6.3 C 89.5000 % 4.7 C
70 08-03-2019 21:00:00 6.525 C 89.3333 % 4.9 C
71 08-03-2019 22:00:00 7.025 C 85.4167 % 4.75 C
72 08-03-2019 23:00:00 8.25833 C 77.9167 % 4.64 C
73 09-03-2019 00:00:00 8.56667 C 75.5000 % 4.49 C
74 09-03-2019 01:00:00 9.15833 C 72.6667 % 4.51 C
75 09-03-2019 02:00:00 9.375 C 72.4167 % 4.67 C
Sensor: Nr:Datum:Temp:Feuchte:Taupunkt:
Aussen-T/F 76 09-03-2019 03:00:00 9.03333 C 76.4167 % 5.11 C
77 09-03-2019 04:00:00 7.95833 C 84.9167 % 5.58 C
78 09-03-2019 05:00:00 7.775 C 87.4167 % 5.82 C
79 09-03-2019 06:00:00 8.08333 C 88.0000 % 6.22 C
80 09-03-2019 07:00:00 8.63333 C 87.2500 % 6.64 C
81 09-03-2019 08:00:00 9.45 C 85.2500 % 7.1 C
82 09-03-2019 09:00:00 10.15833 C 83.6667 % 7.52 C
83 09-03-2019 10:00:00 10.50833 C 81.4167 % 7.47 C
84 09-03-2019 11:00:00 10.925 C 79.8333 % 7.58 C
85 09-03-2019 12:00:00 11.71667 C 76.6667 % 7.76 C
86 09-03-2019 13:00:00 12.525 C 74.5833 % 8.14 C
87 09-03-2019 14:00:00 13.48333 C 69.7500 % 8.07 C
88 09-03-2019 15:00:00 13.30833 C 68.8333 % 7.71 C
89 09-03-2019 16:00:00 13.39167 C 63.4167 % 6.6 C
90 09-03-2019 17:00:00 13.05833 C 60.6667 % 5.64 C
91 09-03-2019 18:00:00 12.01667 C 62.5833 % 5.1 C
92 09-03-2019 19:00:00 10.65833 C 74.2500 % 6.27 C
93 09-03-2019 20:00:00 9.45 C 82.2500 % 6.58 C
94 09-03-2019 21:00:00 9.66667 C 82.1667 % 6.78 C
95 09-03-2019 22:00:00 9.60833 C 80.0000 % 6.33 C
96 09-03-2019 23:00:00 10.34167 C 71.3333 % 5.39 C
97 10-03-2019 00:00:00 10.11667 C 69.6667 % 4.83 C
98 10-03-2019 01:00:00 9.66667 C 70.4167 % 4.55 C
99 10-03-2019 02:00:00 9.40833 C 73.5833 % 4.93 C
100 10-03-2019 03:00:00 9.1 C 77.3333 % 5.35 C
Sensor: Nr:Datum:Temp:Feuchte:Taupunkt:
Aussen-T/F 101 10-03-2019 04:00:00 8.325 C 85.0833 % 5.97 C
102 10-03-2019 05:00:00 7.8 C 90.9167 % 6.41 C
103 10-03-2019 06:00:00 7.475 C 93.5000 % 6.5 C
104 10-03-2019 07:00:00 7.675 C 94.8333 % 6.9 C
105 10-03-2019 08:00:00 8.86667 C 95.9167 % 8.25 C
106 10-03-2019 09:00:00 10.58333 C 95.1667 % 9.84 C
107 10-03-2019 10:00:00 11.95833 C 93.3333 % 10.92 C
108 10-03-2019 11:00:00 13.14167 C 78.7500 % 9.54 C
109 10-03-2019 12:00:00 14.125 C 72.2500 % 9.21 C
110 10-03-2019 13:00:00 14.4 C 64.5833 % 7.82 C
111 10-03-2019 14:00:00 14.40833 C 52.0000 % 4.69 C
112 10-03-2019 15:00:00 13.55833 C 50.2500 % 3.42 C
113 10-03-2019 16:00:00 12.53333 C 50.1667 % 2.45 C
114 10-03-2019 17:00:00 10.38333 C 62.9167 % 3.64 C
115 10-03-2019 18:00:00 7.69167 C 80.2500 % 4.51 C
116 10-03-2019 19:00:00 6.94167 C 78.5833 % 3.48 C
117 10-03-2019 20:00:00 6.075 C 75.4167 % 2.06 C
118 10-03-2019 21:00:00 5.21667 C 79.1667 % 1.91 C
119 10-03-2019 22:00:00 5.05833 C 79.9167 % 1.89 C
120 10-03-2019 23:00:00 4.85833 C 80.4167 % 1.78 C
121 11-03-2019 00:00:00 4.34167 C 81.0833 % 1.39 C
122 11-03-2019 01:00:00 4.50833 C 79.6667 % 1.31 C
123 11-03-2019 02:00:00 5.10833 C 78.9167 % 1.76 C
124 11-03-2019 03:00:00 3.65833 C 85.3333 % 1.43 C
125 11-03-2019 04:00:00 2.36667 C 92.5833 % 1.29 C
Sensor: Nr:Datum:Temp:Feuchte:Taupunkt:
Aussen-T/F 126 11-03-2019 05:00:00 2.20833 C 92.7500 % 1.16 C
127 11-03-2019 06:00:00 1.74167 C 92.5000 % 0.66 C
128 11-03-2019 07:00:00 1.525 C 94.1667 % 0.69 C
129 11-03-2019 08:00:00 2.31667 C 95.0000 % 1.6 C
130 11-03-2019 09:00:00 3.34167 C 89.4167 % 1.77 C
131 11-03-2019 10:00:00 3.925 C 88.3333 % 2.18 C
132 11-03-2019 11:00:00 4.875 C 82.3333 % 2.12 C
133 11-03-2019 12:00:00 5.60833 C 76.3333 % 1.78 C
134 11-03-2019 13:00:00 6.575 C 71.8333 % 1.87 C
135 11-03-2019 14:00:00 7.04167 C 70.1667 % 1.99 C
136 11-03-2019 15:00:00 7.63333 C 66.7500 % 1.86 C
137 11-03-2019 16:00:00 7.26667 C 68.2500 % 1.82 C
138 11-03-2019 17:00:00 7.175 C 70.1667 % 2.11 C
139 11-03-2019 18:00:00 6.93333 C 68.6667 % 1.58 C
140 11-03-2019 19:00:00 5.83333 C 72.6667 % 1.31 C
141 11-03-2019 20:00:00 5.68333 C 73.5000 % 1.33 C
142 11-03-2019 21:00:00 5.28333 C 75.0000 % 1.22 C
143 11-03-2019 22:00:00 5.34167 C 74.4167 % 1.17 C
144 11-03-2019 23:00:00 4.75 C 76.0000 % 0.89 C
145 12-03-2019 00:00:00 4.19167 C 80.0833 % 1.07 C
146 12-03-2019 01:00:00 3.225 C 84.0833 % 0.8 C
147 12-03-2019 02:00:00 2.15833 C 87.0000 % 0.23 C
148 12-03-2019 03:00:00 1.65833 C 88.7500 % 0.01 C
149 12-03-2019 04:00:00 1.33333 C 89.4167 % -0.21 C
150 12-03-2019 05:00:00 1.625 C 90.0000 % 0.17 C
Sensor: Nr:Datum:Temp:Feuchte:Taupunkt:
Aussen-T/F 151 12-03-2019 06:00:00 1.76667 C 89.5833 % 0.24 C
152 12-03-2019 07:00:00 1.93333 C 90.7500 % 0.59 C
153 12-03-2019 08:00:00 3.25 C 88.9167 % 1.6 C
154 12-03-2019 09:00:00 5.20833 C 82.5000 % 2.48 C
155 12-03-2019 10:00:00 7.4 C 72.3333 % 2.76 C
156 12-03-2019 11:00:00 8.78333 C 63.5833 % 2.27 C
157 12-03-2019 12:00:00 9.40833 C 61.1667 % 2.32 C
158 12-03-2019 13:00:00 9.74167 C 59.4167 % 2.22 C
159 12-03-2019 14:00:00 10.18333 C 57.6667 % 2.22 C
160 12-03-2019 15:00:00 10.56667 C 54.0000 % 1.66 C
161 12-03-2019 16:00:00 10.33333 C 50.2500 % 0.45 C
162 12-03-2019 17:00:00 9.34167 C 55.5000 % 0.9 C
163 12-03-2019 18:00:00 8.1 C 61.2500 % 1.1 C
164 12-03-2019 19:00:00 8.725 C 54.1667 % -0.01 C
165 12-03-2019 20:00:00 9.425 C 46.5000 % -1.45 C
166 12-03-2019 21:00:00 10.74167 C 45.6667 % -0.49 C
167 12-03-2019 22:00:00 11.14167 C 53.9167 % 2.17 C
168 12-03-2019 23:00:00 8.53333 C 76.6667 % 4.68 C
169 13-03-2019 00:00:00 6.53333 C 80.5833 % 3.44 C
170 13-03-2019 01:00:00 5.74167 C 79.4167 % 2.46 C
171 13-03-2019 02:00:00 5.425 C 80.1667 % 2.29 C
172 13-03-2019 03:00:00 5.74167 C 77.1667 % 2.06 C
173 13-03-2019 04:00:00 5.53333 C 79.7500 % 2.32 C
174 13-03-2019 05:00:00 5.34167 C 83.0833 % 2.71 C
175 13-03-2019 06:00:00 5.16667 C 82.7500 % 2.48 C
Sensor: Nr:Datum:Temp:Feuchte:Taupunkt:
Aussen-T/F 176 13-03-2019 07:00:00 5.46667 C 80.5833 % 2.4 C
177 13-03-2019 08:00:00 6.08333 C 80.1667 % 2.93 C
178 13-03-2019 09:00:00 6.5 C 77.8333 % 2.92 C
179 13-03-2019 10:00:00 6.94167 C 77.2500 % 3.24 C
180 13-03-2019 11:00:00 7.81667 C 75.1667 % 3.7 C
181 13-03-2019 12:00:00 8.15833 C 74.4167 % 3.89 C
182 13-03-2019 13:00:00 7.95833 C 76.5000 % 4.09 C
183 13-03-2019 14:00:00 8.05 C 78.0833 % 4.47 C
184 13-03-2019 15:00:00 7.79167 C 80.1667 % 4.59 C
185 13-03-2019 16:00:00 6.825 C 87.3333 % 4.87 C
186 13-03-2019 17:00:00 6.65833 C 87.8333 % 4.79 C
187 13-03-2019 18:00:00 6.55 C 87.6667 % 4.65 C
188 13-03-2019 19:00:00 4.95833 C 91.9167 % 3.76 C
189 13-03-2019 20:00:00 4.94167 C 92.2500 % 3.79 C
190 13-03-2019 21:00:00 4.94167 C 92.5833 % 3.84 C
191 13-03-2019 22:00:00 5.04167 C 93.0000 % 4.01 C
192 13-03-2019 23:00:00 4.725 C 92.6667 % 3.64 C
193 14-03-2019 00:00:00 4.65 C 92.4167 % 3.53 C
194 14-03-2019 01:00:00 5.13333 C 90.5833 % 3.72 C
195 14-03-2019 02:00:00 4.81667 C 91.9167 % 3.62 C
196 14-03-2019 03:00:00 4.46667 C 93.0000 % 3.44 C
197 14-03-2019 04:00:00 5.05 C 93.3333 % 4.07 C
198 14-03-2019 05:00:00 5.73333 C 91.6667 % 4.49 C
199 14-03-2019 06:00:00 6.13333 C 89.2500 % 4.5 C
200 14-03-2019 07:00:00 6.35 C 87.2500 % 4.39 C
Sensor: Nr:Datum:Temp:Feuchte:Taupunkt:
Aussen-T/F 201 14-03-2019 08:00:00 6.70833 C 85.5833 % 4.47 C
202 14-03-2019 09:00:00 6.41667 C 88.8333 % 4.71 C
203 14-03-2019 10:00:00 6.55 C 88.2500 % 4.75 C
204 14-03-2019 11:00:00 6.55833 C 89.0833 % 4.89 C
205 14-03-2019 12:00:00 7.15 C 88.7500 % 5.42 C
206 14-03-2019 13:00:00 7.30833 C 88.5000 % 5.54 C
207 14-03-2019 14:00:00 7.33333 C 87.9167 % 5.47 C
208 14-03-2019 15:00:00 7.69167 C 90.1667 % 6.18 C
209 14-03-2019 16:00:00 8.875 C 86.1667 % 6.69 C
210 14-03-2019 17:00:00 9.85833 C 84.6667 % 7.4 C
211 14-03-2019 18:00:00 9.875 C 82.5833 % 7.05 C
212 14-03-2019 19:00:00 9.54167 C 77.4167 % 5.79 C
213 14-03-2019 20:00:00 7.96667 C 85.0833 % 5.62 C
214 14-03-2019 21:00:00 8.2 C 83.0000 % 5.49 C
215 14-03-2019 22:00:00 8.38333 C 79.7500 % 5.1 C
216 14-03-2019 23:00:00 8.11667 C 79.2500 % 4.75 C
217 15-03-2019 00:00:00 7.11667 C 83.0000 % 4.43 C
218 15-03-2019 01:00:00 6.38333 C 85.8333 % 4.19 C
219 15-03-2019 02:00:00 6.86667 C 85.5833 % 4.62 C
220 15-03-2019 03:00:00 6.40833 C 87.0000 % 4.41 C
221 15-03-2019 04:00:00 6.04167 C 89.3333 % 4.42 C
222 15-03-2019 05:00:00 7.00833 C 87.5833 % 5.09 C
223 15-03-2019 06:00:00 7.225 C 90.0000 % 5.7 C
224 15-03-2019 07:00:00 7.125 C 92.8333 % 6.05 C
225 15-03-2019 08:00:00 7.49167 C 94.0000 % 6.59 C
Sensor: Nr:Datum:Temp:Feuchte:Taupunkt:
Aussen-T/F 226 15-03-2019 09:00:00 8.2 C 94.0000 % 7.29 C
227 15-03-2019 10:00:00 9.375 C 94.0000 % 8.46 C
228 15-03-2019 11:00:00 11.05 C 91.5833 % 9.73 C
229 15-03-2019 12:00:00 12.38333 C 88.5000 % 10.54 C
230 15-03-2019 13:00:00 13.11667 C 84.5833 % 10.58 C
231 15-03-2019 14:00:00 13.66667 C 80.9167 % 10.45 C
232 15-03-2019 15:00:00 13.51667 C 82.7500 % 10.64 C
233 15-03-2019 16:00:00 13.38333 C 82.0000 % 10.38 C
234 15-03-2019 17:00:00 13.03333 C 82.7500 % 10.17 C
235 15-03-2019 18:00:00 12.70833 C 84.2500 % 10.12 C
236 15-03-2019 19:00:00 12.64167 C 84.5833 % 10.12 C
237 15-03-2019 20:00:00 12.10833 C 88.0833 % 10.2 C
238 15-03-2019 21:00:00 12.25 C 86.6667 % 10.09 C
239 15-03-2019 22:00:00 12.4 C 85.1667 % 9.98 C
240 15-03-2019 23:00:00 11.85833 C 87.8333 % 9.91 C
241 16-03-2019 00:00:00 11.575 C 88.5000 % 9.74 C
242 16-03-2019 01:00:00 9.79167 C 91.7500 % 8.52 C
243 16-03-2019 02:00:00 8.93333 C 92.1667 % 7.73 C
244 16-03-2019 03:00:00 8.41667 C 93.7500 % 7.47 C
245 16-03-2019 04:00:00 8.3 C 95.0000 % 7.55 C
246 16-03-2019 05:00:00 8.3 C 95.0833 % 7.56 C
247 16-03-2019 06:00:00 8.73333 C 96.3333 % 8.18 C
248 16-03-2019 07:00:00 9.88333 C 95.0833 % 9.13 C
249 16-03-2019 08:00:00 10.375 C 93.1667 % 9.32 C
250 16-03-2019 09:00:00 10.71667 C 91.7500 % 9.43 C
Sensor: Nr:Datum:Temp:Feuchte:Taupunkt:
Aussen-T/F 251 16-03-2019 10:00:00 10.84167 C 90.0000 % 9.27 C
252 16-03-2019 11:00:00 10.825 C 89.2500 % 9.13 C
253 16-03-2019 12:00:00 11.46667 C 84.0000 % 8.86 C
254 16-03-2019 13:00:00 11.75833 C 80.0000 % 8.43 C
255 16-03-2019 14:00:00 11.125 C 80.8333 % 7.96 C
256 16-03-2019 15:00:00 10.94167 C 78.5833 % 7.37 C
257 16-03-2019 16:00:00 10.99167 C 77.4167 % 7.2 C
258 16-03-2019 17:00:00 10.9 C 76.2500 % 6.89 C
259 16-03-2019 18:00:00 10.69167 C 76.4167 % 6.72 C
260 16-03-2019 19:00:00 10.43333 C 76.0000 % 6.39 C
261 16-03-2019 20:00:00 10.31667 C 75.5000 % 6.18 C
262 16-03-2019 21:00:00 10.10833 C 78.0833 % 6.47 C
263 16-03-2019 22:00:00 10.09167 C 79.0833 % 6.64 C
264 16-03-2019 23:00:00 10.11667 C 79.0000 % 6.64 C
265 17-03-2019 00:00:00 10.29167 C 77.8333 % 6.6 C
266 17-03-2019 01:00:00 10.425 C 77.0000 % 6.57 C
267 17-03-2019 02:00:00 10.20833 C 77.5833 % 6.47 C
268 17-03-2019 03:00:00 10.19167 C 77.0000 % 6.35 C
269 17-03-2019 04:00:00 10.11667 C 76.0833 % 6.1 C
270 17-03-2019 05:00:00 10.28333 C 74.7500 % 6.01 C
271 17-03-2019 06:00:00 10.23333 C 74.2500 % 5.86 C
272 17-03-2019 07:00:00 10.24167 C 76.0000 % 6.2 C
273 17-03-2019 08:00:00 10.2 C 78.8333 % 6.7 C
274 17-03-2019 09:00:00 10.26667 C 79.6667 % 6.91 C
275 17-03-2019 10:00:00 9.89167 C 82.5833 % 7.07 C
Sensor: Nr:Datum:Temp:Feuchte:Taupunkt:
Aussen-T/F 276 17-03-2019 11:00:00 8.075 C 84.0000 % 5.54 C
277 17-03-2019 12:00:00 8.78333 C 79.0000 % 5.35 C
278 17-03-2019 13:00:00 9.80833 C 75.7500 % 5.74 C
279 17-03-2019 14:00:00 10.71667 C 64.5833 % 4.32 C
280 17-03-2019 15:00:00 11.01667 C 65.4167 % 4.79 C
281 17-03-2019 16:00:00 10.05 C 64.5833 % 3.69 C
282 17-03-2019 17:00:00 7.89167 C 69.4167 % 2.65 C
283 17-03-2019 18:00:00 7.01667 C 75.5833 % 3.01 C
284 17-03-2019 19:00:00 5.95833 C 80.5833 % 2.88 C
285 17-03-2019 20:00:00 4.51667 C 88.8333 % 2.84 C
286 17-03-2019 21:00:00 4.025 C 90.4167 % 2.6 C
287 17-03-2019 22:00:00 3.875 C 89.8333 % 2.36 C
288 17-03-2019 23:00:00 3.83333 C 88.0000 % 2.03 C
289 18-03-2019 00:00:00 2.95 C 90.0000 % 1.48 C
290 18-03-2019 01:00:00 2.55 C 91.6667 % 1.33 C
291 18-03-2019 02:00:00 3.225 C 91.0000 % 1.9 C
292 18-03-2019 03:00:00 3.61667 C 88.3333 % 1.87 C
293 18-03-2019 04:00:00 3.25 C 89.5000 % 1.69 C
294 18-03-2019 05:00:00 3.10833 C 89.5833 % 1.57 C
295 18-03-2019 06:00:00 3.95833 C 86.5000 % 1.92 C
296 18-03-2019 07:00:00 4.225 C 86.4167 % 2.16 C
297 18-03-2019 08:00:00 5.04167 C 85.7500 % 2.86 C
298 18-03-2019 09:00:00 5.06667 C 89.5833 % 3.5 C
299 18-03-2019 10:00:00 6.36667 C 85.6667 % 4.15 C
300 18-03-2019 11:00:00 7.74167 C 77.4167 % 4.05 C
Sensor: Nr:Datum:Temp:Feuchte:Taupunkt:
Aussen-T/F 301 18-03-2019 12:00:00 8.06667 C 71.9167 % 3.32 C
302 18-03-2019 13:00:00 6.66667 C 84.8333 % 4.3 C
303 18-03-2019 14:00:00 8.43333 C 72.7500 % 3.83 C
304 18-03-2019 15:00:00 6.71667 C 85.9167 % 4.53 C
305 18-03-2019 16:00:00 6.875 C 86.1667 % 4.73 C
306 18-03-2019 17:00:00 7.95833 C 74.3333 % 3.68 C
307 18-03-2019 18:00:00 7.49167 C 75.3333 % 3.42 C
308 18-03-2019 19:00:00 5.20833 C 85.3333 % 2.95 C
309 18-03-2019 20:00:00 4.01667 C 86.0000 % 1.89 C
310 18-03-2019 21:00:00 3.09167 C 87.9167 % 1.29 C
311 18-03-2019 22:00:00 2.04167 C 89.7500 % 0.54 C
312 18-03-2019 23:00:00 1.48333 C 91.8333 % 0.3 C
313 19-03-2019 00:00:00 0.93333 C 92.3333 % -0.17 C
314 19-03-2019 01:00:00 0.35833 C 93.0000 % -0.64 C
315 19-03-2019 02:00:00 -0.04167 C 93.6667 % -0.94 C
316 19-03-2019 03:00:00 -0.3 C 94.0000 % -1.15 C
317 19-03-2019 04:00:00 -0.70833 C 94.0000 % -1.55 C
318 19-03-2019 05:00:00 -1.03333 C 94.2500 % -1.84 C
319 19-03-2019 06:00:00 -1.2 C 94.6667 % -1.94 C
320 19-03-2019 07:00:00 -0.375 C 95.1667 % -1.05 C
321 19-03-2019 08:00:00 -0.04167 C 95.0000 % -0.74 C
322 19-03-2019 09:00:00 0.675 C 95.0833 % -0.02 C
323 19-03-2019 10:00:00 2.36667 C 94.5833 % 1.59 C
324 19-03-2019 11:00:00 5.125 C 86.3333 % 3.04 C
325 19-03-2019 12:00:00 7.29167 C 68.6667 % 1.92 C
Sensor: Nr:Datum:Temp:Feuchte:Taupunkt:
Aussen-T/F 326 19-03-2019 13:00:00 8.93333 C 58.5000 % 1.25 C
327 19-03-2019 14:00:00 9.975 C 56.5000 % 1.74 C
328 19-03-2019 15:00:00 10.15 C 53.2500 % 1.08 C
329 19-03-2019 16:00:00 11.51667 C 48.5000 % 1.05 C
330 19-03-2019 17:00:00 12.00833 C 45.3333 % 0.56 C
331 19-03-2019 18:00:00 9.65 C 60.7500 % 2.45 C
332 19-03-2019 19:00:00 5.6 C 77.1667 % 1.92 C
333 19-03-2019 20:00:00 4.4 C 81.5000 % 1.52 C
334 19-03-2019 21:00:00 3.1 C 85.0000 % 0.83 C
335 19-03-2019 22:00:00 2.025 C 87.0000 % 0.09 C
336 19-03-2019 23:00:00 1.68333 C 87.7500 % -0.12 C
337 20-03-2019 00:00:00 0.8 C 89.1667 % -0.78 C
338 20-03-2019 01:00:00 0.35833 C 90.8333 % -0.96 C
339 20-03-2019 02:00:00 -0.16667 C 91.4167 % -1.39 C
340 20-03-2019 03:00:00 -0.55 C 92.0000 % -1.69 C
341 20-03-2019 04:00:00 -0.90833 C 92.7500 % -1.93 C
342 20-03-2019 05:00:00 -1.10833 C 93.0833 % -2.08 C
343 20-03-2019 06:00:00 -1.225 C 93.7500 % -2.1 C
344 20-03-2019 07:00:00 -1.08333 C 94.0000 % -1.92 C
345 20-03-2019 08:00:00 -0.675 C 94.5000 % -1.45 C
346 20-03-2019 09:00:00 0.575 C 95.0000 % -0.13 C
347 20-03-2019 10:00:00 4.26667 C 89.9167 % 2.76 C
348 20-03-2019 11:00:00 8.875 C 69.3333 % 3.58 C
349 20-03-2019 12:00:00 11.63333 C 56.5833 % 3.31 C
350 20-03-2019 13:00:00 13.15833 C 48.3333 % 2.5 C
Sensor: Nr:Datum:Temp:Feuchte:Taupunkt:
Aussen-T/F 351 20-03-2019 14:00:00 13.75833 C 46.4167 % 2.48 C
352 20-03-2019 15:00:00 13.64167 C 47.5833 % 2.73 C
353 20-03-2019 16:00:00 14.11667 C 48.2500 % 3.36 C
354 20-03-2019 17:00:00 14.83333 C 49.5000 % 4.38 C
355 20-03-2019 18:00:00 11.88333 C 63.3333 % 5.15 C
356 20-03-2019 19:00:00 8.5 C 73.3333 % 4.01 C
357 20-03-2019 20:00:00 6.85 C 79.2500 % 3.51 C
358 20-03-2019 21:00:00 5.43333 C 83.6667 % 2.9 C
359 20-03-2019 22:00:00 4.725 C 85.5000 % 2.51 C
360 20-03-2019 23:00:00 3.81667 C 87.4167 % 1.92 C
361 21-03-2019 00:00:00 3.31667 C 88.6667 % 1.63 C
362 21-03-2019 01:00:00 2.55 C 89.0833 % 0.94 C
363 21-03-2019 02:00:00 1.81667 C 90.9167 % 0.5 C
364 21-03-2019 03:00:00 1.30833 C 91.8333 % 0.13 C
365 21-03-2019 04:00:00 0.99167 C 92.8333 % -0.03 C
366 21-03-2019 05:00:00 0.61667 C 93.3333 % -0.33 C
367 21-03-2019 06:00:00 0.33333 C 93.9167 % -0.53 C
368 21-03-2019 07:00:00 0.6 C 94.3333 % -0.2 C
369 21-03-2019 08:00:00 1.24167 C 94.9167 % 0.52 C
370 21-03-2019 09:00:00 2.50833 C 95.0000 % 1.79 C
371 21-03-2019 10:00:00 5.54167 C 90.4167 % 4.1 C
372 21-03-2019 11:00:00 9.275 C 75.5833 % 5.19 C
373 21-03-2019 12:00:00 12.99167 C 53.9167 % 3.89 C
374 21-03-2019 13:00:00 15.43333 C 43.5000 % 3.09 C
375 21-03-2019 14:00:00 16.23333 C 39.4167 % 2.43 C
Sensor: Nr:Datum:Temp:Feuchte:Taupunkt:
Aussen-T/F 376 21-03-2019 15:00:00 16.43333 C 39.0000 % 2.46 C
377 21-03-2019 16:00:00 17.625 C 37.7500 % 3.06 C
378 21-03-2019 17:00:00 18.01667 C 38.0000 % 3.5 C
379 21-03-2019 18:00:00 14.68333 C 52.6667 % 5.13 C
380 21-03-2019 19:00:00 10.96667 C 64.2500 % 4.49 C
381 21-03-2019 20:00:00 9.20833 C 71.7500 % 4.38 C
382 21-03-2019 21:00:00 7.65 C 74.8333 % 3.48 C
383 21-03-2019 22:00:00 6.15833 C 78.6667 % 2.74 C
384 21-03-2019 23:00:00 5.26667 C 82.0000 % 2.45 C
385 22-03-2019 00:00:00 4.425 C 84.7500 % 2.09 C
386 22-03-2019 01:00:00 3.69167 C 87.2500 % 1.77 C
387 22-03-2019 02:00:00 3.03333 C 88.4167 % 1.31 C
388 22-03-2019 03:00:00 2.20833 C 90.0833 % 0.76 C
389 22-03-2019 04:00:00 1.74167 C 92.0000 % 0.58 C
390 22-03-2019 05:00:00 1.53333 C 92.9167 % 0.52 C
391 22-03-2019 06:00:00 1.06667 C 93.1667 % 0.09 C
392 22-03-2019 07:00:00 1.24167 C 94.0000 % 0.39 C
393 22-03-2019 08:00:00 1.95833 C 94.9167 % 1.23 C
394 22-03-2019 09:00:00 3.70833 C 95.3333 % 3.03 C
395 22-03-2019 10:00:00 7.06667 C 90.1667 % 5.57 C
396 22-03-2019 11:00:00 11.70833 C 72.9167 % 7.02 C
397 22-03-2019 12:00:00 15.65 C 53.0833 % 6.13 C
398 22-03-2019 13:00:00 18.11667 C 41.8333 % 4.96 C
399 22-03-2019 14:00:00 19.29167 C 36.0000 % 3.86 C
400 22-03-2019 15:00:00 19.26667 C 38.6667 % 4.86 C
Sensor: Nr:Datum:Temp:Feuchte:Taupunkt:
Aussen-T/F 401 22-03-2019 16:00:00 19.83333 C 37.7500 % 5.02 C
402 22-03-2019 17:00:00 20.95833 C 35.4167 % 5.1 C
403 22-03-2019 18:00:00 16.7 C 50.5833 % 6.41 C
404 22-03-2019 19:00:00 12.225 C 63.5000 % 5.51 C
405 22-03-2019 20:00:00 10.825 C 68.0833 % 5.18 C
406 22-03-2019 21:00:00 9.1 C 72.7500 % 4.48 C
407 22-03-2019 22:00:00 7.775 C 77.9167 % 4.17 C
408 22-03-2019 23:00:00 6.66667 C 80.2500 % 3.51 C
409 23-03-2019 00:00:00 5.5 C 83.0000 % 2.85 C
410 23-03-2019 01:00:00 4.74167 C 85.5000 % 2.52 C
411 23-03-2019 02:00:00 4.05 C 88.1667 % 2.27 C
412 23-03-2019 03:00:00 3.69167 C 88.9167 % 2.04 C
413 23-03-2019 04:00:00 3.425 C 90.0833 % 1.96 C
414 23-03-2019 05:00:00 3.28333 C 89.8333 % 1.78 C
415 23-03-2019 06:00:00 2.525 C 91.1667 % 1.23 C
416 23-03-2019 07:00:00 4.06667 C 94.2500 % 3.23 C
417 23-03-2019 08:00:00 6.20833 C 95.0000 % 5.47 C
418 23-03-2019 09:00:00 6.63333 C 94.3333 % 5.79 C
419 23-03-2019 10:00:00 7.18333 C 93.7500 % 6.25 C
420 23-03-2019 11:00:00 7.53333 C 92.5833 % 6.41 C
421 23-03-2019 12:00:00 8.125 C 90.0000 % 6.59 C
422 23-03-2019 13:00:00 8.775 C 86.3333 % 6.62 C
423 23-03-2019 14:00:00 9.45 C 81.4167 % 6.43 C
424 23-03-2019 15:00:00 10.08333 C 77.5000 % 6.33 C
425 23-03-2019 16:00:00 10.425 C 74.6667 % 6.13 C
Sensor: Nr:Datum:Temp:Feuchte:Taupunkt:
Aussen-T/F 426 23-03-2019 17:00:00 10.425 C 74.1667 % 6.03 C
427 23-03-2019 18:00:00 9.175 C 77.4167 % 5.44 C
428 23-03-2019 19:00:00 6.80833 C 85.0833 % 4.48 C
429 23-03-2019 20:00:00 5.38333 C 88.7500 % 3.68 C
430 23-03-2019 21:00:00 4.33333 C 91.2500 % 3.04 C
431 23-03-2019 22:00:00 3.55833 C 92.9167 % 2.52 C
432 23-03-2019 23:00:00 3.075 C 94.0000 % 2.21 C
433 24-03-2019 00:00:00 2.4 C 94.3333 % 1.58 C
434 24-03-2019 01:00:00 1.9 C 94.8333 % 1.16 C
435 24-03-2019 02:00:00 1.425 C 95.0000 % 0.71 C
436 24-03-2019 03:00:00 0.96667 C 95.0000 % 0.26 C
437 24-03-2019 04:00:00 0.89167 C 95.8333 % 0.3 C
438 24-03-2019 05:00:00 1.725 C 96.0000 % 1.16 C
439 24-03-2019 07:00:00 2.78182 C 96.0000 % 2.21 C
440 24-03-2019 08:00:00 3.66667 C 96.7500 % 3.2 C
441 24-03-2019 09:00:00 4.85 C 95.6667 % 4.22 C
442 24-03-2019 10:00:00 6.875 C 92.4167 % 5.73 C
443 24-03-2019 11:00:00 9.54167 C 85.4167 % 7.22 C
444 24-03-2019 12:00:00 11.74167 C 76.9167 % 7.83 C
445 24-03-2019 13:00:00 10.88333 C 81.2500 % 7.8 C
446 24-03-2019 14:00:00 10.64167 C 82.5833 % 7.8 C
447 24-03-2019 15:00:00 11.09167 C 78.2500 % 7.45 C
448 24-03-2019 16:00:00 12.03333 C 71.6667 % 7.08 C
449 24-03-2019 17:00:00 12.28333 C 65.0000 % 5.9 C
450 24-03-2019 18:00:00 11.30833 C 62.4167 % 4.4 C
Sensor: Nr:Datum:Temp:Feuchte:Taupunkt:
Aussen-T/F 451 24-03-2019 19:00:00 9.075 C 65.0833 % 2.87 C
452 24-03-2019 20:00:00 7.18333 C 70.8333 % 2.26 C
453 24-03-2019 21:00:00 5.59167 C 76.3333 % 1.77 C
454 24-03-2019 22:00:00 4.23333 C 80.7500 % 1.23 C
455 24-03-2019 23:00:00 3.56667 C 82.7500 % 0.92 C
456 25-03-2019 00:00:00 3.35 C 82.5000 % 0.66 C
457 25-03-2019 01:00:00 1.875 C 86.4167 % -0.15 C
458 25-03-2019 02:00:00 1.89167 C 88.9167 % 0.26 C
459 25-03-2019 03:00:00 2.29167 C 88.0000 % 0.51 C
460 25-03-2019 04:00:00 2.85833 C 86.0833 % 0.77 C
461 25-03-2019 05:00:00 3.675 C 82.4167 % 0.97 C
462 25-03-2019 06:00:00 3.74167 C 83.0833 % 1.14 C
463 25-03-2019 07:00:00 4.38333 C 84.8333 % 2.06 C
464 25-03-2019 08:00:00 4.56667 C 91.0000 % 3.23 C
465 25-03-2019 09:00:00 6.15 C 85.2500 % 3.86 C
466 25-03-2019 10:00:00 7.41667 C 74.3333 % 3.16 C
467 25-03-2019 11:00:00 7.375 C 75.6667 % 3.37 C
468 25-03-2019 12:00:00 7.725 C 77.6667 % 4.08 C
469 25-03-2019 13:00:00 7.55 C 80.6667 % 4.45 C
470 25-03-2019 14:00:00 7.65833 C 76.7500 % 3.84 C
471 25-03-2019 15:00:00 7.18333 C 83.7500 % 4.62 C
472 25-03-2019 16:00:00 7.29167 C 84.0833 % 4.79 C
473 25-03-2019 17:00:00 5.71667 C 89.9167 % 4.19 C
474 25-03-2019 18:00:00 5.3 C 93.2500 % 4.3 C
475 25-03-2019 19:00:00 5.04167 C 93.8333 % 4.13 C
Sensor: Nr:Datum:Temp:Feuchte:Taupunkt:
Aussen-T/F 476 25-03-2019 20:00:00 5.1 C 94.7500 % 4.33 C
477 25-03-2019 21:00:00 5.24167 C 95.0000 % 4.51 C
478 25-03-2019 22:00:00 5.15833 C 93.0833 % 4.13 C
479 25-03-2019 23:00:00 4.65 C 93.3333 % 3.67 C
480 26-03-2019 00:00:00 4.49167 C 94.5833 % 3.7 C
481 26-03-2019 01:00:00 4.525 C 94.0000 % 3.65 C
482 26-03-2019 02:00:00 4.375 C 94.9167 % 3.63 C
483 26-03-2019 03:00:00 4.64167 C 95.0000 % 3.91 C
484 26-03-2019 04:00:00 4.91667 C 95.0000 % 4.18 C
485 26-03-2019 05:00:00 5.00833 C 93.7500 % 4.09 C
486 26-03-2019 06:00:00 4.99167 C 91.7500 % 3.76 C
487 26-03-2019 07:00:00 5.06667 C 90.0833 % 3.58 C
488 26-03-2019 08:00:00 5.55 C 85.1667 % 3.26 C
489 26-03-2019 09:00:00 6.225 C 80.1667 % 3.07 C
490 26-03-2019 10:00:00 6.98333 C 76.4167 % 3.13 C
491 26-03-2019 11:00:00 7.26667 C 71.8333 % 2.53 C
492 26-03-2019 12:00:00 8.46667 C 69.5833 % 3.24 C
493 26-03-2019 13:00:00 8.85 C 66.0000 % 2.86 C
494 26-03-2019 14:00:00 8.875 C 65.0000 % 2.67 C
495 26-03-2019 15:00:00 9.03333 C 66.5833 % 3.15 C
496 26-03-2019 16:00:00 9.49167 C 64.7500 % 3.2 C
497 26-03-2019 17:00:00 8.43333 C 71.1667 % 3.52 C
498 26-03-2019 18:00:00 8.11667 C 73.9167 % 3.75 C
499 26-03-2019 19:00:00 7.59167 C 78.6667 % 4.13 C
500 26-03-2019 20:00:00 7.075 C 82.1667 % 4.25 C
Sensor: Nr:Datum:Temp:Feuchte:Taupunkt:
Aussen-T/F 501 26-03-2019 21:00:00 6.81667 C 84.0833 % 4.32 C
502 26-03-2019 22:00:00 6.51667 C 86.2500 % 4.39 C
503 26-03-2019 23:00:00 6.24167 C 87.0833 % 4.26 C
504 27-03-2019 00:00:00 6.10833 C 87.5000 % 4.19 C
505 27-03-2019 01:00:00 5.575 C 89.0833 % 3.92 C
506 27-03-2019 02:00:00 5.25 C 90.5000 % 3.83 C
507 27-03-2019 03:00:00 4.9 C 90.6667 % 3.51 C
508 27-03-2019 04:00:00 4.05833 C 91.0000 % 2.73 C
509 27-03-2019 05:00:00 2.91667 C 91.9167 % 1.74 C
510 27-03-2019 06:00:00 2.1 C 93.4167 % 1.15 C
511 27-03-2019 07:00:00 2.6 C 94.5833 % 1.82 C
512 27-03-2019 08:00:00 3.88333 C 94.6667 % 3.11 C
513 27-03-2019 09:00:00 5.8 C 91.8333 % 4.58 C
514 27-03-2019 10:00:00 8.16667 C 83.7500 % 5.59 C
515 27-03-2019 11:00:00 9.13333 C 76.5000 % 5.23 C
516 27-03-2019 12:00:00 10.05 C 69.5000 % 4.73 C
517 27-03-2019 13:00:00 10.8 C 63.5833 % 4.18 C
518 27-03-2019 14:00:00 11.05 C 61.0000 % 3.83 C
519 27-03-2019 15:00:00 11.10833 C 60.2500 % 3.71 C
520 27-03-2019 16:00:00 11.23333 C 59.2500 % 3.59 C
521 27-03-2019 17:00:00 10.975 C 59.9167 % 3.5 C
522 27-03-2019 18:00:00 9.83333 C 68.5833 % 4.34 C
523 27-03-2019 19:00:00 7.64167 C 77.2500 % 3.92 C
524 27-03-2019 20:00:00 6.49167 C 81.6667 % 3.59 C
525 27-03-2019 21:00:00 5.69167 C 84.9167 % 3.36 C
Sensor: Nr:Datum:Temp:Feuchte:Taupunkt:
Aussen-T/F 526 27-03-2019 22:00:00 4.725 C 86.8333 % 2.72 C
527 27-03-2019 23:00:00 3.475 C 89.9167 % 1.98 C
528 28-03-2019 00:00:00 2.925 C 91.8333 % 1.73 C
529 28-03-2019 01:00:00 2.475 C 92.3333 % 1.36 C
530 28-03-2019 02:00:00 1.975 C 93.0000 % 0.97 C
531 28-03-2019 03:00:00 1.60833 C 93.7500 % 0.71 C
532 28-03-2019 04:00:00 1.375 C 94.0000 % 0.52 C
533 28-03-2019 05:00:00 1.13333 C 94.5000 % 0.35 C
534 28-03-2019 06:00:00 1.59167 C 95.0000 % 0.88 C
535 28-03-2019 07:00:00 2.11667 C 95.0000 % 1.4 C
536 28-03-2019 08:00:00 2.79167 C 94.7500 % 2.04 C
537 28-03-2019 09:00:00 4.425 C 92.7500 % 3.36 C
538 28-03-2019 10:00:00 7.30833 C 84.6667 % 4.9 C
539 28-03-2019 11:00:00 10.325 C 75.8333 % 6.25 C
540 28-03-2019 12:00:00 12.53333 C 66.8333 % 6.54 C
541 28-03-2019 13:00:00 13.21667 C 65.8333 % 6.97 C
542 28-03-2019 14:00:00 13.5 C 64.2500 % 6.89 C
543 28-03-2019 15:00:00 13.4 C 63.6667 % 6.66 C
544 28-03-2019 16:00:00 13.45833 C 62.7500 % 6.51 C
545 28-03-2019 17:00:00 13.19167 C 63.7500 % 6.48 C
546 28-03-2019 18:00:00 12.16667 C 70.4167 % 6.95 C
547 28-03-2019 19:00:00 10.36667 C 78.1667 % 6.73 C
548 28-03-2019 20:00:00 10.23333 C 78.5000 % 6.67 C
549 28-03-2019 21:00:00 9.50833 C 79.8333 % 6.21 C
550 28-03-2019 22:00:00 7.88333 C 83.8333 % 5.32 C
Sensor: Nr:Datum:Temp:Feuchte:Taupunkt:
Aussen-T/F 551 28-03-2019 23:00:00 6.3 C 87.8333 % 4.44 C
552 29-03-2019 00:00:00 5.28333 C 90.5833 % 3.87 C
553 29-03-2019 01:00:00 4.35 C 92.2500 % 3.21 C
554 29-03-2019 02:00:00 3.85833 C 93.5000 % 2.91 C
555 29-03-2019 03:00:00 3.05833 C 94.0000 % 2.19 C
556 29-03-2019 04:00:00 2.89167 C 95.0000 % 2.17 C
557 29-03-2019 05:00:00 2.18333 C 95.0000 % 1.47 C
558 29-03-2019 06:00:00 2.075 C 95.0000 % 1.36 C
559 29-03-2019 07:00:00 2.175 C 95.8333 % 1.58 C
560 29-03-2019 08:00:00 2.93333 C 96.0833 % 2.37 C
561 29-03-2019 09:00:00 4.94167 C 96.9167 % 4.49 C
562 29-03-2019 10:00:00 8.09167 C 95.9167 % 7.48 C
563 29-03-2019 11:00:00 12.48333 C 77.7500 % 8.71 C
564 29-03-2019 12:00:00 14.475 C 66.7500 % 8.37 C
565 29-03-2019 13:00:00 15.93333 C 60.0000 % 8.18 C
566 29-03-2019 14:00:00 16.83333 C 55.2500 % 7.81 C
567 29-03-2019 15:00:00 17.475 C 52.4167 % 7.64 C
568 29-03-2019 16:00:00 18.41667 C 49.6667 % 7.72 C
569 29-03-2019 17:00:00 18.94167 C 47.4167 % 7.52 C
570 29-03-2019 18:00:00 16.95833 C 53.8333 % 7.55 C
571 29-03-2019 19:00:00 11.55 C 70.0833 % 6.29 C
572 29-03-2019 20:00:00 9.86667 C 76.2500 % 5.89 C
573 29-03-2019 21:00:00 8.10833 C 81.3333 % 5.11 C
574 29-03-2019 22:00:00 6.7 C 84.5000 % 4.28 C
575 29-03-2019 23:00:00 5.575 C 87.1667 % 3.61 C
Sensor: Nr:Datum:Temp:Feuchte:Taupunkt:
Aussen-T/F 576 30-03-2019 00:00:00 4.59167 C 89.8333 % 3.07 C
577 30-03-2019 01:00:00 4 C 91.5833 % 2.76 C
578 30-03-2019 02:00:00 3.45 C 92.3333 % 2.33 C
579 30-03-2019 03:00:00 2.8 C 93.5833 % 1.87 C
580 30-03-2019 04:00:00 2.48333 C 94.0000 % 1.62 C
581 30-03-2019 05:00:00 1.875 C 94.2500 % 1.05 C
582 30-03-2019 06:00:00 1.73333 C 95.0000 % 1.02 C
583 30-03-2019 07:00:00 2.11667 C 95.6667 % 1.5 C
584 30-03-2019 08:00:00 3.35833 C 96.0833 % 2.79 C
585 30-03-2019 09:00:00 5.45 C 96.6667 % 4.96 C
586 30-03-2019 10:00:00 8.84167 C 90.8333 % 7.43 C
587 30-03-2019 11:00:00 13.74167 C 70.4167 % 8.46 C
588 30-03-2019 12:00:00 17.6 C 50.0000 % 7.06 C
589 30-03-2019 13:00:00 19.30833 C 41.2500 % 5.83 C
590 30-03-2019 14:00:00 19.93333 C 38.1667 % 5.27 C
591 30-03-2019 15:00:00 20.41667 C 37.0000 % 5.25 C
592 30-03-2019 16:00:00 20.54167 C 38.9167 % 6.09 C
593 30-03-2019 17:00:00 19.46667 C 43.0833 % 6.6 C
594 30-03-2019 18:00:00 17.30833 C 53.5000 % 7.78 C
595 30-03-2019 19:00:00 14.88333 C 59.3333 % 7.03 C
596 30-03-2019 20:00:00 13.79167 C 64.3333 % 7.18 C
597 30-03-2019 21:00:00 12.4 C 69.5833 % 7 C
598 30-03-2019 22:00:00 11.125 C 75.0000 % 6.87 C
599 30-03-2019 23:00:00 10.80833 C 75.5833 % 6.67 C
600 31-03-2019 00:00:00 9.55833 C 77.0833 % 5.75 C
Sensor: Nr:Datum:Temp:Feuchte:Taupunkt:
Aussen-T/F 601 31-03-2019 01:00:00 8.38333 C 81.7500 % 5.45 C
602 31-03-2019 02:00:00 7.30833 C 84.0000 % 4.79 C
603 31-03-2019 04:00:00 6.45 C 85.8333 % 4.26 C
604 31-03-2019 05:00:00 5.15 C 88.8333 % 3.46 C
605 31-03-2019 06:00:00 4.95 C 90.5000 % 3.53 C
606 31-03-2019 07:00:00 4.78333 C 90.8333 % 3.42 C
607 31-03-2019 08:00:00 4.70833 C 91.9167 % 3.51 C
608 31-03-2019 09:00:00 5.50833 C 92.9167 % 4.46 C
609 31-03-2019 10:00:00 8 C 91.1667 % 6.65 C
610 31-03-2019 11:00:00 11.51667 C 78.5833 % 7.93 C
611 31-03-2019 12:00:00 14.56667 C 65.9167 % 8.28 C
612 31-03-2019 13:00:00 16.74167 C 55.6667 % 7.84 C
613 31-03-2019 14:00:00 18.34167 C 50.4167 % 7.87 C
614 31-03-2019 15:00:00 18.825 C 48.1667 % 7.64 C
615 31-03-2019 16:00:00 15.925 C 72.8333 % 11.06 C
616 31-03-2019 17:00:00 14.2 C 89.6667 % 12.53 C
617 31-03-2019 18:00:00 15.28333 C 76.0833 % 11.1 C
618 31-03-2019 19:00:00 12.74167 C 80.6667 % 9.51 C
619 31-03-2019 20:00:00 10.11667 C 87.0000 % 8.05 C
620 31-03-2019 21:00:00 8.95 C 87.8333 % 7.05 C
621 31-03-2019 22:00:00 8.04167 C 87.7500 % 6.14 C
622 31-03-2019 23:00:00 7.21667 C 88.0000 % 5.37 C
623 01-04-2019 00:00:00 6.36667 C 89.0000 % 4.69 C
624 01-04-2019 01:00:00 5.74167 C 89.3333 % 4.13 C
625 01-04-2019 02:00:00 5.25 C 90.0000 % 3.75 C
Sensor: Nr:Datum:Temp:Feuchte:Taupunkt:
Aussen-T/F 626 01-04-2019 03:00:00 4.69167 C 90.6667 % 3.3 C
627 01-04-2019 04:00:00 4.31667 C 90.9167 % 2.97 C
628 01-04-2019 05:00:00 3.975 C 91.0833 % 2.66 C
629 01-04-2019 06:00:00 3.56667 C 91.7500 % 2.35 C
630 01-04-2019 07:00:00 3.15 C 92.2500 % 2.02 C
631 01-04-2019 08:00:00 3.16667 C 93.2500 % 2.18 C
632 01-04-2019 09:00:00 4.29167 C 92.7500 % 3.22 C
633 01-04-2019 10:00:00 6.65 C 83.5000 % 4.06 C
634 01-04-2019 11:00:00 9.53333 C 71.2500 % 4.59 C
635 01-04-2019 12:00:00 11.28333 C 65.7500 % 5.12 C
636 01-04-2019 13:00:00 13.00833 C 61.3333 % 5.75 C
637 01-04-2019 14:00:00 14.91667 C 56.9167 % 6.46 C
638 01-04-2019 15:00:00 16.39167 C 53.7500 % 7 C
639 01-04-2019 16:00:00 17.5 C 50.5000 % 7.12 C
640 01-04-2019 17:00:00 18.275 C 47.6667 % 6.99 C
641 01-04-2019 18:00:00 17.875 C 47.3333 % 6.52 C
642 01-04-2019 19:00:00 16 C 55.9167 % 7.21 C
643 01-04-2019 20:00:00 11.775 C 70.5000 % 6.59 C
644 01-04-2019 21:00:00 10.15833 C 75.6667 % 6.06 C
645 01-04-2019 22:00:00 9.35 C 77.0833 % 5.55 C
646 01-04-2019 23:00:00 8.79167 C 77.4167 % 5.07 C
647 02-04-2019 00:00:00 7.93333 C 80.5000 % 4.79 C
648 02-04-2019 01:00:00 7.04167 C 83.1667 % 4.39 C
649 02-04-2019 02:00:00 6.3 C 84.6667 % 3.91 C
650 02-04-2019 03:00:00 5.09167 C 87.5000 % 3.19 C
Sensor: Nr:Datum:Temp:Feuchte:Taupunkt:
Aussen-T/F 651 02-04-2019 04:00:00 4.39167 C 90.0833 % 2.91 C
652 02-04-2019 05:00:00 3.96667 C 91.1667 % 2.66 C
653 02-04-2019 06:00:00 3.88333 C 92.0833 % 2.72 C
654 02-04-2019 07:00:00 4.00833 C 92.9167 % 2.97 C
655 02-04-2019 08:00:00 4.98333 C 92.9167 % 3.94 C
656 02-04-2019 09:00:00 6.53333 C 89.3333 % 4.91 C
657 02-04-2019 10:00:00 8.71667 C 82.0000 % 5.82 C
658 02-04-2019 11:00:00 11.95 C 74.9167 % 7.65 C
659 02-04-2019 12:00:00 15.01667 C 66.7500 % 8.89 C
660 02-04-2019 13:00:00 16.80833 C 60.8333 % 9.21 C
661 02-04-2019 14:00:00 17.975 C 58.0833 % 9.62 C
662 02-04-2019 15:00:00 16.725 C 63.9167 % 9.87 C
663 02-04-2019 16:00:00 17.46667 C 57.6667 % 9.04 C
664 02-04-2019 17:00:00 16.00833 C 65.9167 % 9.65 C
665 02-04-2019 18:00:00 16.08333 C 63.5833 % 9.18 C
666 02-04-2019 19:00:00 15.35833 C 66.0000 % 9.05 C
667 02-04-2019 20:00:00 14.03333 C 71.0833 % 8.88 C
668 02-04-2019 21:00:00 13.50833 C 69.4167 % 8.03 C
669 02-04-2019 22:00:00 12.66667 C 70.1667 % 7.38 C
670 02-04-2019 23:00:00 11.4 C 74.0833 % 6.95 C
671 03-04-2019 00:00:00 10.50833 C 78.7500 % 6.98 C
672 03-04-2019 01:00:00 10.275 C 79.6667 % 6.92 C
673 03-04-2019 02:00:00 9.90833 C 81.5000 % 6.89 C
674 03-04-2019 03:00:00 8.91667 C 84.7500 % 6.49 C
675 03-04-2019 04:00:00 8.875 C 86.1667 % 6.69 C
Sensor: Nr:Datum:Temp:Feuchte:Taupunkt:
Aussen-T/F 676 03-04-2019 05:00:00 8.6 C 86.5833 % 6.49 C
677 03-04-2019 06:00:00 8.075 C 87.9167 % 6.2 C
678 03-04-2019 07:00:00 8.64167 C 84.9167 % 6.25 C
679 03-04-2019 08:00:00 8.86667 C 86.0833 % 6.67 C
680 03-04-2019 09:00:00 7.66667 C 90.5000 % 6.21 C
681 03-04-2019 10:00:00 7.025 C 91.5833 % 5.75 C
682 03-04-2019 11:00:00 7.44167 C 91.9167 % 6.22 C
683 03-04-2019 12:00:00 8.33333 C 88.9167 % 6.62 C
684 03-04-2019 13:00:00 9.475 C 83.1667 % 6.77 C
685 03-04-2019 14:00:00 9.43333 C 81.3333 % 6.4 C
686 03-04-2019 15:00:00 10.05 C 79.7500 % 6.72 C
687 03-04-2019 16:00:00 10.2 C 78.5000 % 6.63 C
688 03-04-2019 17:00:00 9.45833 C 82.2500 % 6.59 C
689 03-04-2019 18:00:00 7.93333 C 90.0833 % 6.41 C
690 03-04-2019 19:00:00 7.025 C 92.7500 % 5.93 C
691 03-04-2019 20:00:00 6.45 C 93.5833 % 5.49 C
692 03-04-2019 21:00:00 6.23333 C 94.6667 % 5.44 C
693 03-04-2019 22:00:00 5.875 C 95.0000 % 5.14 C
694 03-04-2019 23:00:00 5.63333 C 95.0000 % 4.9 C
695 04-04-2019 00:00:00 5.65 C 95.4167 % 4.98 C
696 04-04-2019 01:00:00 5.325 C 95.6667 % 4.69 C
697 04-04-2019 02:00:00 5.41667 C 96.0000 % 4.83 C
698 04-04-2019 03:00:00 5.6 C 96.0000 % 5.01 C
699 04-04-2019 04:00:00 5.54167 C 96.0000 % 4.96 C
700 04-04-2019 05:00:00 5.60833 C 96.0000 % 5.02 C
Sensor: Nr:Datum:Temp:Feuchte:Taupunkt:
Aussen-T/F 701 04-04-2019 06:00:00 5.475 C 96.0000 % 4.89 C
702 04-04-2019 07:00:00 5.34167 C 96.0000 % 4.76 C
703 04-04-2019 08:00:00 5.61667 C 96.0000 % 5.03 C
704 04-04-2019 09:00:00 5.93333 C 96.4167 % 5.41 C
705 04-04-2019 10:00:00 6.075 C 96.0000 % 5.49 C
706 04-04-2019 11:00:00 6.65833 C 93.2500 % 5.65 C
707 04-04-2019 12:00:00 6.95 C 89.4167 % 5.33 C
708 04-04-2019 13:00:00 6.69167 C 91.6667 % 5.43 C
709 04-04-2019 14:00:00 6.4 C 91.7500 % 5.16 C
710 04-04-2019 15:00:00 6.85833 C 91.0833 % 5.51 C
711 04-04-2019 16:00:00 7.08333 C 91.0000 % 5.72 C
712 04-04-2019 17:00:00 7.43333 C 88.2500 % 5.62 C
713 04-04-2019 18:00:00 7.56667 C 85.2500 % 5.25 C
714 04-04-2019 19:00:00 7.25833 C 87.0833 % 5.26 C
715 04-04-2019 20:00:00 5.95833 C 91.6667 % 4.71 C
716 04-04-2019 21:00:00 5.29167 C 93.5000 % 4.33 C
717 04-04-2019 22:00:00 5.08333 C 94.3333 % 4.25 C
718 04-04-2019 23:00:00 4.575 C 94.5000 % 3.77 C
719 05-04-2019 00:00:00 4.10833 C 95.0000 % 3.38 C
720 05-04-2019 01:00:00 3.525 C 95.3333 % 2.85 C
721 05-04-2019 02:00:00 3.775 C 96.0000 % 3.2 C
722 05-04-2019 03:00:00 3.85833 C 96.0000 % 3.28 C
723 05-04-2019 04:00:00 4.06667 C 96.0000 % 3.49 C
724 05-04-2019 05:00:00 3.93333 C 96.0000 % 3.36 C
725 05-04-2019 06:00:00 3.9 C 96.0000 % 3.32 C
Sensor: Nr:Datum:Temp:Feuchte:Taupunkt:
Aussen-T/F 726 05-04-2019 07:00:00 4.13333 C 96.5833 % 3.64 C
727 05-04-2019 08:00:00 4.64167 C 97.0000 % 4.21 C
728 05-04-2019 09:00:00 5.3 C 96.9167 % 4.85 C
729 05-04-2019 10:00:00 5.89167 C 95.6667 % 5.25 C
730 05-04-2019 11:00:00 7.16667 C 90.1667 % 5.67 C
731 05-04-2019 12:00:00 8.025 C 85.7500 % 5.79 C
732 05-04-2019 13:00:00 8.19167 C 84.4167 % 5.73 C
733 05-04-2019 14:00:00 8.41667 C 83.5833 % 5.8 C
734 05-04-2019 15:00:00 8.55 C 84.1667 % 6.03 C
735 05-04-2019 16:00:00 8.58333 C 85.2500 % 6.25 C
736 05-04-2019 17:00:00 8.41667 C 87.1667 % 6.41 C
737 05-04-2019 18:00:00 8.3 C 88.9167 % 6.58 C
738 05-04-2019 19:00:00 8.19167 C 90.2500 % 6.69 C
739 05-04-2019 20:00:00 7.925 C 91.7500 % 6.67 C
740 05-04-2019 21:00:00 7.69167 C 93.0000 % 6.63 C
741 05-04-2019 22:00:00 7.61667 C 94.0000 % 6.71 C
742 05-04-2019 23:00:00 7.6 C 94.4167 % 6.76 C
743 06-04-2019 00:00:00 7.45833 C 95.0000 % 6.71 C
744 06-04-2019 01:00:00 7.40833 C 95.8333 % 6.79 C
745 06-04-2019 02:00:00 7.225 C 95.8333 % 6.61 C
746 06-04-2019 03:00:00 6.14167 C 95.0833 % 5.41 C
747 06-04-2019 04:00:00 5.15833 C 95.7500 % 4.54 C
748 06-04-2019 05:00:00 5.01667 C 96.0000 % 4.43 C
749 06-04-2019 06:00:00 4.675 C 96.1667 % 4.12 C
750 06-04-2019 07:00:00 5.13333 C 96.7500 % 4.66 C
Sensor: Nr:Datum:Temp:Feuchte:Taupunkt:
Aussen-T/F 751 06-04-2019 08:00:00 5.71667 C 97.0000 % 5.28 C
752 06-04-2019 09:00:00 6.025 C 97.0000 % 5.59 C
753 06-04-2019 10:00:00 7.325 C 97.1667 % 6.91 C
754 06-04-2019 11:00:00 9.825 C 90.4167 % 8.33 C
755 06-04-2019 12:00:00 12.51667 C 76.5000 % 8.5 C
756 06-04-2019 13:00:00 14.375 C 68.8333 % 8.73 C
757 06-04-2019 14:00:00 16.04167 C 62.0000 % 8.77 C
758 06-04-2019 15:00:00 15.96667 C 60.5833 % 8.36 C
759 06-04-2019 16:00:00 15.81667 C 61.6667 % 8.48 C
760 06-04-2019 17:00:00 16.30833 C 60.5833 % 8.68 C
761 06-04-2019 18:00:00 17.31667 C 58.4167 % 9.09 C
762 06-04-2019 19:00:00 16.46667 C 64.6667 % 9.8 C
763 06-04-2019 20:00:00 12.50833 C 79.6667 % 9.09 C
764 06-04-2019 21:00:00 11.1 C 84.6667 % 8.62 C
765 06-04-2019 22:00:00 10.05 C 87.8333 % 8.13 C
766 06-04-2019 23:00:00 9.3 C 89.5000 % 7.66 C
767 07-04-2019 00:00:00 8.40833 C 91.5000 % 7.11 C
768 07-04-2019 01:00:00 7.75833 C 92.5833 % 6.63 C
769 07-04-2019 02:00:00 7.175 C 93.6667 % 6.22 C
770 07-04-2019 03:00:00 6.775 C 94.6667 % 5.98 C
771 07-04-2019 04:00:00 6.09167 C 94.6667 % 5.3 C
772 07-04-2019 05:00:00 5.68333 C 95.0000 % 4.95 C
773 07-04-2019 06:00:00 5.43333 C 95.9167 % 4.84 C
774 07-04-2019 07:00:00 4.68333 C 95.6667 % 4.05 C
775 07-04-2019 08:00:00 5.23333 C 96.2500 % 4.69 C
Sensor: Nr:Datum:Temp:Feuchte:Taupunkt:
Aussen-T/F 776 07-04-2019 09:00:00 6.14167 C 97.0000 % 5.7 C
777 07-04-2019 10:00:00 8.25 C 97.0833 % 7.82 C
778 07-04-2019 11:00:00 12.725 C 78.9167 % 9.16 C
779 07-04-2019 12:00:00 15.79167 C 59.0833 % 7.83 C
780 07-04-2019 13:00:00 17.00833 C 51.5833 % 6.97 C
781 07-04-2019 14:00:00 18.25833 C 45.9167 % 6.43 C
782 07-04-2019 15:00:00 19.13333 C 41.5833 % 5.79 C
783 07-04-2019 16:00:00 20 C 39.4167 % 5.79 C
784 07-04-2019 17:00:00 20.88333 C 38.5833 % 6.27 C
785 07-04-2019 18:00:00 19.09167 C 48.2500 % 7.91 C
786 07-04-2019 19:00:00 16.95 C 62.1667 % 9.67 C
787 07-04-2019 20:00:00 15.14167 C 68.5000 % 9.39 C
788 07-04-2019 21:00:00 14.49167 C 71.5833 % 9.42 C
789 07-04-2019 22:00:00 13.95 C 74.0000 % 9.4 C
790 07-04-2019 23:00:00 13.44167 C 78.2500 % 9.73 C
791 08-04-2019 00:00:00 12.95 C 81.1667 % 9.8 C
792 08-04-2019 01:00:00 12.53333 C 82.7500 % 9.68 C
793 08-04-2019 02:00:00 11.975 C 84.4167 % 9.43 C
794 08-04-2019 03:00:00 11.60833 C 85.5833 % 9.28 C
795 08-04-2019 04:00:00 11.23333 C 86.9167 % 9.14 C
796 08-04-2019 05:00:00 11.06667 C 88.0833 % 9.17 C
797 08-04-2019 06:00:00 10.66667 C 88.6667 % 8.87 C
798 08-04-2019 07:00:00 10.025 C 90.3333 % 8.52 C
799 08-04-2019 08:00:00 10.425 C 91.9167 % 9.17 C
800 08-04-2019 09:00:00 11.5 C 88.6667 % 9.7 C
Sensor: Nr:Datum:Temp:Feuchte:Taupunkt:
Aussen-T/F 801 08-04-2019 10:00:00 12.45833 C 84.7500 % 9.96 C
802 08-04-2019 11:00:00 13.16667 C 82.6667 % 10.29 C
803 08-04-2019 12:00:00 13.15 C 83.3333 % 10.39 C
804 08-04-2019 13:00:00 13.48333 C 83.2500 % 10.7 C
805 08-04-2019 14:00:00 15.05 C 77.1667 % 11.09 C
806 08-04-2019 15:00:00 16.80833 C 69.0833 % 11.11 C
807 08-04-2019 16:00:00 17.05833 C 67.7500 % 11.06 C
808 08-04-2019 17:00:00 15.05 C 84.0000 % 12.37 C
809 08-04-2019 18:00:00 14.35833 C 87.1667 % 12.25 C
810 08-04-2019 19:00:00 13.84167 C 86.1667 % 11.57 C
811 08-04-2019 20:00:00 12.875 C 89.4167 % 11.18 C
812 08-04-2019 21:00:00 11.425 C 92.5833 % 10.27 C
813 08-04-2019 22:00:00 11.1 C 94.5833 % 10.26 C
814 08-04-2019 23:00:00 10.93333 C 94.8333 % 10.14 C
815 09-04-2019 00:00:00 10.20833 C 94.9167 % 9.43 C
816 09-04-2019 01:00:00 10.16667 C 95.6667 % 9.51 C
817 09-04-2019 02:00:00 10.44167 C 96.0000 % 9.83 C
818 09-04-2019 03:00:00 10.15833 C 96.0000 % 9.55 C
819 09-04-2019 04:00:00 9.73333 C 96.0000 % 9.13 C
820 09-04-2019 05:00:00 9.025 C 96.0000 % 8.42 C
821 09-04-2019 06:00:00 8.94167 C 96.4167 % 8.4 C
822 09-04-2019 07:00:00 9.30833 C 97.0000 % 8.86 C
823 09-04-2019 08:00:00 9.875 C 97.0000 % 9.42 C
824 09-04-2019 09:00:00 10.50833 C 97.0000 % 10.05 C
825 09-04-2019 10:00:00 11.09167 C 95.8333 % 10.45 C
Sensor: Nr:Datum:Temp:Feuchte:Taupunkt:
Aussen-T/F 826 09-04-2019 11:00:00 11.90833 C 94.6667 % 11.08 C
827 09-04-2019 12:00:00 12.83333 C 92.5000 % 11.65 C
828 09-04-2019 13:00:00 14.475 C 86.0833 % 12.18 C
829 09-04-2019 14:00:00 16.075 C 78.9167 % 12.42 C
830 09-04-2019 15:00:00 16.325 C 77.9167 % 12.47 C
831 09-04-2019 16:00:00 16.08333 C 78.8333 % 12.41 C
832 09-04-2019 17:00:00 15.85 C 79.1667 % 12.25 C
833 09-04-2019 18:00:00 15.4 C 83.0000 % 12.53 C
834 09-04-2019 19:00:00 14.58333 C 81.3333 % 11.42 C
835 09-04-2019 20:00:00 13.625 C 82.2500 % 10.66 C
836 09-04-2019 21:00:00 12.48333 C 84.1667 % 9.89 C
837 09-04-2019 22:00:00 12.36667 C 74.8333 % 8.03 C
838 09-04-2019 23:00:00 12.16667 C 70.5833 % 6.99 C
839 10-04-2019 00:00:00 10.925 C 78.8333 % 7.4 C
840 10-04-2019 01:00:00 10.36667 C 78.1667 % 6.73 C
841 10-04-2019 02:00:00 9.91667 C 80.9167 % 6.8 C
842 10-04-2019 03:00:00 9.775 C 78.6667 % 6.25 C
843 10-04-2019 04:00:00 8.79167 C 81.1667 % 5.75 C
844 10-04-2019 05:00:00 7.34167 C 84.7500 % 4.95 C
845 10-04-2019 06:00:00 6.50833 C 86.1667 % 4.37 C
846 10-04-2019 07:00:00 6.6 C 84.4167 % 4.17 C
847 10-04-2019 08:00:00 7.675 C 77.0833 % 3.92 C
848 10-04-2019 09:00:00 8.50833 C 71.9167 % 3.74 C
849 10-04-2019 10:00:00 9.575 C 69.0000 % 4.18 C
850 10-04-2019 11:00:00 11.18333 C 63.3333 % 4.49 C
Sensor: Nr:Datum:Temp:Feuchte:Taupunkt:
Aussen-T/F 851 10-04-2019 12:00:00 12.16667 C 56.8333 % 3.87 C
852 10-04-2019 13:00:00 13.425 C 54.2500 % 4.38 C
853 10-04-2019 14:00:00 14.24167 C 49.6667 % 3.88 C
854 10-04-2019 15:00:00 15.1 C 46.8333 % 3.83 C
855 10-04-2019 16:00:00 16.075 C 43.9167 % 3.81 C
856 10-04-2019 17:00:00 16.6 C 41.0000 % 3.31 C
857 10-04-2019 18:00:00 15.94167 C 38.0833 % 1.68 C
858 10-04-2019 19:00:00 14.4 C 42.7500 % 1.91 C
859 10-04-2019 20:00:00 11.34167 C 56.7500 % 3.08 C
860 10-04-2019 21:00:00 8.9 C 67.0833 % 3.13 C
861 10-04-2019 22:00:00 7.38333 C 73.1667 % 2.9 C
862 10-04-2019 23:00:00 6.46667 C 76.2500 % 2.6 C
863 11-04-2019 00:00:00 5.75 C 77.3333 % 2.1 C
864 11-04-2019 01:00:00 5.03333 C 77.9167 % 1.51 C
865 11-04-2019 02:00:00 4.4 C 78.8333 % 1.06 C
866 11-04-2019 03:00:00 3.85833 C 79.0833 % 0.57 C
867 11-04-2019 04:00:00 2.9 C 80.5833 % -0.1 C
868 11-04-2019 05:00:00 2.30833 C 81.7500 % -0.48 C
869 11-04-2019 06:00:00 1.71667 C 83.3333 % -0.8 C
870 11-04-2019 07:00:00 1.21667 C 85.2500 % -0.98 C
871 11-04-2019 08:00:00 1.8 C 85.5000 % -0.37 C
872 11-04-2019 09:00:00 3.9 C 77.5000 % 0.33 C
873 11-04-2019 10:00:00 6.76667 C 58.0000 % -0.9 C
874 11-04-2019 11:00:00 8.1 C 49.7500 % -1.75 C
875 11-04-2019 12:00:00 8.91667 C 45.9167 % -2.08 C
Sensor: Nr:Datum:Temp:Feuchte:Taupunkt:
Aussen-T/F 876 11-04-2019 13:00:00 9.875 C 43.4167 % -1.97 C
877 11-04-2019 14:00:00 11.01667 C 40.8333 % -1.77 C
878 11-04-2019 15:00:00 12 C 38.7500 % -1.59 C
879 11-04-2019 16:00:00 12.76667 C 36.1667 % -1.85 C
880 11-04-2019 17:00:00 13.31667 C 34.7500 % -1.9 C
881 11-04-2019 18:00:00 13.025 C 35.1667 % -2 C
882 11-04-2019 19:00:00 11.95833 C 38.1667 % -1.84 C
883 11-04-2019 20:00:00 8.95 C 49.6667 % -0.99 C
884 11-04-2019 21:00:00 6.225 C 61.4167 % -0.63 C
885 11-04-2019 22:00:00 5.35 C 64.0000 % -0.9 C
886 11-04-2019 23:00:00 5.48333 C 60.7500 % -1.48 C
887 12-04-2019 00:00:00 4.46667 C 62.7500 % -2 C
888 12-04-2019 01:00:00 3.54167 C 65.3333 % -2.34 C
889 12-04-2019 02:00:00 2.15833 C 71.6667 % -2.41 C
890 12-04-2019 03:00:00 1.60833 C 73.5833 % -2.59 C
891 12-04-2019 04:00:00 2.15833 C 75.2500 % -1.76 C
892 12-04-2019 05:00:00 2.70833 C 73.2500 % -1.59 C
893 12-04-2019 06:00:00 2.98333 C 70.9167 % -1.76 C
894 12-04-2019 07:00:00 3.475 C 66.8333 % -2.09 C
895 12-04-2019 08:00:00 4.63333 C 58.0833 % -2.89 C
896 12-04-2019 09:00:00 5.03333 C 56.0833 % -2.98 C
897 12-04-2019 10:00:00 5.49167 C 53.2500 % -3.25 C
898 12-04-2019 11:00:00 5.98333 C 51.8333 % -3.15 C
899 12-04-2019 12:00:00 6.78333 C 50.0000 % -2.89 C
900 12-04-2019 13:00:00 7.15833 C 47.7500 % -3.17 C
Sensor: Nr:Datum:Temp:Feuchte:Taupunkt:
Aussen-T/F 901 12-04-2019 14:00:00 7.26667 C 46.8333 % -3.33 C
902 12-04-2019 15:00:00 7.56667 C 46.4167 % -3.17 C
903 12-04-2019 16:00:00 7.3 C 47.3333 % -3.15 C
904 12-04-2019 17:00:00 7.1 C 46.6667 % -3.53 C
905 12-04-2019 18:00:00 6.83333 C 49.0000 % -3.12 C
906 12-04-2019 19:00:00 6.525 C 52.0000 % -2.61 C
907 12-04-2019 20:00:00 6.06667 C 54.9167 % -2.3 C
908 12-04-2019 21:00:00 5.55 C 60.2500 % -1.53 C
909 12-04-2019 22:00:00 4.39167 C 66.5000 % -1.29 C
910 12-04-2019 23:00:00 3.58333 C 68.6667 % -1.62 C
911 13-04-2019 00:00:00 2.95 C 72.5833 % -1.48 C
912 13-04-2019 01:00:00 2.875 C 73.0833 % -1.46 C
913 13-04-2019 02:00:00 2.61667 C 75.7500 % -1.22 C
914 13-04-2019 03:00:00 2.30833 C 77.9167 % -1.14 C
915 13-04-2019 04:00:00 2.6 C 77.4167 % -0.94 C
916 13-04-2019 05:00:00 2.54167 C 78.0000 % -0.9 C
917 13-04-2019 06:00:00 2.28333 C 80.5833 % -0.7 C
918 13-04-2019 07:00:00 2.5 C 80.0833 % -0.58 C
919 13-04-2019 08:00:00 3.125 C 77.1667 % -0.48 C
920 13-04-2019 09:00:00 3.60833 C 73.2500 % -0.72 C
921 13-04-2019 10:00:00 4.75833 C 66.0833 % -1.02 C
922 13-04-2019 11:00:00 5.36667 C 61.0833 % -1.52 C
923 13-04-2019 12:00:00 5.96667 C 57.3333 % -1.81 C
924 13-04-2019 13:00:00 5.75833 C 63.0833 % -0.71 C
925 13-04-2019 14:00:00 4.69167 C 77.4167 % 1.09 C
Sensor: Nr:Datum:Temp:Feuchte:Taupunkt:
Aussen-T/F 926 13-04-2019 15:00:00 5.61667 C 74.8333 % 1.51 C
927 13-04-2019 16:00:00 6.21667 C 68.6667 % 0.9 C
928 13-04-2019 17:00:00 4.55 C 84.8333 % 2.22 C
929 13-04-2019 18:00:00 6.29167 C 77.0833 % 2.58 C
930 13-04-2019 19:00:00 5.59167 C 77.5833 % 1.99 C
931 13-04-2019 20:00:00 4.63333 C 80.6667 % 1.6 C
932 13-04-2019 21:00:00 3.075 C 83.6667 % 0.59 C
933 13-04-2019 22:00:00 1.56667 C 87.5000 % -0.28 C
934 13-04-2019 23:00:00 1.04167 C 89.8333 % -0.44 C
935 14-04-2019 00:00:00 0.475 C 91.0000 % -0.82 C
936 14-04-2019 01:00:00 0.45 C 92.6667 % -0.6 C
937 14-04-2019 02:00:00 1.23333 C 93.3333 % 0.28 C
938 14-04-2019 03:00:00 1.575 C 93.0000 % 0.57 C
939 14-04-2019 04:00:00 1.63333 C 93.0833 % 0.64 C
940 14-04-2019 05:00:00 1.56667 C 93.6667 % 0.66 C
941 14-04-2019 06:00:00 1.25833 C 94.0000 % 0.4 C
942 14-04-2019 07:00:00 1.225 C 95.0000 % 0.51 C
943 14-04-2019 08:00:00 1.5 C 95.0833 % 0.8 C
944 14-04-2019 09:00:00 2.66667 C 95.8333 % 2.07 C
945 14-04-2019 10:00:00 4.15 C 94.4167 % 3.34 C
946 14-04-2019 11:00:00 6.00833 C 84.5833 % 3.61 C
947 14-04-2019 12:00:00 7.71667 C 69.2500 % 2.45 C
948 14-04-2019 13:00:00 8.99167 C 58.3333 % 1.26 C
949 14-04-2019 14:00:00 10.43333 C 52.2500 % 1.08 C
950 14-04-2019 15:00:00 11.46667 C 48.4167 % 0.98 C
Sensor: Nr:Datum:Temp:Feuchte:Taupunkt:
Aussen-T/F 951 14-04-2019 16:00:00 12.08333 C 45.7500 % 0.76 C
952 14-04-2019 17:00:00 12.50833 C 43.7500 % 0.52 C
953 14-04-2019 18:00:00 12.06667 C 45.5000 % 0.66 C
954 14-04-2019 19:00:00 10.99167 C 51.7500 % 1.46 C
955 14-04-2019 20:00:00 8.25 C 64.3333 % 1.93 C
956 14-04-2019 21:00:00 5.925 C 76.1667 % 2.06 C
957 14-04-2019 22:00:00 4.61667 C 81.8333 % 1.79 C
958 14-04-2019 23:00:00 4.06667 C 84.4167 % 1.68 C
959 15-04-2019 00:00:00 4.11667 C 86.0000 % 1.99 C
960 15-04-2019 01:00:00 5.075 C 85.4167 % 2.84 C
961 15-04-2019 02:00:00 5.64167 C 83.3333 % 3.04 C
962 15-04-2019 03:00:00 4.81667 C 85.0000 % 2.51 C
963 15-04-2019 04:00:00 4.78333 C 86.7500 % 2.77 C
964 15-04-2019 05:00:00 4.26667 C 87.7500 % 2.42 C
965 15-04-2019 06:00:00 4.48333 C 89.4167 % 2.9 C
966 15-04-2019 07:00:00 5.1 C 89.5833 % 3.53 C
967 15-04-2019 08:00:00 5.98333 C 88.0000 % 4.15 C
968 15-04-2019 09:00:00 7.175 C 84.3333 % 4.71 C
969 15-04-2019 10:00:00 8.34167 C 80.1667 % 5.13 C
970 15-04-2019 11:00:00 10.15833 C 74.8333 % 5.9 C
971 15-04-2019 12:00:00 12.475 C 65.8333 % 6.27 C
972 15-04-2019 13:00:00 14.29167 C 58.2500 % 6.21 C
973 15-04-2019 14:00:00 16.025 C 53.1667 % 6.5 C
974 15-04-2019 15:00:00 17.53333 C 46.5000 % 5.95 C
975 15-04-2019 16:00:00 18.31667 C 44.7500 % 6.11 C
Sensor: Nr:Datum:Temp:Feuchte:Taupunkt:
Aussen-T/F 976 15-04-2019 17:00:00 18.95833 C 41.0833 % 5.45 C
977 15-04-2019 18:00:00 19.13333 C 38.5000 % 4.68 C
978 15-04-2019 19:00:00 18.19167 C 41.3333 % 4.85 C
979 15-04-2019 20:00:00 14.2 C 57.2500 % 5.88 C
980 15-04-2019 21:00:00 11.575 C 65.6667 % 5.38 C
981 15-04-2019 22:00:00 10.24167 C 68.0833 % 4.62 C
982 15-04-2019 23:00:00 9.24167 C 69.0833 % 3.88 C
983 16-04-2019 00:00:00 8.16667 C 71.5833 % 3.35 C
984 16-04-2019 01:00:00 7.25833 C 73.8333 % 2.91 C
985 16-04-2019 02:00:00 6.48333 C 75.9167 % 2.55 C
986 16-04-2019 03:00:00 6.06667 C 76.1667 % 2.19 C
987 16-04-2019 04:00:00 5.83333 C 75.2500 % 1.8 C
988 16-04-2019 05:00:00 5.50833 C 76.0833 % 1.64 C
989 16-04-2019 06:00:00 4.99167 C 77.5833 % 1.41 C
990 16-04-2019 07:00:00 3.91667 C 82.6667 % 1.24 C
991 16-04-2019 08:00:00 4.51667 C 83.3333 % 1.94 C
992 16-04-2019 09:00:00 6.2 C 80.7500 % 3.15 C
993 16-04-2019 10:00:00 10.39167 C 63.6667 % 3.81 C
994 16-04-2019 11:00:00 13.69167 C 51.1667 % 3.8 C
995 16-04-2019 12:00:00 15.59167 C 47.0833 % 4.36 C
996 16-04-2019 13:00:00 17.025 C 46.0833 % 5.36 C
997 16-04-2019 14:00:00 18.3 C 46.3333 % 6.6 C
998 16-04-2019 15:00:00 19.025 C 45.3333 % 6.94 C
999 16-04-2019 16:00:00 18.85833 C 46.4167 % 7.13 C
1000 16-04-2019 17:00:00 18.09167 C 52.5000 % 8.23 C
Sensor: Nr:Datum:Temp:Feuchte:Taupunkt:
Aussen-T/F 1001 16-04-2019 18:00:00 15.5 C 62.0833 % 8.28 C
1002 16-04-2019 19:00:00 14.63333 C 66.9167 % 8.56 C
1003 16-04-2019 20:00:00 13.25833 C 72.6667 % 8.46 C
1004 16-04-2019 21:00:00 12.29167 C 76.0000 % 8.19 C
1005 16-04-2019 22:00:00 11.825 C 79.1667 % 8.34 C
1006 16-04-2019 23:00:00 11.475 C 80.4167 % 8.23 C
1007 17-04-2019 00:00:00 11.01667 C 82.9167 % 8.23 C
1008 17-04-2019 01:00:00 10.725 C 88.2500 % 8.86 C
1009 17-04-2019 02:00:00 10.25833 C 91.5000 % 8.94 C
1010 17-04-2019 03:00:00 9.91667 C 93.2500 % 8.88 C
1011 17-04-2019 04:00:00 9.73333 C 94.2500 % 8.85 C
1012 17-04-2019 05:00:00 9.60833 C 95.0000 % 8.85 C
1013 17-04-2019 06:00:00 9.66667 C 95.3333 % 8.96 C
1014 17-04-2019 07:00:00 10 C 96.0000 % 9.39 C
1015 17-04-2019 08:00:00 10.64167 C 96.0000 % 10.03 C
1016 17-04-2019 09:00:00 11.36667 C 95.7500 % 10.71 C
1017 17-04-2019 10:00:00 12.30833 C 93.5000 % 11.29 C
1018 17-04-2019 11:00:00 13.04167 C 90.7500 % 11.57 C
1019 17-04-2019 12:00:00 13.675 C 87.0833 % 11.57 C
1020 17-04-2019 13:00:00 14.88333 C 82.2500 % 11.89 C
1021 17-04-2019 14:00:00 16.18333 C 74.4167 % 11.63 C
1022 17-04-2019 15:00:00 17.19167 C 69.7500 % 11.62 C
1023 17-04-2019 16:00:00 18.00833 C 62.9167 % 10.85 C
1024 17-04-2019 17:00:00 18.225 C 62.5833 % 10.97 C
1025 17-04-2019 18:00:00 18.16667 C 61.3333 % 10.61 C
Sensor: Nr:Datum:Temp:Feuchte:Taupunkt:
Aussen-T/F 1026 17-04-2019 19:00:00 16.38333 C 73.5833 % 11.66 C
1027 17-04-2019 20:00:00 13.575 C 77.8333 % 9.78 C
1028 17-04-2019 21:00:00 11.65 C 80.1667 % 8.35 C
1029 17-04-2019 22:00:00 10.36667 C 83.1667 % 7.64 C
1030 17-04-2019 23:00:00 9.375 C 85.0000 % 6.99 C
1031 18-04-2019 00:00:00 8.70833 C 87.5833 % 6.77 C
1032 18-04-2019 01:00:00 8.75833 C 88.1667 % 6.91 C
1033 18-04-2019 02:00:00 8.55 C 87.6667 % 6.62 C
1034 18-04-2019 03:00:00 8.01667 C 86.4167 % 5.89 C
1035 18-04-2019 04:00:00 7.16667 C 87.9167 % 5.3 C
1036 18-04-2019 05:00:00 6.875 C 89.7500 % 5.31 C
1037 18-04-2019 06:00:00 6.76667 C 90.4167 % 5.31 C
1038 18-04-2019 07:00:00 7.44167 C 88.7500 % 5.71 C
1039 18-04-2019 08:00:00 8.475 C 87.8333 % 6.58 C
1040 18-04-2019 09:00:00 9.88333 C 83.4167 % 7.21 C
1041 18-04-2019 10:00:00 12.95 C 71.3333 % 7.89 C
1042 18-04-2019 11:00:00 16.38333 C 56.8333 % 7.81 C
1043 18-04-2019 12:00:00 17.65833 C 52.0000 % 7.69 C
1044 18-04-2019 13:00:00 18.76667 C 47.3333 % 7.33 C
1045 18-04-2019 14:00:00 19.91667 C 42.4167 % 6.78 C
1046 18-04-2019 15:00:00 21.35 C 38.6667 % 6.72 C
1047 18-04-2019 16:00:00 22.525 C 34.1667 % 5.96 C
1048 18-04-2019 17:00:00 23.375 C 32.7500 % 6.09 C
1049 18-04-2019 18:00:00 23.40833 C 32.7500 % 6.12 C
1050 18-04-2019 19:00:00 22.28333 C 36.4167 % 6.67 C
Sensor: Nr:Datum:Temp:Feuchte:Taupunkt:
Aussen-T/F 1051 18-04-2019 20:00:00 18.05833 C 52.5000 % 8.2 C
1052 18-04-2019 21:00:00 15.33333 C 59.4167 % 7.48 C
1053 18-04-2019 22:00:00 14.23333 C 61.5833 % 6.97 C
1054 18-04-2019 23:00:00 13.08333 C 65.2500 % 6.72 C
1055 19-04-2019 00:00:00 11.55833 C 71.8333 % 6.66 C
1056 19-04-2019 01:00:00 10.70833 C 75.0000 % 6.46 C
1057 19-04-2019 02:00:00 11.01667 C 71.5833 % 6.09 C
1058 19-04-2019 03:00:00 10.29167 C 73.6667 % 5.8 C
1059 19-04-2019 04:00:00 9.61667 C 76.2500 % 5.65 C
1060 19-04-2019 05:00:00 8.24167 C 81.4167 % 5.25 C
1061 19-04-2019 06:00:00 7.04167 C 83.8333 % 4.5 C
1062 19-04-2019 07:00:00 6.65 C 86.8333 % 4.62 C
1063 19-04-2019 08:00:00 6.85 C 88.5833 % 5.1 C
1064 19-04-2019 09:00:00 8.975 C 86.5000 % 6.85 C
1065 19-04-2019 10:00:00 13.525 C 66.7500 % 7.47 C
1066 19-04-2019 11:00:00 17.95833 C 48.7500 % 7.02 C
1067 19-04-2019 12:00:00 19.9 C 41.5000 % 6.45 C
1068 19-04-2019 13:00:00 21.36667 C 34.2500 % 4.98 C
1069 19-04-2019 14:00:00 22.44167 C 31.3333 % 4.65 C
1070 19-04-2019 15:00:00 23.675 C 26.9167 % 3.55 C
1071 19-04-2019 16:00:00 24.89167 C 24.0833 % 3 C
1072 19-04-2019 17:00:00 25.28333 C 22.5000 % 2.38 C
1073 19-04-2019 18:00:00 25.50833 C 22.3333 % 2.46 C
1074 19-04-2019 19:00:00 24.25 C 26.1667 % 3.63 C
1075 19-04-2019 20:00:00 19.21667 C 40.8333 % 5.6 C
Sensor: Nr:Datum:Temp:Feuchte:Taupunkt:
Aussen-T/F 1076 19-04-2019 21:00:00 15.875 C 49.4167 % 5.31 C
1077 19-04-2019 22:00:00 13.33333 C 58.2500 % 5.31 C
1078 19-04-2019 23:00:00 11.73333 C 64.2500 % 5.21 C
1079 20-04-2019 00:00:00 10.40833 C 70.5833 % 5.3 C
1080 20-04-2019 01:00:00 9.45833 C 76.1667 % 5.48 C
1081 20-04-2019 02:00:00 8.55833 C 80.8333 % 5.46 C
1082 20-04-2019 03:00:00 7.64167 C 84.0833 % 5.13 C
1083 20-04-2019 04:00:00 6.85 C 87.0000 % 4.84 C
1084 20-04-2019 05:00:00 6.23333 C 89.2500 % 4.6 C
1085 20-04-2019 06:00:00 5.775 C 90.5833 % 4.36 C
1086 20-04-2019 07:00:00 5.85833 C 91.9167 % 4.65 C
1087 20-04-2019 08:00:00 6.48333 C 92.4167 % 5.34 C
1088 20-04-2019 09:00:00 8.16667 C 92.2500 % 6.99 C
1089 20-04-2019 10:00:00 11.68333 C 83.6667 % 9.01 C
1090 20-04-2019 11:00:00 16.725 C 63.9167 % 9.87 C
1091 20-04-2019 12:00:00 20.225 C 46.9167 % 8.53 C
1092 20-04-2019 13:00:00 22.05 C 36.3333 % 6.43 C
1093 20-04-2019 14:00:00 23.275 C 28.9167 % 4.22 C
1094 20-04-2019 15:00:00 24.25833 C 27.7500 % 4.48 C
1095 20-04-2019 16:00:00 25.21667 C 26.6667 % 4.72 C
1096 20-04-2019 17:00:00 25.30833 C 25.1667 % 3.98 C
1097 20-04-2019 18:00:00 25.39167 C 23.5833 % 3.13 C
1098 20-04-2019 19:00:00 24.575 C 26.8333 % 4.27 C
1099 20-04-2019 20:00:00 19.875 C 43.1667 % 7 C
1100 20-04-2019 21:00:00 16.175 C 54.5833 % 7.03 C
Sensor: Nr:Datum:Temp:Feuchte:Taupunkt:
Aussen-T/F 1101 20-04-2019 22:00:00 13.81667 C 63.2500 % 6.96 C
1102 20-04-2019 23:00:00 12.90833 C 65.6667 % 6.64 C
1103 21-04-2019 00:00:00 12.84167 C 64.7500 % 6.38 C
1104 21-04-2019 01:00:00 12.48333 C 65.4167 % 6.18 C
1105 21-04-2019 02:00:00 11.36667 C 70.1667 % 6.13 C
1106 21-04-2019 03:00:00 10.81667 C 73.0833 % 6.19 C
1107 21-04-2019 04:00:00 9.23333 C 78.3333 % 5.66 C
1108 21-04-2019 05:00:00 7.375 C 84.9167 % 5.01 C
1109 21-04-2019 06:00:00 6.45 C 87.7500 % 4.57 C
1110 21-04-2019 07:00:00 6.68333 C 89.1667 % 5.03 C
1111 21-04-2019 08:00:00 7.16667 C 89.8333 % 5.61 C
1112 21-04-2019 09:00:00 8.675 C 89.5833 % 7.06 C
1113 21-04-2019 10:00:00 11.98333 C 81.4167 % 8.9 C
1114 21-04-2019 11:00:00 16.48333 C 63.3333 % 9.5 C
1115 21-04-2019 12:00:00 19.65833 C 45.1667 % 7.46 C
1116 21-04-2019 13:00:00 21.525 C 35.0833 % 5.46 C
1117 21-04-2019 14:00:00 22.98333 C 30.0000 % 4.49 C
1118 21-04-2019 15:00:00 24.46667 C 30.3333 % 5.93 C
1119 21-04-2019 16:00:00 25.73333 C 26.3333 % 4.98 C
1120 21-04-2019 17:00:00 25.94167 C 24.5000 % 4.13 C
1121 21-04-2019 18:00:00 26.13333 C 24.3333 % 4.19 C
1122 21-04-2019 19:00:00 24.58333 C 28.3333 % 5.05 C
1123 21-04-2019 20:00:00 19.69167 C 40.5833 % 5.94 C
1124 21-04-2019 21:00:00 16.725 C 50.6667 % 6.45 C
1125 21-04-2019 22:00:00 13.85833 C 63.0833 % 6.96 C
Sensor: Nr:Datum:Temp:Feuchte:Taupunkt:
Aussen-T/F 1126 21-04-2019 23:00:00 12.21667 C 67.0833 % 6.3 C
1127 22-04-2019 00:00:00 10.54167 C 72.3333 % 5.78 C
1128 22-04-2019 01:00:00 9.24167 C 78.0000 % 5.61 C
1129 22-04-2019 02:00:00 8.2 C 82.5000 % 5.4 C
1130 22-04-2019 03:00:00 7.56667 C 84.9167 % 5.2 C
1131 22-04-2019 04:00:00 6.64167 C 87.8333 % 4.77 C
1132 22-04-2019 05:00:00 5.89167 C 90.3333 % 4.43 C
1133 22-04-2019 06:00:00 5.475 C 91.7500 % 4.24 C
1134 22-04-2019 07:00:00 5.74167 C 92.9167 % 4.69 C
1135 22-04-2019 08:00:00 6.54167 C 93.0000 % 5.49 C
1136 22-04-2019 09:00:00 8.40833 C 92.0000 % 7.19 C
1137 22-04-2019 10:00:00 12.55 C 76.0833 % 8.45 C
1138 22-04-2019 11:00:00 17.96667 C 49.0833 % 7.13 C
1139 22-04-2019 12:00:00 20.89167 C 38.2500 % 6.15 C
1140 22-04-2019 13:00:00 22.65 C 29.7500 % 4.09 C
1141 22-04-2019 14:00:00 23.45 C 29.0833 % 4.45 C
1142 22-04-2019 15:00:00 24.375 C 28.4167 % 4.92 C
1143 22-04-2019 16:00:00 25.49167 C 25.8333 % 4.5 C
1144 22-04-2019 17:00:00 25.70833 C 24.7500 % 4.08 C
1145 22-04-2019 18:00:00 24.4 C 28.0833 % 4.77 C
1146 22-04-2019 19:00:00 21.4 C 41.5833 % 7.82 C
1147 22-04-2019 20:00:00 19.55 C 43.0000 % 6.65 C
1148 22-04-2019 21:00:00 16.975 C 48.8333 % 6.15 C
1149 22-04-2019 22:00:00 15.15 C 51.2500 % 5.17 C
1150 22-04-2019 23:00:00 15.04167 C 49.3333 % 4.52 C
Sensor: Nr:Datum:Temp:Feuchte:Taupunkt:
Aussen-T/F 1151 23-04-2019 00:00:00 13.175 C 55.8333 % 4.56 C
1152 23-04-2019 01:00:00 11.55 C 62.2500 % 4.59 C
1153 23-04-2019 02:00:00 10.31667 C 66.9167 % 4.45 C
1154 23-04-2019 03:00:00 9.7 C 68.5000 % 4.19 C
1155 23-04-2019 04:00:00 9.15833 C 71.7500 % 4.33 C
1156 23-04-2019 05:00:00 8.83333 C 73.1667 % 4.3 C
1157 23-04-2019 06:00:00 8.31667 C 76.0000 % 4.34 C
1158 23-04-2019 07:00:00 8.99167 C 77.2500 % 5.23 C
1159 23-04-2019 08:00:00 10.325 C 76.1667 % 6.32 C
1160 23-04-2019 09:00:00 12.53333 C 63.9167 % 5.9 C
1161 23-04-2019 10:00:00 14.025 C 60.2500 % 6.45 C
1162 23-04-2019 11:00:00 15.475 C 57.4167 % 7.11 C
1163 23-04-2019 12:00:00 17.04167 C 55.2500 % 8.01 C
1164 23-04-2019 13:00:00 18.89167 C 51.1667 % 8.59 C
1165 23-04-2019 14:00:00 20.44167 C 47.9167 % 9.04 C
1166 23-04-2019 15:00:00 21.76667 C 44.6667 % 9.21 C
1167 23-04-2019 16:00:00 23.1 C 42.5000 % 9.67 C
1168 23-04-2019 17:00:00 23.4 C 42.6667 % 10 C
1169 23-04-2019 18:00:00 21.775 C 46.2500 % 9.73 C
1170 23-04-2019 19:00:00 20.31667 C 52.3333 % 10.24 C
1171 23-04-2019 20:00:00 17.975 C 61.3333 % 10.43 C
1172 23-04-2019 21:00:00 16.08333 C 69.0000 % 10.4 C
1173 23-04-2019 22:00:00 15.54167 C 71.2500 % 10.36 C
1174 23-04-2019 23:00:00 15.08333 C 72.1667 % 10.11 C
1175 24-04-2019 00:00:00 14.425 C 75.1667 % 10.09 C
Sensor: Nr:Datum:Temp:Feuchte:Taupunkt:
Aussen-T/F 1176 24-04-2019 01:00:00 12.65833 C 78.4167 % 9.01 C
1177 24-04-2019 02:00:00 11.325 C 83.0000 % 8.55 C
1178 24-04-2019 03:00:00 10.39167 C 86.5000 % 8.24 C
1179 24-04-2019 04:00:00 9.89167 C 88.7500 % 8.12 C
1180 24-04-2019 05:00:00 9.35 C 90.0833 % 7.81 C
1181 24-04-2019 06:00:00 9.1 C 91.6667 % 7.82 C
1182 24-04-2019 07:00:00 9.66667 C 92.5000 % 8.51 C
1183 24-04-2019 08:00:00 11.55833 C 86.9167 % 9.46 C
1184 24-04-2019 09:00:00 13.39167 C 82.3333 % 10.45 C
1185 24-04-2019 10:00:00 16.14167 C 74.2500 % 11.56 C
1186 24-04-2019 11:00:00 18.73333 C 66.7500 % 12.43 C
1187 24-04-2019 12:00:00 21.425 C 50.5833 % 10.75 C
1188 24-04-2019 13:00:00 22.38333 C 45.5000 % 10.04 C
1189 24-04-2019 14:00:00 23.45 C 42.7500 % 10.07 C
1190 24-04-2019 15:00:00 24.80833 C 39.0000 % 9.92 C
1191 24-04-2019 16:00:00 25.20833 C 39.2500 % 10.37 C
1192 24-04-2019 17:00:00 25.675 C 40.9167 % 11.41 C
1193 24-04-2019 18:00:00 19.91667 C 56.8333 % 11.11 C
1194 24-04-2019 19:00:00 13.875 C 77.1667 % 9.95 C
1195 24-04-2019 20:00:00 11.34167 C 86.0000 % 9.09 C
1196 24-04-2019 21:00:00 9.85 C 91.8333 % 8.59 C
1197 24-04-2019 22:00:00 9.16667 C 93.5000 % 8.17 C
1198 24-04-2019 23:00:00 9.00833 C 94.8333 % 8.23 C
1199 25-04-2019 00:00:00 8.85833 C 95.0000 % 8.1 C
1200 25-04-2019 01:00:00 8.125 C 95.0000 % 7.37 C
Sensor: Nr:Datum:Temp:Feuchte:Taupunkt:
Aussen-T/F 1201 25-04-2019 02:00:00 7.45 C 95.2500 % 6.74 C
1202 25-04-2019 03:00:00 7.2 C 96.0000 % 6.61 C
1203 25-04-2019 04:00:00 7.05833 C 96.0000 % 6.46 C
1204 25-04-2019 05:00:00 7.10833 C 96.0000 % 6.51 C
1205 25-04-2019 06:00:00 7.05833 C 96.7500 % 6.58 C
1206 25-04-2019 07:00:00 7.85833 C 97.0000 % 7.41 C
1207 25-04-2019 08:00:00 9.16667 C 97.0000 % 8.72 C
1208 25-04-2019 09:00:00 10.63333 C 97.0000 % 10.18 C
1209 25-04-2019 10:00:00 11.54167 C 95.9167 % 10.91 C
1210 25-04-2019 11:00:00 14.14167 C 79.6667 % 10.68 C
1211 25-04-2019 12:00:00 16.96667 C 64.0000 % 10.12 C
1212 25-04-2019 13:00:00 18.6 C 58.7500 % 10.37 C
1213 25-04-2019 14:00:00 20.25833 C 53.0000 % 10.38 C
1214 25-04-2019 15:00:00 21.525 C 49.3333 % 10.47 C
1215 25-04-2019 16:00:00 22.125 C 55.0000 % 12.66 C
1216 25-04-2019 17:00:00 21.35 C 59.2500 % 13.08 C
1217 25-04-2019 18:00:00 20.55833 C 54.9167 % 11.19 C
1218 25-04-2019 19:00:00 16.88333 C 61.4167 % 9.42 C
1219 25-04-2019 20:00:00 15.125 C 66.7500 % 8.99 C
1220 25-04-2019 21:00:00 13.85 C 72.3333 % 8.96 C
1221 25-04-2019 22:00:00 13.04167 C 74.6667 % 8.65 C
1222 25-04-2019 23:00:00 12.425 C 78.3333 % 8.76 C
1223 26-04-2019 00:00:00 11.39167 C 82.1667 % 8.46 C
1224 26-04-2019 01:00:00 10.93333 C 85.2500 % 8.56 C
1225 26-04-2019 02:00:00 11.00833 C 84.2500 % 8.46 C
Sensor: Nr:Datum:Temp:Feuchte:Taupunkt:
Aussen-T/F 1226 26-04-2019 03:00:00 10.98333 C 83.0833 % 8.23 C
1227 26-04-2019 04:00:00 10.8 C 83.6667 % 8.15 C
1228 26-04-2019 05:00:00 10.4 C 86.9167 % 8.32 C
1229 26-04-2019 06:00:00 9.625 C 92.0000 % 8.39 C
1230 26-04-2019 07:00:00 9.5 C 93.9167 % 8.57 C
1231 26-04-2019 08:00:00 9.50833 C 94.6667 % 8.7 C
1232 26-04-2019 09:00:00 9.99167 C 95.0000 % 9.23 C
1233 26-04-2019 10:00:00 10.275 C 94.9167 % 9.5 C
1234 26-04-2019 11:00:00 10.88333 C 93.5000 % 9.88 C
1235 26-04-2019 12:00:00 11.95833 C 88.6667 % 10.15 C
1236 26-04-2019 13:00:00 13.00833 C 82.5000 % 10.1 C
1237 26-04-2019 14:00:00 13.53333 C 78.1667 % 9.81 C
1238 26-04-2019 15:00:00 13.525 C 76.6667 % 9.51 C
1239 26-04-2019 16:00:00 15.06667 C 70.6667 % 9.78 C
1240 26-04-2019 17:00:00 15.74167 C 66.0000 % 9.41 C
1241 26-04-2019 18:00:00 16.925 C 62.0000 % 9.6 C
1242 26-04-2019 19:00:00 15.84167 C 71.9167 % 10.79 C
1243 26-04-2019 20:00:00 12.575 C 80.7500 % 9.36 C
1244 26-04-2019 21:00:00 10.89167 C 87.0833 % 8.83 C
1245 26-04-2019 22:00:00 10.45833 C 88.7500 % 8.68 C
1246 26-04-2019 23:00:00 10.00833 C 90.3333 % 8.5 C
1247 27-04-2019 00:00:00 9.20833 C 91.9167 % 7.96 C
1248 27-04-2019 01:00:00 9.14167 C 93.0000 % 8.07 C
1249 27-04-2019 02:00:00 8.575 C 93.0833 % 7.52 C
1250 27-04-2019 03:00:00 7.875 C 94.0000 % 6.97 C
Sensor: Nr:Datum:Temp:Feuchte:Taupunkt:
Aussen-T/F 1251 27-04-2019 04:00:00 7.18333 C 94.2500 % 6.32 C
1252 27-04-2019 05:00:00 6.64167 C 94.9167 % 5.89 C
1253 27-04-2019 06:00:00 6.425 C 95.4167 % 5.75 C
1254 27-04-2019 07:00:00 7.15 C 96.0000 % 6.56 C
1255 27-04-2019 08:00:00 8.66667 C 96.8333 % 8.19 C
1256 27-04-2019 09:00:00 10.16667 C 94.8333 % 9.38 C
1257 27-04-2019 10:00:00 11.30833 C 87.6667 % 9.34 C
1258 27-04-2019 11:00:00 12.64167 C 76.5000 % 8.62 C
1259 27-04-2019 12:00:00 12.69167 C 81.5833 % 9.63 C
1260 27-04-2019 13:00:00 13.025 C 77.9167 % 9.27 C
1261 27-04-2019 14:00:00 9.525 C 90.0000 % 7.97 C
1262 27-04-2019 15:00:00 10.46667 C 90.0000 % 8.9 C
1263 27-04-2019 16:00:00 11.75 C 81.7500 % 8.74 C
1264 27-04-2019 17:00:00 12.35 C 78.5833 % 8.74 C
1265 27-04-2019 18:00:00 11.34167 C 80.3333 % 8.08 C
1266 27-04-2019 19:00:00 9.55833 C 90.0833 % 8.02 C
1267 27-04-2019 20:00:00 7.725 C 92.1667 % 6.54 C
1268 27-04-2019 21:00:00 7.3 C 93.8333 % 6.37 C
1269 27-04-2019 22:00:00 6.76667 C 94.5833 % 5.96 C
1270 27-04-2019 23:00:00 6.84167 C 94.9167 % 6.09 C
1271 28-04-2019 00:00:00 6.86667 C 93.7500 % 5.93 C
1272 28-04-2019 01:00:00 6.875 C 92.2500 % 5.71 C
1273 28-04-2019 02:00:00 6.43333 C 91.0000 % 5.07 C
1274 28-04-2019 03:00:00 6.19167 C 90.2500 % 4.72 C
1275 28-04-2019 04:00:00 6.41667 C 88.1667 % 4.6 C
Sensor: Nr:Datum:Temp:Feuchte:Taupunkt:
Aussen-T/F 1276 28-04-2019 05:00:00 6.26667 C 88.6667 % 4.54 C
1277 28-04-2019 06:00:00 6.2 C 88.8333 % 4.5 C
1278 28-04-2019 07:00:00 6.80833 C 88.2500 % 5 C
1279 28-04-2019 08:00:00 7.575 C 86.0833 % 5.4 C
1280 28-04-2019 09:00:00 7.93333 C 86.5833 % 5.84 C
1281 28-04-2019 10:00:00 8.90833 C 83.0000 % 6.18 C
1282 28-04-2019 11:00:00 10 C 74.3333 % 5.65 C
1283 28-04-2019 12:00:00 10.325 C 70.5833 % 5.22 C
1284 28-04-2019 13:00:00 11.3 C 67.0000 % 5.4 C
1285 28-04-2019 14:00:00 12.35 C 66.5000 % 6.3 C
1286 28-04-2019 15:00:00 11.50833 C 73.3333 % 6.91 C
1287 28-04-2019 16:00:00 10.375 C 83.8333 % 7.76 C
1288 28-04-2019 17:00:00 11.44167 C 79.0833 % 7.95 C
1289 28-04-2019 18:00:00 11.48333 C 74.5833 % 7.13 C
1290 28-04-2019 19:00:00 10.86667 C 76.0000 % 6.81 C
1291 28-04-2019 20:00:00 9.65 C 80.2500 % 6.42 C
1292 28-04-2019 21:00:00 7.30833 C 86.9167 % 5.28 C
1293 28-04-2019 22:00:00 5.96667 C 90.4167 % 4.52 C
1294 28-04-2019 23:00:00 5 C 92.3333 % 3.86 C
1295 29-04-2019 00:00:00 4.41667 C 93.5833 % 3.47 C
1296 29-04-2019 01:00:00 4.03333 C 94.0000 % 3.16 C
1297 29-04-2019 02:00:00 3.425 C 94.7500 % 2.66 C
1298 29-04-2019 03:00:00 3.675 C 95.0000 % 2.95 C
1299 29-04-2019 04:00:00 3.54167 C 95.5833 % 2.9 C
1300 29-04-2019 05:00:00 3.35833 C 96.0000 % 2.78 C
Sensor: Nr:Datum:Temp:Feuchte:Taupunkt:
Aussen-T/F 1301 29-04-2019 06:00:00 3.15 C 96.0000 % 2.58 C
1302 29-04-2019 07:00:00 3.225 C 96.0000 % 2.65 C
1303 29-04-2019 08:00:00 3.85833 C 96.4167 % 3.34 C
1304 29-04-2019 09:00:00 4.99167 C 97.0000 % 4.56 C
1305 29-04-2019 10:00:00 6.51667 C 95.1667 % 5.8 C
1306 29-04-2019 11:00:00 8.7 C 90.7500 % 7.27 C
1307 29-04-2019 12:00:00 11.925 C 77.0833 % 8.04 C
1308 29-04-2019 13:00:00 13.975 C 63.3333 % 7.13 C
1309 29-04-2019 14:00:00 14.83333 C 57.0833 % 6.43 C
1310 29-04-2019 15:00:00 15.29167 C 56.3333 % 6.66 C
1311 29-04-2019 16:00:00 15.31667 C 55.3333 % 6.43 C
1312 29-04-2019 17:00:00 15.31667 C 55.7500 % 6.53 C
1313 29-04-2019 18:00:00 13.69167 C 68.6667 % 8.04 C
1314 29-04-2019 19:00:00 11.075 C 88.0833 % 9.18 C
1315 29-04-2019 20:00:00 10.25 C 91.5833 % 8.94 C
1316 29-04-2019 21:00:00 10.13333 C 92.3333 % 8.95 C
1317 29-04-2019 22:00:00 10.25833 C 91.7500 % 8.98 C
1318 29-04-2019 23:00:00 10.65833 C 89.5833 % 9.02 C
1319 30-04-2019 00:00:00 10.98333 C 87.3333 % 8.96 C
1320 30-04-2019 01:00:00 11.16667 C 86.2500 % 8.96 C
1321 30-04-2019 02:00:00 10.85 C 88.0833 % 8.96 C
1322 30-04-2019 03:00:00 10.59167 C 89.0000 % 8.86 C
1323 30-04-2019 04:00:00 10.30833 C 88.9167 % 8.56 C
1324 30-04-2019 05:00:00 10.18333 C 88.0833 % 8.3 C
1325 30-04-2019 06:00:00 10.05833 C 88.8333 % 8.3 C
Sensor: Nr:Datum:Temp:Feuchte:Taupunkt:
Aussen-T/F 1326 30-04-2019 07:00:00 10.075 C 88.7500 % 8.31 C
1327 30-04-2019 08:00:00 10.725 C 83.9167 % 8.12 C
1328 30-04-2019 09:00:00 11.51667 C 76.8333 % 7.6 C
1329 30-04-2019 10:00:00 12.61667 C 70.0833 % 7.31 C
1330 30-04-2019 11:00:00 13.60833 C 62.7500 % 6.65 C
1331 30-04-2019 12:00:00 14.5 C 58.3333 % 6.43 C
1332 30-04-2019 13:00:00 15.65833 C 53.2500 % 6.19 C
1333 30-04-2019 14:00:00 16.86667 C 48.5000 % 5.95 C
1334 30-04-2019 15:00:00 18.59167 C 45.3333 % 6.55 C
1335 30-04-2019 16:00:00 20.025 C 40.8333 % 6.32 C
1336 30-04-2019 17:00:00 20.46667 C 41.5000 % 6.95 C
1337 30-04-2019 18:00:00 20.24167 C 42.8333 % 7.21 C
1338 30-04-2019 19:00:00 18.90833 C 48.8333 % 7.92 C
1339 30-04-2019 20:00:00 16.95833 C 56.9167 % 8.37 C
1340 30-04-2019 21:00:00 15.48333 C 64.8333 % 8.9 C
1341 30-04-2019 22:00:00 14.225 C 70.8333 % 9.01 C
1342 30-04-2019 23:00:00 12.65833 C 77.9167 % 8.91 C
1343 01-05-2019 00:00:00 11.25833 C 83.0833 % 8.5 C
1344 01-05-2019 01:00:00 10.36667 C 85.5000 % 8.04 C
1345 01-05-2019 02:00:00 9.26667 C 88.2500 % 7.43 C
1346 01-05-2019 03:00:00 8.45833 C 90.8333 % 7.05 C
1347 01-05-2019 04:00:00 8.075 C 91.7500 % 6.82 C
1348 01-05-2019 05:00:00 6.95833 C 92.2500 % 5.79 C
1349 01-05-2019 06:00:00 6.275 C 93.5833 % 5.32 C
1350 01-05-2019 07:00:00 6.79167 C 94.9167 % 6.04 C
Sensor: Nr:Datum:Temp:Feuchte:Taupunkt:
Aussen-T/F 1351 01-05-2019 08:00:00 7.9 C 94.8333 % 7.12 C
1352 01-05-2019 09:00:00 8.89167 C 92.9167 % 7.81 C
1353 01-05-2019 10:00:00 10.11667 C 89.7500 % 8.51 C
1354 01-05-2019 11:00:00 11.40833 C 86.2500 % 9.2 C
1355 01-05-2019 12:00:00 13.80833 C 79.0833 % 10.25 C
1356 01-05-2019 13:00:00 16.03333 C 66.4167 % 9.78 C
1357 01-05-2019 14:00:00 17.69167 C 55.0833 % 8.57 C
1358 01-05-2019 15:00:00 19.35 C 48.7500 % 8.3 C
1359 01-05-2019 16:00:00 21.31667 C 43.8333 % 8.52 C
1360 01-05-2019 17:00:00 21.48333 C 44.2500 % 8.81 C
1361 01-05-2019 18:00:00 20.325 C 52.5000 % 10.3 C
1362 01-05-2019 19:00:00 18.21667 C 58.2500 % 9.89 C
1363 01-05-2019 20:00:00 15.65833 C 63.3333 % 8.72 C
1364 01-05-2019 21:00:00 13.53333 C 73.2500 % 8.84 C
1365 01-05-2019 22:00:00 12.76667 C 77.9167 % 9.02 C
1366 01-05-2019 23:00:00 10.80833 C 85.4167 % 8.46 C
1367 02-05-2019 00:00:00 9.98333 C 88.3333 % 8.15 C
1368 02-05-2019 01:00:00 8.96667 C 90.4167 % 7.48 C
1369 02-05-2019 02:00:00 8.23333 C 92.7500 % 7.13 C
1370 02-05-2019 03:00:00 7.73333 C 93.5833 % 6.77 C
1371 02-05-2019 04:00:00 7.025 C 94.0000 % 6.13 C
1372 02-05-2019 05:00:00 6.325 C 94.2500 % 5.47 C
1373 02-05-2019 06:00:00 5.89167 C 95.0000 % 5.15 C
1374 02-05-2019 07:00:00 6.84167 C 96.0000 % 6.25 C
1375 02-05-2019 08:00:00 8.325 C 95.7500 % 7.69 C
Sensor: Nr:Datum:Temp:Feuchte:Taupunkt:
Aussen-T/F 1376 02-05-2019 09:00:00 9.075 C 92.3333 % 7.9 C
1377 02-05-2019 10:00:00 10.725 C 82.5833 % 7.89 C
1378 02-05-2019 11:00:00 12.15833 C 76.5833 % 8.17 C
1379 02-05-2019 12:00:00 12.925 C 74.0000 % 8.41 C
1380 02-05-2019 13:00:00 14.15 C 69.5000 % 8.66 C
1381 02-05-2019 14:00:00 15.85 C 65.2500 % 9.35 C
1382 02-05-2019 15:00:00 16.58333 C 61.0833 % 9.06 C
1383 02-05-2019 16:00:00 17.225 C 58.0000 % 8.9 C
1384 02-05-2019 17:00:00 17.75 C 51.5000 % 7.63 C
1385 02-05-2019 18:00:00 17.96667 C 46.8333 % 6.45 C
1386 02-05-2019 19:00:00 15.54167 C 60.2500 % 7.88 C
1387 02-05-2019 20:00:00 12.78333 C 76.9167 % 8.84 C
1388 02-05-2019 21:00:00 11.44167 C 88.5000 % 9.61 C
1389 02-05-2019 22:00:00 10.75833 C 90.9167 % 9.34 C
1390 02-05-2019 23:00:00 10.7 C 91.7500 % 9.41 C
1391 03-05-2019 00:00:00 10.6 C 92.3333 % 9.41 C
1392 03-05-2019 01:00:00 10.51667 C 86.6667 % 8.39 C
1393 03-05-2019 02:00:00 9.85 C 84.1667 % 7.31 C
1394 03-05-2019 03:00:00 9.375 C 85.7500 % 7.11 C
1395 03-05-2019 04:00:00 9.16667 C 87.6667 % 7.23 C
1396 03-05-2019 05:00:00 9.28333 C 88.0000 % 7.4 C
1397 03-05-2019 06:00:00 9.25 C 87.7500 % 7.33 C
1398 03-05-2019 07:00:00 9.25 C 85.6667 % 6.98 C
1399 03-05-2019 08:00:00 9.65833 C 83.5000 % 7 C
1400 03-05-2019 09:00:00 10.10833 C 79.5000 % 6.73 C
Sensor: Nr:Datum:Temp:Feuchte:Taupunkt:
Aussen-T/F 1401 03-05-2019 10:00:00 10.78333 C 73.7500 % 6.29 C
1402 03-05-2019 11:00:00 11.16667 C 69.0833 % 5.72 C
1403 03-05-2019 12:00:00 11.34167 C 68.9167 % 5.85 C
1404 03-05-2019 13:00:00 12.075 C 65.5833 % 5.83 C
1405 03-05-2019 14:00:00 12.98333 C 59.5000 % 5.29 C
1406 03-05-2019 15:00:00 14.38333 C 52.9167 % 4.92 C
1407 03-05-2019 16:00:00 15 C 51.0000 % 4.96 C
1408 03-05-2019 17:00:00 14.125 C 53.9167 % 4.94 C
1409 03-05-2019 18:00:00 13.64167 C 56.3333 % 5.12 C
1410 03-05-2019 19:00:00 12.4 C 60.0000 % 4.86 C
1411 03-05-2019 20:00:00 11.18333 C 64.2500 % 4.69 C
1412 03-05-2019 21:00:00 9.875 C 70.1667 % 4.7 C
1413 03-05-2019 22:00:00 9.375 C 74.3333 % 5.05 C
1414 03-05-2019 23:00:00 8.65833 C 78.5833 % 5.15 C
1415 04-05-2019 00:00:00 8.05833 C 81.6667 % 5.12 C
1416 04-05-2019 01:00:00 7.625 C 83.1667 % 4.96 C
1417 04-05-2019 02:00:00 7.575 C 84.7500 % 5.18 C
1418 04-05-2019 03:00:00 7.43333 C 86.7500 % 5.37 C
1419 04-05-2019 04:00:00 7.4 C 90.0833 % 5.88 C
1420 04-05-2019 05:00:00 5.025 C 91.3333 % 3.73 C
1421 04-05-2019 06:00:00 3.74167 C 92.3333 % 2.62 C
1422 04-05-2019 07:00:00 3.23333 C 93.0000 % 2.21 C
1423 04-05-2019 08:00:00 3.26667 C 93.8333 % 2.37 C
1424 04-05-2019 09:00:00 3.99167 C 94.0000 % 3.12 C
1425 04-05-2019 10:00:00 4.64167 C 91.0000 % 3.3 C
Sensor: Nr:Datum:Temp:Feuchte:Taupunkt:
Aussen-T/F 1426 04-05-2019 11:00:00 5.00833 C 89.0833 % 3.36 C
1427 04-05-2019 12:00:00 5.93333 C 85.6667 % 3.72 C
1428 04-05-2019 13:00:00 7.25833 C 78.2500 % 3.73 C
1429 04-05-2019 14:00:00 7.44167 C 77.6667 % 3.8 C
1430 04-05-2019 15:00:00 4.74167 C 89.1667 % 3.11 C
1431 04-05-2019 16:00:00 7.80833 C 85.1667 % 5.48 C
1432 04-05-2019 17:00:00 10.13333 C 77.2500 % 6.34 C
1433 04-05-2019 18:00:00 10.36667 C 60.6667 % 3.11 C
1434 04-05-2019 19:00:00 9.3 C 67.2500 % 3.55 C
1435 04-05-2019 20:00:00 7.475 C 74.9167 % 3.32 C
1436 04-05-2019 21:00:00 6.49167 C 79.1667 % 3.15 C
1437 04-05-2019 22:00:00 5.00833 C 85.0000 % 2.7 C
1438 04-05-2019 23:00:00 3.8 C 89.6667 % 2.26 C
1439 05-05-2019 00:00:00 3.71667 C 91.7500 % 2.5 C
1440 05-05-2019 01:00:00 3.80833 C 92.6667 % 2.73 C
1441 05-05-2019 02:00:00 3.45833 C 92.6667 % 2.39 C
1442 05-05-2019 03:00:00 3.68333 C 93.7500 % 2.77 C
1443 05-05-2019 04:00:00 3.69167 C 92.7500 % 2.63 C
1444 05-05-2019 05:00:00 3.33333 C 92.0000 % 2.16 C
1445 05-05-2019 06:00:00 2.73333 C 92.0833 % 1.58 C
1446 05-05-2019 07:00:00 2.46667 C 93.3333 % 1.5 C
1447 05-05-2019 08:00:00 3.35833 C 94.0000 % 2.49 C
1448 05-05-2019 09:00:00 4.73333 C 90.9167 % 3.38 C
1449 05-05-2019 10:00:00 5.84167 C 86.5000 % 3.77 C
1450 05-05-2019 11:00:00 6.98333 C 83.5000 % 4.39 C
Sensor: Nr:Datum:Temp:Feuchte:Taupunkt:
Aussen-T/F 1451 05-05-2019 12:00:00 7.63333 C 80.6667 % 4.53 C
1452 05-05-2019 13:00:00 8.91667 C 73.1667 % 4.38 C
1453 05-05-2019 14:00:00 9.29167 C 70.7500 % 4.26 C
1454 05-05-2019 15:00:00 9.86667 C 68.9167 % 4.44 C
1455 05-05-2019 16:00:00 12.39167 C 57.5833 % 4.27 C
1456 05-05-2019 17:00:00 12.55833 C 58.7500 % 4.71 C
1457 05-05-2019 18:00:00 11.3 C 64.5833 % 4.88 C
1458 05-05-2019 19:00:00 9.66667 C 70.1667 % 4.5 C
1459 05-05-2019 20:00:00 9.19167 C 71.9167 % 4.4 C
1460 05-05-2019 21:00:00 8.26667 C 76.0833 % 4.31 C
1461 05-05-2019 22:00:00 7.15 C 80.1667 % 3.97 C
1462 05-05-2019 23:00:00 6.25 C 85.3333 % 3.98 C
1463 06-05-2019 00:00:00 6.11667 C 86.5000 % 4.04 C
1464 06-05-2019 01:00:00 5.90833 C 87.5833 % 4.01 C
1465 06-05-2019 02:00:00 5.1 C 87.9167 % 3.27 C
1466 06-05-2019 03:00:00 4.25833 C 90.4167 % 2.83 C
1467 06-05-2019 04:00:00 3.59167 C 91.2500 % 2.3 C
1468 06-05-2019 05:00:00 3.01667 C 92.4167 % 1.91 C
1469 06-05-2019 06:00:00 3.14167 C 93.7500 % 2.23 C
1470 06-05-2019 07:00:00 3.70833 C 94.0000 % 2.83 C
1471 06-05-2019 08:00:00 4.56667 C 92.3333 % 3.43 C
1472 06-05-2019 09:00:00 6.31667 C 84.2500 % 3.86 C
1473 06-05-2019 10:00:00 8.01667 C 73.8333 % 3.64 C
1474 06-05-2019 11:00:00 9.33333 C 66.7500 % 3.48 C
1475 06-05-2019 12:00:00 10.05 C 59.5000 % 2.53 C
Sensor: Nr:Datum:Temp:Feuchte:Taupunkt:
Aussen-T/F 1476 06-05-2019 13:00:00 10.95 C 56.0833 % 2.55 C
1477 06-05-2019 14:00:00 11.24167 C 55.0000 % 2.55 C
1478 06-05-2019 15:00:00 11.29167 C 57.1667 % 3.14 C
1479 06-05-2019 16:00:00 11.01667 C 60.3333 % 3.64 C
1480 06-05-2019 17:00:00 10.675 C 61.1667 % 3.51 C
1481 06-05-2019 18:00:00 11.425 C 61.2500 % 4.24 C
1482 06-05-2019 19:00:00 10.75833 C 68.2500 % 5.15 C
1483 06-05-2019 20:00:00 9.18333 C 75.5000 % 5.09 C
1484 06-05-2019 21:00:00 8.26667 C 82.0000 % 5.38 C
1485 06-05-2019 22:00:00 7.75 C 85.5000 % 5.48 C
1486 06-05-2019 23:00:00 7.30833 C 86.8333 % 5.26 C
1487 07-05-2019 00:00:00 7.29167 C 88.5000 % 5.52 C
1488 07-05-2019 01:00:00 7.04167 C 89.1667 % 5.38 C
1489 07-05-2019 02:00:00 6.7 C 90.0000 % 5.18 C
1490 07-05-2019 03:00:00 6.64167 C 90.0000 % 5.12 C
1491 07-05-2019 04:00:00 6.35 C 90.1667 % 4.86 C
1492 07-05-2019 05:00:00 6.16667 C 91.0000 % 4.81 C
1493 07-05-2019 06:00:00 5.85833 C 91.3333 % 4.56 C
1494 07-05-2019 07:00:00 6.38333 C 92.0833 % 5.19 C
1495 07-05-2019 08:00:00 7.30833 C 89.2500 % 5.66 C
1496 07-05-2019 09:00:00 8.475 C 85.7500 % 6.23 C
1497 07-05-2019 10:00:00 9.60833 C 79.9167 % 6.32 C
1498 07-05-2019 11:00:00 10.575 C 71.7500 % 5.7 C
1499 07-05-2019 12:00:00 11.88333 C 60.5000 % 4.49 C
1500 07-05-2019 13:00:00 11.86667 C 58.6667 % 4.04 C
Sensor: Nr:Datum:Temp:Feuchte:Taupunkt:
Aussen-T/F 1501 07-05-2019 14:00:00 12.76667 C 55.1667 % 4.01 C
1502 07-05-2019 15:00:00 13.05833 C 52.6667 % 3.62 C
1503 07-05-2019 16:00:00 14.13333 C 50.6667 % 4.06 C
1504 07-05-2019 17:00:00 14.9 C 47.4167 % 3.83 C
1505 07-05-2019 18:00:00 14.94167 C 46.0000 % 3.44 C
1506 07-05-2019 19:00:00 13.4 C 61.8333 % 6.24 C
1507 07-05-2019 20:00:00 11.275 C 62.9167 % 4.48 C
1508 07-05-2019 21:00:00 9.01667 C 68.3333 % 3.51 C
1509 07-05-2019 22:00:00 7.98333 C 75.9167 % 4 C
1510 07-05-2019 23:00:00 6.93333 C 80.7500 % 3.86 C
1511 08-05-2019 00:00:00 6.325 C 82.9167 % 3.64 C
1512 08-05-2019 01:00:00 5.75 C 84.4167 % 3.33 C
1513 08-05-2019 02:00:00 5.15 C 87.0000 % 3.17 C
1514 08-05-2019 03:00:00 4.7 C 89.4167 % 3.11 C
1515 08-05-2019 04:00:00 4.95 C 91.0000 % 3.61 C
1516 08-05-2019 05:00:00 5.25 C 91.0000 % 3.9 C
1517 08-05-2019 06:00:00 5.49167 C 91.2500 % 4.18 C
1518 08-05-2019 07:00:00 6.21667 C 90.5000 % 4.78 C
1519 08-05-2019 08:00:00 7.49167 C 87.9167 % 5.62 C
1520 08-05-2019 09:00:00 8.85 C 82.5833 % 6.05 C
1521 08-05-2019 10:00:00 9.025 C 87.2500 % 7.02 C
1522 08-05-2019 11:00:00 9.69167 C 89.4167 % 8.04 C
1523 08-05-2019 12:00:00 11.325 C 88.5833 % 9.51 C
1524 08-05-2019 13:00:00 13.61667 C 82.9167 % 10.77 C
1525 08-05-2019 14:00:00 14.7 C 78.7500 % 11.05 C
Sensor: Nr:Datum:Temp:Feuchte:Taupunkt:
Aussen-T/F 1526 08-05-2019 15:00:00 14.56667 C 78.9167 % 10.95 C
1527 08-05-2019 16:00:00 13.39167 C 86.7500 % 11.23 C
1528 08-05-2019 17:00:00 12.51667 C 91.3333 % 11.14 C
1529 08-05-2019 18:00:00 12.5 C 92.9167 % 11.39 C
1530 08-05-2019 19:00:00 12.25833 C 93.5000 % 11.24 C
1531 08-05-2019 20:00:00 11.71667 C 94.0000 % 10.78 C
1532 08-05-2019 21:00:00 10.95833 C 94.5000 % 10.11 C
1533 08-05-2019 22:00:00 10.14167 C 94.9167 % 9.36 C
1534 08-05-2019 23:00:00 9.41667 C 94.5833 % 8.59 C
1535 09-05-2019 00:00:00 8.78333 C 94.5000 % 7.95 C
1536 09-05-2019 01:00:00 8.31667 C 94.7500 % 7.53 C
1537 09-05-2019 02:00:00 7.425 C 94.8333 % 6.65 C
1538 09-05-2019 03:00:00 7.31667 C 95.7500 % 6.68 C
1539 09-05-2019 04:00:00 7.75833 C 96.0000 % 7.16 C
1540 09-05-2019 05:00:00 7.80833 C 96.0000 % 7.21 C
1541 09-05-2019 06:00:00 7.46667 C 95.5833 % 6.81 C
1542 09-05-2019 07:00:00 8.7 C 96.3333 % 8.15 C
1543 09-05-2019 08:00:00 9.9 C 93.4167 % 8.89 C
1544 09-05-2019 09:00:00 11.4 C 87.4167 % 9.39 C
1545 09-05-2019 10:00:00 11.6 C 88.2500 % 9.72 C
1546 09-05-2019 11:00:00 12.78333 C 84.0000 % 10.15 C
1547 09-05-2019 12:00:00 13.21667 C 84.4167 % 10.65 C
1548 09-05-2019 13:00:00 13.26667 C 83.8333 % 10.59 C
1549 09-05-2019 14:00:00 13.60833 C 80.0833 % 10.24 C
1550 09-05-2019 15:00:00 13.43333 C 82.7500 % 10.56 C
Sensor: Nr:Datum:Temp:Feuchte:Taupunkt:
Aussen-T/F 1551 09-05-2019 16:00:00 13.80833 C 81.1667 % 10.64 C
1552 09-05-2019 17:00:00 14.375 C 81.4167 % 11.24 C
1553 09-05-2019 18:00:00 15.625 C 79.3333 % 12.06 C
1554 09-05-2019 19:00:00 15.4 C 79.2500 % 11.83 C
1555 09-05-2019 20:00:00 13.70833 C 85.5833 % 11.34 C
1556 09-05-2019 21:00:00 11.66667 C 90.7500 % 10.21 C
1557 09-05-2019 22:00:00 10.89167 C 94.1667 % 9.99 C
1558 09-05-2019 23:00:00 10.76667 C 95.0000 % 10 C
1559 10-05-2019 00:00:00 10.525 C 95.0000 % 9.76 C
1560 10-05-2019 01:00:00 9.51667 C 95.0000 % 8.76 C
1561 10-05-2019 02:00:00 8.85833 C 95.5000 % 8.18 C
1562 10-05-2019 03:00:00 8.16667 C 95.3333 % 7.47 C
1563 10-05-2019 04:00:00 8.56667 C 96.2500 % 8 C
1564 10-05-2019 05:00:00 8.28333 C 96.0000 % 7.68 C
1565 10-05-2019 06:00:00 8.40833 C 96.0000 % 7.81 C
1566 10-05-2019 07:00:00 8.75 C 95.5833 % 8.08 C
1567 10-05-2019 08:00:00 9.175 C 94.0833 % 8.27 C
1568 10-05-2019 09:00:00 10.7 C 87.5000 % 8.71 C
1569 10-05-2019 10:00:00 12.1 C 81.4167 % 9.02 C
1570 10-05-2019 11:00:00 13.23333 C 75.7500 % 9.05 C
1571 10-05-2019 12:00:00 14.35 C 67.4167 % 8.4 C
1572 10-05-2019 13:00:00 15.44167 C 60.0000 % 7.72 C
1573 10-05-2019 14:00:00 16.75 C 54.4167 % 7.51 C
1574 10-05-2019 15:00:00 17.21667 C 52.5000 % 7.42 C
1575 10-05-2019 16:00:00 17.93333 C 49.3333 % 7.17 C
Sensor: Nr:Datum:Temp:Feuchte:Taupunkt:
Aussen-T/F 1576 10-05-2019 17:00:00 17.6 C 48.8333 % 6.72 C
1577 10-05-2019 18:00:00 17.25 C 50.5833 % 6.91 C
1578 10-05-2019 19:00:00 17.18333 C 62.0000 % 9.85 C
1579 10-05-2019 20:00:00 14.175 C 71.5000 % 9.1 C
1580 10-05-2019 21:00:00 12.35 C 77.4167 % 8.52 C
1581 10-05-2019 22:00:00 11.76667 C 81.3333 % 8.68 C
1582 10-05-2019 23:00:00 11.53333 C 83.2500 % 8.79 C
1583 11-05-2019 00:00:00 11.04167 C 86.5833 % 8.89 C
1584 11-05-2019 01:00:00 10.36667 C 91.1667 % 8.99 C
1585 11-05-2019 02:00:00 10.1 C 93.3333 % 9.07 C
1586 11-05-2019 03:00:00 9.925 C 94.1667 % 9.03 C
1587 11-05-2019 04:00:00 9.7 C 95.0000 % 8.94 C
1588 11-05-2019 05:00:00 9.775 C 95.7500 % 9.13 C
1589 11-05-2019 06:00:00 9.7 C 96.0000 % 9.09 C
1590 11-05-2019 07:00:00 9.7 C 96.0000 % 9.09 C
1591 11-05-2019 08:00:00 9.65833 C 96.0000 % 9.05 C
1592 11-05-2019 09:00:00 9.70833 C 96.0000 % 9.1 C
1593 11-05-2019 10:00:00 9.85833 C 96.0000 % 9.25 C
1594 11-05-2019 11:00:00 10.13333 C 96.0000 % 9.52 C
1595 11-05-2019 12:00:00 10.36667 C 94.5833 % 9.54 C
1596 11-05-2019 13:00:00 9.79167 C 94.0000 % 8.87 C
1597 11-05-2019 14:00:00 9.76667 C 94.9167 % 8.99 C
1598 11-05-2019 15:00:00 9.91667 C 95.0000 % 9.15 C
1599 11-05-2019 16:00:00 10.31667 C 95.9167 % 9.69 C
1600 11-05-2019 17:00:00 10.95833 C 95.4167 % 10.25 C
Sensor: Nr:Datum:Temp:Feuchte:Taupunkt:
Aussen-T/F 1601 11-05-2019 18:00:00 11.79167 C 88.6667 % 9.98 C
1602 11-05-2019 19:00:00 12.1 C 81.5833 % 9.05 C
1603 11-05-2019 20:00:00 11.3 C 84.1667 % 8.73 C
1604 11-05-2019 21:00:00 9.44167 C 91.2500 % 8.09 C
1605 11-05-2019 22:00:00 8.33333 C 92.8333 % 7.24 C
1606 11-05-2019 23:00:00 7.65 C 94.3333 % 6.8 C
1607 12-05-2019 00:00:00 7.41667 C 95.0000 % 6.67 C
1608 12-05-2019 01:00:00 6.75 C 95.0000 % 6.01 C
1609 12-05-2019 02:00:00 6.43333 C 93.7500 % 5.5 C
1610 12-05-2019 03:00:00 5.66667 C 93.0000 % 4.63 C
1611 12-05-2019 04:00:00 4.70833 C 93.7500 % 3.79 C
1612 12-05-2019 05:00:00 4.225 C 94.6667 % 3.45 C
1613 12-05-2019 06:00:00 4.45833 C 95.0000 % 3.73 C
1614 12-05-2019 07:00:00 5.68333 C 91.8333 % 4.46 C
1615 12-05-2019 08:00:00 6.98333 C 85.5000 % 4.72 C
1616 12-05-2019 09:00:00 8.125 C 78.6667 % 4.65 C
1617 12-05-2019 10:00:00 8.83333 C 74.3333 % 4.53 C
1618 12-05-2019 11:00:00 9.58333 C 69.4167 % 4.27 C
1619 12-05-2019 12:00:00 10.54167 C 64.7500 % 4.19 C
1620 12-05-2019 13:00:00 11.66667 C 60.1667 % 4.21 C
1621 12-05-2019 14:00:00 12.83333 C 54.8333 % 3.98 C
1622 12-05-2019 15:00:00 14.13333 C 50.9167 % 4.13 C
1623 12-05-2019 16:00:00 15.25833 C 46.0000 % 3.72 C
1624 12-05-2019 17:00:00 14.83333 C 45.5000 % 3.18 C
1625 12-05-2019 18:00:00 15.19167 C 43.5833 % 2.9 C
Sensor: Nr:Datum:Temp:Feuchte:Taupunkt:
Aussen-T/F 1626 12-05-2019 19:00:00 13.96667 C 45.0833 % 2.26 C
1627 12-05-2019 20:00:00 13.09167 C 49.2500 % 2.71 C
1628 12-05-2019 21:00:00 9.68333 C 71.3333 % 4.76 C
1629 12-05-2019 22:00:00 8.375 C 76.7500 % 4.54 C
1630 12-05-2019 23:00:00 7.30833 C 78.5833 % 3.84 C
1631 13-05-2019 00:00:00 6.45 C 82.1667 % 3.64 C
1632 13-05-2019 01:00:00 5.11667 C 87.5833 % 3.23 C
1633 13-05-2019 02:00:00 4.15 C 90.5833 % 2.75 C
1634 13-05-2019 03:00:00 3.60833 C 92.2500 % 2.47 C
1635 13-05-2019 04:00:00 3.075 C 93.2500 % 2.09 C
1636 13-05-2019 05:00:00 2.64167 C 94.0000 % 1.78 C
1637 13-05-2019 06:00:00 2.30833 C 94.5000 % 1.52 C
1638 13-05-2019 07:00:00 2.63333 C 95.2500 % 1.95 C
1639 13-05-2019 08:00:00 4.26667 C 96.0000 % 3.69 C
1640 13-05-2019 09:00:00 6.13333 C 90.4167 % 4.69 C
1641 13-05-2019 10:00:00 9.69167 C 57.8333 % 1.8 C
1642 13-05-2019 11:00:00 11.4 C 48.6667 % 0.99 C
1643 13-05-2019 12:00:00 13.43333 C 32.5833 % -2.66 C
1644 13-05-2019 13:00:00 14.6 C 29.9167 % -2.79 C
1645 13-05-2019 14:00:00 15.575 C 31.0000 % -1.47 C
1646 13-05-2019 15:00:00 17.19167 C 29.5833 % -0.7 C
1647 13-05-2019 16:00:00 18.43333 C 28.9167 % 0.06 C
1648 13-05-2019 17:00:00 18.6 C 28.4167 % -0.04 C
1649 13-05-2019 18:00:00 18.08333 C 28.8333 % -0.29 C
1650 13-05-2019 19:00:00 16.95833 C 32.8333 % 0.52 C
Sensor: Nr:Datum:Temp:Feuchte:Taupunkt:
Aussen-T/F 1651 13-05-2019 20:00:00 15.41667 C 34.7500 % -0.05 C
1652 13-05-2019 21:00:00 12.25 C 50.4167 % 2.26 C
1653 13-05-2019 22:00:00 9.325 C 60.9167 % 2.18 C
1654 13-05-2019 23:00:00 7.875 C 69.4167 % 2.63 C
1655 14-05-2019 00:00:00 6.7 C 74.8333 % 2.56 C
1656 14-05-2019 01:00:00 5.76667 C 77.5000 % 2.15 C
1657 14-05-2019 02:00:00 4.74167 C 81.2500 % 1.81 C
1658 14-05-2019 03:00:00 3.83333 C 84.6667 % 1.49 C
1659 14-05-2019 04:00:00 3.18333 C 87.0000 % 1.23 C
1660 14-05-2019 05:00:00 2.66667 C 88.9167 % 1.03 C
1661 14-05-2019 06:00:00 2.41667 C 90.8333 % 1.08 C
1662 14-05-2019 07:00:00 2.825 C 92.5000 % 1.73 C
1663 14-05-2019 08:00:00 4.2 C 92.5833 % 3.11 C
1664 14-05-2019 09:00:00 6.50833 C 85.8333 % 4.31 C
1665 14-05-2019 10:00:00 9.575 C 69.3333 % 4.25 C
1666 14-05-2019 11:00:00 12.65 C 50.8333 % 2.74 C
1667 14-05-2019 12:00:00 13.45833 C 45.8333 % 2.03 C
1668 14-05-2019 13:00:00 14.21667 C 43.7500 % 2.07 C
1669 14-05-2019 14:00:00 14.79167 C 43.0000 % 2.35 C
1670 14-05-2019 15:00:00 16.00833 C 39.8333 % 2.37 C
1671 14-05-2019 16:00:00 16.59167 C 37.0833 % 1.89 C
1672 14-05-2019 17:00:00 16.8 C 36.4167 % 1.82 C
1673 14-05-2019 18:00:00 16.475 C 37.2500 % 1.85 C
1674 14-05-2019 19:00:00 16.075 C 38.1667 % 1.83 C
1675 14-05-2019 20:00:00 13.73333 C 48.9167 % 3.2 C
Sensor: Nr:Datum:Temp:Feuchte:Taupunkt:
Aussen-T/F 1676 14-05-2019 21:00:00 10.35 C 60.5833 % 3.07 C
1677 14-05-2019 22:00:00 8.73333 C 67.9167 % 3.15 C
1678 14-05-2019 23:00:00 7.69167 C 71.9167 % 2.96 C
1679 15-05-2019 00:00:00 6.88333 C 73.5000 % 2.48 C
1680 15-05-2019 01:00:00 5.89167 C 77.3333 % 2.24 C
1681 15-05-2019 02:00:00 4.74167 C 81.4167 % 1.84 C
1682 15-05-2019 03:00:00 3.98333 C 84.5000 % 1.61 C
1683 15-05-2019 04:00:00 3.15 C 87.4167 % 1.27 C
1684 15-05-2019 05:00:00 2.60833 C 89.0000 % 0.98 C
1685 15-05-2019 06:00:00 2.325 C 91.0000 % 1.01 C
1686 15-05-2019 07:00:00 2.75833 C 92.4167 % 1.65 C
1687 15-05-2019 08:00:00 3.775 C 92.7500 % 2.71 C
1688 15-05-2019 09:00:00 5.99167 C 85.3333 % 3.72 C
1689 15-05-2019 10:00:00 10.15833 C 54.6667 % 1.45 C
1690 15-05-2019 11:00:00 12.05 C 45.6667 % 0.7 C
1691 15-05-2019 12:00:00 12.95 C 40.9167 % 0 C
1692 15-05-2019 13:00:00 14.08333 C 35.9167 % -0.77 C
1693 15-05-2019 14:00:00 14.95 C 37.1667 % 0.46 C
1694 15-05-2019 15:00:00 15.975 C 34.0833 % 0.18 C
1695 15-05-2019 16:00:00 17.19167 C 34.3333 % 1.35 C
1696 15-05-2019 17:00:00 17.58333 C 33.0833 % 1.18 C
1697 15-05-2019 18:00:00 17.38333 C 33.9167 % 1.35 C
1698 15-05-2019 19:00:00 16.55833 C 35.2500 % 1.16 C
1699 15-05-2019 20:00:00 15.10833 C 42.2500 % 2.39 C
1700 15-05-2019 21:00:00 11.45833 C 56.8333 % 3.21 C
Sensor: Nr:Datum:Temp:Feuchte:Taupunkt:
Aussen-T/F 1701 15-05-2019 22:00:00 9.525 C 60.3333 % 2.24 C
1702 15-05-2019 23:00:00 8.09167 C 63.9167 % 1.69 C
1703 16-05-2019 00:00:00 7.39167 C 66.5833 % 1.59 C
1704 16-05-2019 01:00:00 6.64167 C 73.4167 % 2.24 C
1705 16-05-2019 02:00:00 5.725 C 78.7500 % 2.33 C
1706 16-05-2019 03:00:00 5.58333 C 82.1667 % 2.79 C
1707 16-05-2019 04:00:00 5.71667 C 83.5833 % 3.16 C
1708 16-05-2019 05:00:00 5.83333 C 84.0833 % 3.36 C
1709 16-05-2019 06:00:00 5.95 C 85.4167 % 3.7 C
1710 16-05-2019 07:00:00 6.64167 C 85.1667 % 4.33 C
1711 16-05-2019 08:00:00 7.98333 C 82.8333 % 5.25 C
1712 16-05-2019 09:00:00 9.95 C 72.7500 % 5.29 C
1713 16-05-2019 10:00:00 11.65833 C 62.9167 % 4.84 C
1714 16-05-2019 11:00:00 12.20833 C 58.5833 % 4.34 C
1715 16-05-2019 12:00:00 13.13333 C 58.8333 % 5.27 C
1716 16-05-2019 13:00:00 14.68333 C 56.6667 % 6.18 C
1717 16-05-2019 14:00:00 15.4 C 55.8333 % 6.63 C
1718 16-05-2019 15:00:00 17.38333 C 52.0833 % 7.46 C
1719 16-05-2019 16:00:00 18.23333 C 49.6667 % 7.55 C
1720 16-05-2019 17:00:00 16.90833 C 54.0000 % 7.55 C
1721 16-05-2019 18:00:00 15.44167 C 61.5833 % 8.1 C
1722 16-05-2019 19:00:00 14.075 C 68.0833 % 8.28 C
1723 16-05-2019 20:00:00 12.56667 C 73.1667 % 7.9 C
1724 16-05-2019 21:00:00 11.175 C 76.0000 % 7.11 C
1725 16-05-2019 22:00:00 10.23333 C 81.7500 % 7.26 C
Sensor: Nr:Datum:Temp:Feuchte:Taupunkt:
Aussen-T/F 1726 16-05-2019 23:00:00 9.60833 C 86.3333 % 7.44 C
1727 17-05-2019 00:00:00 9.08333 C 90.9167 % 7.68 C
1728 17-05-2019 01:00:00 8.79167 C 92.5000 % 7.64 C
1729 17-05-2019 02:00:00 8.7 C 93.6667 % 7.74 C
1730 17-05-2019 03:00:00 8.63333 C 94.1667 % 7.75 C
1731 17-05-2019 04:00:00 8.475 C 94.9167 % 7.71 C
1732 17-05-2019 05:00:00 8.36667 C 95.0000 % 7.61 C
1733 17-05-2019 06:00:00 8.45 C 95.5833 % 7.79 C
1734 17-05-2019 07:00:00 8.71667 C 96.0000 % 8.12 C
1735 17-05-2019 08:00:00 8.96667 C 96.0000 % 8.36 C
1736 17-05-2019 09:00:00 9.29167 C 96.0000 % 8.69 C
1737 17-05-2019 10:00:00 9.625 C 96.0000 % 9.02 C
1738 17-05-2019 11:00:00 10.2 C 95.0833 % 9.45 C
1739 17-05-2019 12:00:00 11.175 C 93.7500 % 10.21 C
1740 17-05-2019 13:00:00 12.825 C 89.1667 % 11.09 C
1741 17-05-2019 14:00:00 14.44167 C 84.1667 % 11.8 C
1742 17-05-2019 15:00:00 15.54167 C 79.8333 % 12.08 C
1743 17-05-2019 16:00:00 16.35 C 75.2500 % 11.96 C
1744 17-05-2019 17:00:00 17.35 C 70.8333 % 12.01 C
1745 17-05-2019 18:00:00 16.8 C 78.3333 % 13.01 C
1746 17-05-2019 19:00:00 16.625 C 80.1667 % 13.19 C
1747 17-05-2019 20:00:00 13.975 C 85.3333 % 11.55 C
1748 17-05-2019 21:00:00 12.00833 C 89.6667 % 10.36 C
1749 17-05-2019 22:00:00 11.96667 C 92.0000 % 10.71 C
1750 17-05-2019 23:00:00 12.05833 C 93.4167 % 11.03 C
Sensor: Nr:Datum:Temp:Feuchte:Taupunkt:
Aussen-T/F 1751 18-05-2019 00:00:00 11.6 C 94.0000 % 10.67 C
1752 18-05-2019 01:00:00 10.44167 C 94.4167 % 9.58 C
1753 18-05-2019 02:00:00 10.58333 C 95.8333 % 9.95 C
1754 18-05-2019 03:00:00 10.43333 C 95.9167 % 9.81 C
1755 18-05-2019 04:00:00 9.925 C 96.0000 % 9.32 C
1756 18-05-2019 05:00:00 9.31667 C 96.0000 % 8.71 C
1757 18-05-2019 06:00:00 9.35833 C 96.5000 % 8.83 C
1758 18-05-2019 07:00:00 10.23333 C 97.0000 % 9.78 C
1759 18-05-2019 08:00:00 11.2 C 96.8333 % 10.72 C
1760 18-05-2019 09:00:00 12.275 C 94.6667 % 11.44 C
1761 18-05-2019 10:00:00 14.16667 C 91.3333 % 12.78 C
1762 18-05-2019 11:00:00 16.9 C 77.2500 % 12.89 C
1763 18-05-2019 12:00:00 18.14167 C 71.5000 % 12.91 C
1764 18-05-2019 13:00:00 19.01667 C 69.0833 % 13.22 C
1765 18-05-2019 14:00:00 20.34167 C 62.5000 % 12.95 C
1766 18-05-2019 15:00:00 21.05833 C 58.4167 % 12.59 C
1767 18-05-2019 16:00:00 22.41667 C 60.3333 % 14.36 C
1768 18-05-2019 17:00:00 21.04167 C 70.5833 % 15.49 C
1769 18-05-2019 18:00:00 18.54167 C 76.5833 % 14.35 C
1770 18-05-2019 19:00:00 15.85 C 86.9167 % 13.68 C
1771 18-05-2019 20:00:00 14.79167 C 90.4167 % 13.24 C
1772 18-05-2019 21:00:00 13.71667 C 92.0000 % 12.44 C
1773 18-05-2019 22:00:00 12.75 C 93.3333 % 11.7 C
1774 18-05-2019 23:00:00 12.53333 C 94.6667 % 11.7 C
1775 19-05-2019 00:00:00 12.79167 C 95.0000 % 12.01 C
Sensor: Nr:Datum:Temp:Feuchte:Taupunkt:
Aussen-T/F 1776 19-05-2019 01:00:00 12.73333 C 95.0000 % 11.95 C
1777 19-05-2019 02:00:00 12.26667 C 95.0000 % 11.49 C
1778 19-05-2019 03:00:00 11.71667 C 95.5000 % 11.02 C
1779 19-05-2019 04:00:00 11.625 C 96.0000 % 11.01 C
1780 19-05-2019 05:00:00 11.38333 C 96.0000 % 10.77 C
1781 19-05-2019 06:00:00 11.475 C 96.8333 % 10.99 C
1782 19-05-2019 07:00:00 12.13333 C 97.0000 % 11.67 C
1783 19-05-2019 08:00:00 12.825 C 97.0000 % 12.36 C
1784 19-05-2019 09:00:00 13.73333 C 96.9167 % 13.25 C
1785 19-05-2019 10:00:00 15.11667 C 94.8333 % 14.29 C
1786 19-05-2019 11:00:00 16.26667 C 90.2500 % 14.67 C
1787 19-05-2019 12:00:00 17.99167 C 84.2500 % 15.29 C
1788 19-05-2019 13:00:00 18.78333 C 77.5000 % 14.77 C
1789 19-05-2019 14:00:00 20.225 C 67.2500 % 13.96 C
1790 19-05-2019 15:00:00 22.54167 C 61.3333 % 14.73 C
1791 19-05-2019 16:00:00 23.4 C 58.4167 % 14.78 C
1792 19-05-2019 17:00:00 19.25833 C 63.3333 % 12.13 C
1793 19-05-2019 18:00:00 19.96667 C 65.1667 % 13.23 C
1794 19-05-2019 19:00:00 20.475 C 63.1667 % 13.24 C
1795 19-05-2019 20:00:00 18.96667 C 68.5833 % 13.06 C
1796 19-05-2019 21:00:00 15.7 C 80.8333 % 12.42 C
1797 19-05-2019 22:00:00 14.53333 C 86.1667 % 12.25 C
1798 19-05-2019 23:00:00 14.65833 C 84.7500 % 12.12 C
1799 20-05-2019 00:00:00 14.48333 C 85.6667 % 12.11 C
1800 20-05-2019 01:00:00 13.40833 C 89.3333 % 11.69 C
Sensor: Nr:Datum:Temp:Feuchte:Taupunkt:
Aussen-T/F 1801 20-05-2019 02:00:00 12.46667 C 91.5833 % 11.14 C
1802 20-05-2019 03:00:00 12.23333 C 93.1667 % 11.16 C
1803 20-05-2019 04:00:00 12.7 C 94.0000 % 11.76 C
1804 20-05-2019 05:00:00 13.13333 C 93.0000 % 12.03 C
1805 20-05-2019 06:00:00 13.15 C 92.0000 % 11.88 C
1806 20-05-2019 07:00:00 13.16667 C 92.0000 % 11.9 C
1807 20-05-2019 08:00:00 13.475 C 91.7500 % 12.16 C
1808 20-05-2019 09:00:00 13.95 C 89.9167 % 12.32 C
1809 20-05-2019 10:00:00 14.25833 C 89.0833 % 12.49 C
1810 20-05-2019 11:00:00 14.125 C 91.9167 % 12.83 C
1811 20-05-2019 12:00:00 14.08333 C 92.0833 % 12.82 C
1812 20-05-2019 13:00:00 13.85833 C 92.0000 % 12.58 C
1813 20-05-2019 14:00:00 14.29167 C 91.4167 % 12.91 C
1814 20-05-2019 15:00:00 14.6 C 89.2500 % 12.85 C
1815 20-05-2019 16:00:00 14.84167 C 87.7500 % 12.83 C
1816 20-05-2019 17:00:00 14.93333 C 87.0000 % 12.79 C
1817 20-05-2019 18:00:00 14.86667 C 86.0833 % 12.56 C
1818 20-05-2019 19:00:00 14.65 C 86.6667 % 12.45 C
1819 20-05-2019 20:00:00 14.5 C 87.2500 % 12.41 C
1820 20-05-2019 21:00:00 14.19167 C 88.0000 % 12.23 C
1821 20-05-2019 22:00:00 14.1 C 88.0000 % 12.14 C
1822 20-05-2019 23:00:00 14.21667 C 86.5833 % 12.01 C
1823 21-05-2019 00:00:00 14.23333 C 86.6667 % 12.04 C
1824 21-05-2019 01:00:00 13.8 C 89.5000 % 12.1 C
1825 21-05-2019 02:00:00 13.56667 C 90.6667 % 12.07 C
Sensor: Nr:Datum:Temp:Feuchte:Taupunkt:
Aussen-T/F 1826 21-05-2019 03:00:00 13.275 C 91.5000 % 11.92 C
1827 21-05-2019 04:00:00 13.11667 C 91.0000 % 11.68 C
1828 21-05-2019 05:00:00 12.71667 C 91.5833 % 11.38 C
1829 21-05-2019 06:00:00 12.21667 C 93.7500 % 11.24 C
1830 21-05-2019 07:00:00 12.23333 C 94.0000 % 11.3 C
1831 21-05-2019 08:00:00 12.3 C 93.5833 % 11.3 C
1832 21-05-2019 09:00:00 12.3 C 93.5833 % 11.3 C
1833 21-05-2019 10:00:00 12.23333 C 93.6667 % 11.24 C
1834 21-05-2019 11:00:00 12.15 C 93.0833 % 11.07 C
1835 21-05-2019 12:00:00 12.11667 C 93.8333 % 11.15 C
1836 21-05-2019 13:00:00 12.225 C 94.0000 % 11.29 C
1837 21-05-2019 14:00:00 12.15 C 93.6667 % 11.16 C
1838 21-05-2019 15:00:00 12.15833 C 93.0833 % 11.07 C
1839 21-05-2019 16:00:00 12.09167 C 93.9167 % 11.14 C
1840 21-05-2019 17:00:00 12.18333 C 94.0833 % 11.26 C
1841 21-05-2019 18:00:00 12.275 C 94.0833 % 11.35 C
1842 21-05-2019 19:00:00 12.375 C 93.6667 % 11.38 C
1843 21-05-2019 20:00:00 12.21667 C 94.8333 % 11.41 C
1844 21-05-2019 21:00:00 12.1 C 95.0000 % 11.32 C
1845 21-05-2019 22:00:00 12.04167 C 95.3333 % 11.32 C
1846 21-05-2019 23:00:00 11.85833 C 96.0000 % 11.24 C
1847 22-05-2019 00:00:00 11.8 C 96.0000 % 11.18 C
1848 22-05-2019 01:00:00 11.75 C 96.0000 % 11.13 C
1849 22-05-2019 02:00:00 11.56667 C 96.0000 % 10.95 C
1850 22-05-2019 03:00:00 11.575 C 96.0000 % 10.96 C
Sensor: Nr:Datum:Temp:Feuchte:Taupunkt:
Aussen-T/F 1851 22-05-2019 04:00:00 11.44167 C 95.2500 % 10.71 C
1852 22-05-2019 05:00:00 11.33333 C 95.0000 % 10.56 C
1853 22-05-2019 06:00:00 11.05 C 94.0000 % 10.12 C
1854 22-05-2019 07:00:00 10.66667 C 93.3333 % 9.64 C
1855 22-05-2019 08:00:00 10.33333 C 91.9167 % 9.08 C
1856 22-05-2019 09:00:00 10.475 C 87.2500 % 8.45 C
1857 22-05-2019 10:00:00 10.88333 C 83.4167 % 8.19 C
1858 22-05-2019 11:00:00 11.51667 C 82.3333 % 8.61 C
1859 22-05-2019 12:00:00 12.85 C 76.6667 % 8.86 C
1860 22-05-2019 13:00:00 13.65833 C 73.5833 % 9.03 C
1861 22-05-2019 14:00:00 15.01667 C 69.6667 % 9.52 C
1862 22-05-2019 15:00:00 17.08333 C 63.7500 % 10.17 C
1863 22-05-2019 16:00:00 18.625 C 59.0000 % 10.46 C
1864 22-05-2019 17:00:00 18.24167 C 58.7500 % 10.04 C
1865 22-05-2019 18:00:00 19.46667 C 54.0833 % 9.94 C
1866 22-05-2019 19:00:00 19.025 C 56.0833 % 10.08 C
1867 22-05-2019 20:00:00 17.24167 C 70.9167 % 11.92 C
1868 22-05-2019 21:00:00 13.73333 C 76.5833 % 9.7 C
1869 22-05-2019 22:00:00 11.64167 C 85.5833 % 9.31 C
1870 22-05-2019 23:00:00 10.33333 C 89.6667 % 8.71 C
1871 23-05-2019 00:00:00 9.5 C 91.6667 % 8.21 C
1872 23-05-2019 01:00:00 8.975 C 92.9167 % 7.89 C
1873 23-05-2019 02:00:00 8.54167 C 93.6667 % 7.58 C
1874 23-05-2019 03:00:00 8.35833 C 94.8333 % 7.58 C
1875 23-05-2019 04:00:00 7.93333 C 95.0000 % 7.18 C
Sensor: Nr:Datum:Temp:Feuchte:Taupunkt:
Aussen-T/F 1876 23-05-2019 05:00:00 7.71667 C 95.2500 % 7.01 C
1877 23-05-2019 06:00:00 7.9 C 96.0000 % 7.3 C
1878 23-05-2019 07:00:00 8.675 C 96.0000 % 8.07 C
1879 23-05-2019 08:00:00 9.59167 C 95.8333 % 8.96 C
1880 23-05-2019 09:00:00 11.05833 C 94.0000 % 10.13 C
1881 23-05-2019 10:00:00 13.75 C 87.4167 % 11.7 C
1882 23-05-2019 11:00:00 17.49167 C 65.9167 % 11.06 C
1883 23-05-2019 12:00:00 18.84167 C 57.8333 % 10.36 C
1884 23-05-2019 13:00:00 19.83333 C 56.4167 % 10.92 C
1885 23-05-2019 14:00:00 21.25833 C 48.8333 % 10.07 C
1886 23-05-2019 15:00:00 22.38333 C 46.0833 % 10.23 C
1887 23-05-2019 16:00:00 24.39167 C 39.2500 % 9.64 C
1888 23-05-2019 17:00:00 24.78333 C 37.5833 % 9.35 C
1889 23-05-2019 18:00:00 24.96667 C 37.5000 % 9.48 C
1890 23-05-2019 19:00:00 22.80833 C 52.6667 % 12.64 C
1891 23-05-2019 20:00:00 19.33333 C 64.8333 % 12.55 C
1892 23-05-2019 21:00:00 16.40833 C 74.0833 % 11.78 C
1893 23-05-2019 22:00:00 14.68333 C 82.0000 % 11.65 C
1894 23-05-2019 23:00:00 13.66667 C 83.7500 % 10.97 C
1895 24-05-2019 00:00:00 12.84167 C 86.3333 % 10.62 C
1896 24-05-2019 01:00:00 12.36667 C 87.5833 % 10.37 C
1897 24-05-2019 02:00:00 11.83333 C 89.2500 % 10.12 C
1898 24-05-2019 03:00:00 11.40833 C 91.0000 % 9.99 C
1899 24-05-2019 04:00:00 11.25 C 92.0000 % 10 C
1900 24-05-2019 05:00:00 11.16667 C 92.0000 % 9.92 C
Sensor: Nr:Datum:Temp:Feuchte:Taupunkt:
Aussen-T/F 1901 24-05-2019 06:00:00 11 C 92.9167 % 9.9 C
1902 24-05-2019 07:00:00 11.71667 C 92.7500 % 10.58 C
1903 24-05-2019 08:00:00 13.29167 C 88.2500 % 11.39 C
1904 24-05-2019 09:00:00 15.28333 C 80.2500 % 11.9 C
1905 24-05-2019 10:00:00 16.80833 C 76.3333 % 12.62 C
1906 24-05-2019 11:00:00 18.925 C 68.1667 % 12.93 C
1907 24-05-2019 12:00:00 20.75833 C 57.3333 % 12.02 C
1908 24-05-2019 13:00:00 22.09167 C 46.8333 % 10.21 C
1909 24-05-2019 14:00:00 22.98333 C 43.2500 % 9.83 C
1910 24-05-2019 15:00:00 23.45 C 40.5000 % 9.27 C
1911 24-05-2019 16:00:00 23.88333 C 40.6667 % 9.72 C
1912 24-05-2019 17:00:00 24.26667 C 42.4167 % 10.69 C
1913 24-05-2019 18:00:00 24.40833 C 41.0833 % 10.34 C
1914 24-05-2019 19:00:00 21.04167 C 56.5000 % 12.07 C
1915 24-05-2019 20:00:00 19.475 C 61.7500 % 11.95 C
1916 24-05-2019 21:00:00 16.96667 C 71.5000 % 11.78 C
1917 24-05-2019 22:00:00 15.14167 C 79.5833 % 11.64 C
1918 24-05-2019 23:00:00 14.06667 C 84.0000 % 11.41 C
1919 25-05-2019 00:00:00 14.75833 C 78.6667 % 11.09 C
1920 25-05-2019 01:00:00 13.875 C 77.7500 % 10.06 C
1921 25-05-2019 02:00:00 13.125 C 76.0000 % 8.99 C
1922 25-05-2019 03:00:00 12.16667 C 76.0833 % 8.08 C
1923 25-05-2019 04:00:00 10.84167 C 75.5000 % 6.69 C
1924 25-05-2019 05:00:00 10.2 C 77.2500 % 6.4 C
1925 25-05-2019 06:00:00 9.525 C 83.5833 % 6.89 C
Sensor: Nr:Datum:Temp:Feuchte:Taupunkt:
Aussen-T/F 1926 25-05-2019 07:00:00 10.675 C 80.3333 % 7.43 C
1927 25-05-2019 08:00:00 13.04167 C 72.1667 % 8.15 C
1928 25-05-2019 09:00:00 14.025 C 71.6667 % 8.99 C
1929 25-05-2019 10:00:00 15.3 C 68.2500 % 9.49 C
1930 25-05-2019 11:00:00 16.25 C 63.5000 % 9.32 C
1931 25-05-2019 12:00:00 16.95833 C 64.4167 % 10.2 C
1932 25-05-2019 13:00:00 18.45 C 60.1667 % 10.59 C
1933 25-05-2019 14:00:00 19.35833 C 55.0833 % 10.12 C
1934 25-05-2019 15:00:00 21.01667 C 50.7500 % 10.43 C
1935 25-05-2019 16:00:00 22.06667 C 46.6667 % 10.13 C
1936 25-05-2019 17:00:00 21.73333 C 46.0000 % 9.61 C
1937 25-05-2019 18:00:00 19.95 C 49.0000 % 8.92 C
1938 25-05-2019 19:00:00 18.875 C 54.5833 % 9.53 C
1939 25-05-2019 20:00:00 17.98333 C 64.1667 % 11.12 C
1940 25-05-2019 21:00:00 16.03333 C 71.4167 % 10.87 C
1941 25-05-2019 22:00:00 14.81667 C 75.2500 % 10.48 C
1942 25-05-2019 23:00:00 13.38333 C 79.7500 % 9.96 C
1943 26-05-2019 00:00:00 11.85 C 85.0000 % 9.41 C
1944 26-05-2019 01:00:00 10.775 C 88.8333 % 9.01 C
1945 26-05-2019 02:00:00 10.13333 C 90.9167 % 8.72 C
1946 26-05-2019 03:00:00 9.44167 C 92.3333 % 8.26 C
1947 26-05-2019 04:00:00 8.95 C 93.1667 % 7.91 C
1948 26-05-2019 05:00:00 8.825 C 94.4167 % 7.98 C
1949 26-05-2019 06:00:00 9.36667 C 94.5000 % 8.53 C
1950 26-05-2019 07:00:00 9.9 C 93.6667 % 8.93 C
Sensor: Nr:Datum:Temp:Feuchte:Taupunkt:
Aussen-T/F 1951 26-05-2019 08:00:00 11.21667 C 93.1667 % 10.15 C
1952 26-05-2019 09:00:00 14.3 C 84.5000 % 11.73 C
1953 26-05-2019 10:00:00 16.83333 C 72.8333 % 11.93 C
1954 26-05-2019 11:00:00 18.16667 C 63.5833 % 11.15 C
1955 26-05-2019 12:00:00 18.99167 C 60.8333 % 11.27 C
1956 26-05-2019 13:00:00 20.275 C 58.8333 % 11.96 C
1957 26-05-2019 14:00:00 21.68333 C 52.8333 % 11.65 C
1958 26-05-2019 15:00:00 23.43333 C 49.0833 % 12.14 C
1959 26-05-2019 16:00:00 23.725 C 48.5000 % 12.22 C
1960 26-05-2019 17:00:00 21.91667 C 55.7500 % 12.68 C
1961 26-05-2019 18:00:00 21.45833 C 58.3333 % 12.94 C
1962 26-05-2019 19:00:00 19.93333 C 65.5000 % 13.28 C
1963 26-05-2019 20:00:00 18.36667 C 72.2500 % 13.29 C
1964 26-05-2019 21:00:00 17.93333 C 70.7500 % 12.55 C
1965 26-05-2019 22:00:00 17.68333 C 72.0833 % 12.59 C
1966 26-05-2019 23:00:00 16.925 C 75.2500 % 12.52 C
1967 27-05-2019 00:00:00 16.29167 C 78.4167 % 12.53 C
1968 27-05-2019 01:00:00 15.75 C 80.8333 % 12.47 C
1969 27-05-2019 02:00:00 14.7 C 83.2500 % 11.89 C
1970 27-05-2019 03:00:00 14.1 C 84.4167 % 11.51 C
1971 27-05-2019 04:00:00 13.85 C 87.3333 % 11.78 C
1972 27-05-2019 05:00:00 14.19167 C 90.0000 % 12.58 C
1973 27-05-2019 06:00:00 13.94167 C 92.8333 % 12.8 C
1974 27-05-2019 07:00:00 14.20833 C 94.0000 % 13.26 C
1975 27-05-2019 08:00:00 14.94167 C 93.2500 % 13.86 C
Sensor: Nr:Datum:Temp:Feuchte:Taupunkt:
Aussen-T/F 1976 27-05-2019 09:00:00 15.61667 C 92.6667 % 14.43 C
1977 27-05-2019 10:00:00 15.925 C 91.4167 % 14.53 C
1978 27-05-2019 11:00:00 15.25 C 91.5833 % 13.89 C
1979 27-05-2019 12:00:00 15.00833 C 93.1667 % 13.91 C
1980 27-05-2019 13:00:00 14.39167 C 93.5000 % 13.36 C
1981 27-05-2019 14:00:00 14.53333 C 94.3333 % 13.63 C
1982 27-05-2019 15:00:00 14.825 C 93.9167 % 13.86 C
1983 27-05-2019 16:00:00 15.475 C 93.9167 % 14.5 C
1984 27-05-2019 17:00:00 16.075 C 92.5833 % 14.87 C
1985 27-05-2019 18:00:00 16.275 C 93.0833 % 15.16 C
1986 27-05-2019 19:00:00 16.73333 C 92.9167 % 15.58 C
1987 27-05-2019 20:00:00 15.78333 C 91.5833 % 14.42 C
1988 27-05-2019 21:00:00 14.68333 C 93.0833 % 13.58 C
1989 27-05-2019 22:00:00 13.79167 C 94.2500 % 12.88 C
1990 27-05-2019 23:00:00 13.4 C 95.0000 % 12.62 C
1991 28-05-2019 00:00:00 12.96667 C 95.6667 % 12.29 C
1992 28-05-2019 01:00:00 12.45 C 96.0000 % 11.83 C
1993 28-05-2019 02:00:00 12.55 C 96.6667 % 12.03 C
1994 28-05-2019 03:00:00 12.41667 C 96.5833 % 11.89 C
1995 28-05-2019 04:00:00 11.55 C 96.4167 % 11 C
1996 28-05-2019 05:00:00 11.80833 C 97.0000 % 11.35 C
1997 28-05-2019 06:00:00 12.18333 C 97.0000 % 11.72 C
1998 28-05-2019 07:00:00 12.51667 C 97.0000 % 12.05 C
1999 28-05-2019 08:00:00 12.84167 C 97.0000 % 12.38 C
2000 28-05-2019 09:00:00 13.425 C 95.5833 % 12.73 C
Sensor: Nr:Datum:Temp:Feuchte:Taupunkt:
Aussen-T/F 2001 28-05-2019 10:00:00 14.74167 C 87.5000 % 12.69 C
2002 28-05-2019 11:00:00 15.65 C 80.8333 % 12.37 C
2003 28-05-2019 12:00:00 16.05 C 74.7500 % 11.57 C
2004 28-05-2019 13:00:00 17.49167 C 66.4167 % 11.17 C
2005 28-05-2019 14:00:00 16.04167 C 70.3333 % 10.65 C
2006 28-05-2019 15:00:00 13.65833 C 84.3333 % 11.07 C
2007 28-05-2019 16:00:00 15.80833 C 76.7500 % 11.74 C
2008 28-05-2019 17:00:00 16.80833 C 69.8333 % 11.27 C
2009 28-05-2019 18:00:00 16.78333 C 65.4167 % 10.27 C
2010 28-05-2019 19:00:00 16.08333 C 68.0000 % 10.18 C
2011 28-05-2019 20:00:00 14.10833 C 75.7500 % 9.9 C
2012 28-05-2019 21:00:00 13.10833 C 81.6667 % 10.05 C
2013 28-05-2019 22:00:00 12.15 C 87.5000 % 10.14 C
2014 28-05-2019 23:00:00 11.78333 C 88.7500 % 9.99 C
2015 29-05-2019 00:00:00 11.70833 C 85.8333 % 9.42 C
2016 29-05-2019 01:00:00 11.73333 C 86.5833 % 9.57 C
2017 29-05-2019 02:00:00 11.875 C 85.7500 % 9.57 C
2018 29-05-2019 03:00:00 11.675 C 87.0000 % 9.59 C
2019 29-05-2019 04:00:00 11.44167 C 86.4167 % 9.26 C
2020 29-05-2019 05:00:00 11.08333 C 86.5833 % 8.93 C
2021 29-05-2019 06:00:00 10.875 C 86.5833 % 8.73 C
2022 29-05-2019 07:00:00 10.81667 C 86.0833 % 8.59 C
2023 29-05-2019 08:00:00 11.225 C 84.0000 % 8.62 C
2024 29-05-2019 09:00:00 12.225 C 80.3333 % 8.94 C
2025 29-05-2019 10:00:00 13.83333 C 71.0833 % 8.69 C
Sensor: Nr:Datum:Temp:Feuchte:Taupunkt:
Aussen-T/F 2026 29-05-2019 11:00:00 15.09167 C 63.7500 % 8.28 C
2027 29-05-2019 12:00:00 15.725 C 60.0833 % 8.01 C
2028 29-05-2019 13:00:00 16.48333 C 54.0833 % 7.18 C
2029 29-05-2019 14:00:00 17.40833 C 48.4167 % 6.42 C
2030 29-05-2019 15:00:00 18.99167 C 44.0000 % 6.48 C
2031 29-05-2019 16:00:00 20.91667 C 37.9167 % 6.05 C
2032 29-05-2019 17:00:00 22.38333 C 35.0000 % 6.19 C
2033 29-05-2019 18:00:00 22.1 C 37.9167 % 7.1 C
2034 29-05-2019 19:00:00 21.55 C 44.9167 % 9.09 C
2035 29-05-2019 20:00:00 18.66667 C 61.5833 % 11.14 C
2036 29-05-2019 21:00:00 15.49167 C 67.4167 % 9.49 C
2037 29-05-2019 22:00:00 13.29167 C 77.5000 % 9.45 C
2038 29-05-2019 23:00:00 12.91667 C 79.2500 % 9.41 C
2039 30-05-2019 00:00:00 12.05833 C 81.2500 % 8.95 C
2040 30-05-2019 01:00:00 11.44167 C 84.4167 % 8.91 C
2041 30-05-2019 02:00:00 10.88333 C 86.1667 % 8.67 C
2042 30-05-2019 03:00:00 9.95 C 88.5833 % 8.15 C
2043 30-05-2019 04:00:00 9.56667 C 90.5833 % 8.1 C
2044 30-05-2019 05:00:00 9.1 C 92.0000 % 7.87 C
2045 30-05-2019 06:00:00 9.71667 C 93.5000 % 8.72 C
2046 30-05-2019 07:00:00 10.925 C 91.4167 % 9.58 C
2047 30-05-2019 08:00:00 12.375 C 85.9167 % 10.09 C
2048 30-05-2019 09:00:00 14.10833 C 81.4167 % 10.98 C
2049 30-05-2019 10:00:00 16.09167 C 76.2500 % 11.91 C
2050 30-05-2019 11:00:00 18.18333 C 65.4167 % 11.6 C
Sensor: Nr:Datum:Temp:Feuchte:Taupunkt:
Aussen-T/F 2051 30-05-2019 12:00:00 18.2 C 65.5000 % 11.63 C
2052 30-05-2019 13:00:00 18.23333 C 70.0833 % 12.69 C
2053 30-05-2019 14:00:00 19.425 C 67.1667 % 13.18 C
2054 30-05-2019 15:00:00 21.175 C 64.3333 % 14.18 C
2055 30-05-2019 16:00:00 21.95833 C 62.9167 % 14.57 C
2056 30-05-2019 17:00:00 21.625 C 64.7500 % 14.7 C
2057 30-05-2019 18:00:00 20.95833 C 67.8333 % 14.79 C
2058 30-05-2019 19:00:00 19.95 C 72.0000 % 14.75 C
2059 30-05-2019 20:00:00 18.94167 C 77.1667 % 14.85 C
2060 30-05-2019 21:00:00 17.675 C 81.8333 % 14.53 C
2061 30-05-2019 22:00:00 16.54167 C 85.6667 % 14.13 C
2062 30-05-2019 23:00:00 15.89167 C 88.0000 % 13.91 C
2063 31-05-2019 00:00:00 15.65 C 89.9167 % 14 C
2064 31-05-2019 01:00:00 15.61667 C 90.8333 % 14.12 C
2065 31-05-2019 02:00:00 15.46667 C 90.8333 % 13.98 C
2066 31-05-2019 03:00:00 14.41667 C 92.0833 % 13.15 C
2067 31-05-2019 04:00:00 13.56667 C 93.2500 % 12.5 C
2068 31-05-2019 05:00:00 12.83333 C 94.5000 % 11.97 C
2069 31-05-2019 06:00:00 12.75 C 95.0000 % 11.97 C
2070 31-05-2019 07:00:00 13.1 C 95.9167 % 12.46 C
2071 31-05-2019 08:00:00 14.175 C 95.7500 % 13.51 C
2072 31-05-2019 09:00:00 16.24167 C 87.9167 % 14.24 C
2073 31-05-2019 10:00:00 18.69167 C 74.5833 % 14.09 C
2074 31-05-2019 11:00:00 20.225 C 68.2500 % 14.19 C
2075 31-05-2019 12:00:00 21.375 C 65.3333 % 14.61 C
Sensor: Nr:Datum:Temp:Feuchte:Taupunkt:
Aussen-T/F 2076 31-05-2019 13:00:00 22.725 C 60.4167 % 14.67 C
2077 31-05-2019 14:00:00 23.925 C 55.5000 % 14.48 C
2078 31-05-2019 15:00:00 25.28333 C 51.5833 % 14.6 C
2079 31-05-2019 16:00:00 27.3 C 45.1667 % 14.38 C
2080 31-05-2019 17:00:00 27.50833 C 44.6667 % 14.4 C
2081 31-05-2019 18:00:00 27.58333 C 43.0833 % 13.91 C
2082 31-05-2019 19:00:00 25.63333 C 51.5833 % 14.92 C
2083 31-05-2019 20:00:00 23.64167 C 58.6667 % 15.07 C
2084 31-05-2019 21:00:00 20.09167 C 71.7500 % 14.83 C
2085 31-05-2019 22:00:00 17.725 C 78.6667 % 13.97 C
2086 31-05-2019 23:00:00 15.91667 C 85.0833 % 13.41 C
2087 01-06-2019 00:00:00 14.65 C 88.8333 % 12.83 C
2088 01-06-2019 01:00:00 13.91667 C 91.5833 % 12.57 C
2089 01-06-2019 02:00:00 13.325 C 92.6667 % 12.16 C
2090 01-06-2019 03:00:00 12.83333 C 93.7500 % 11.85 C
2091 01-06-2019 04:00:00 12.2 C 94.0000 % 11.26 C
2092 01-06-2019 05:00:00 11.75833 C 94.9167 % 10.97 C
2093 01-06-2019 06:00:00 11.825 C 95.3333 % 11.1 C
2094 01-06-2019 07:00:00 12.61667 C 96.0000 % 12 C
2095 01-06-2019 08:00:00 13.875 C 94.7500 % 13.05 C
2096 01-06-2019 09:00:00 15.45 C 91.6667 % 14.1 C
2097 01-06-2019 10:00:00 18.14167 C 84.5000 % 15.49 C
2098 01-06-2019 11:00:00 20.91667 C 72.0000 % 15.68 C
2099 01-06-2019 12:00:00 23.01667 C 63.7500 % 15.78 C
2100 01-06-2019 13:00:00 24.31667 C 59.3333 % 15.88 C
Sensor: Nr:Datum:Temp:Feuchte:Taupunkt:
Aussen-T/F 2101 01-06-2019 14:00:00 25.51667 C 55.6667 % 16 C
2102 01-06-2019 15:00:00 27.83333 C 49.5000 % 16.3 C
2103 01-06-2019 16:00:00 29.975 C 43.6667 % 16.27 C
2104 01-06-2019 17:00:00 30.09167 C 42.1667 % 15.83 C
2105 01-06-2019 18:00:00 30.23333 C 43.3333 % 16.38 C
2106 01-06-2019 19:00:00 29.675 C 50.7500 % 18.38 C
2107 01-06-2019 20:00:00 26.65833 C 58.9167 % 17.96 C
2108 01-06-2019 21:00:00 22.7 C 68.0000 % 16.49 C
2109 01-06-2019 22:00:00 20.00833 C 76.0833 % 15.67 C
2110 01-06-2019 23:00:00 18.20833 C 82.2500 % 15.13 C
2111 02-06-2019 00:00:00 16.75833 C 86.5000 % 14.49 C
2112 02-06-2019 01:00:00 15.66667 C 89.3333 % 13.92 C
2113 02-06-2019 02:00:00 14.925 C 91.7500 % 13.6 C
2114 02-06-2019 03:00:00 14.325 C 93.0000 % 13.21 C
2115 02-06-2019 04:00:00 13.81667 C 93.9167 % 12.85 C
2116 02-06-2019 05:00:00 13.29167 C 94.5833 % 12.44 C
2117 02-06-2019 06:00:00 13.40833 C 95.3333 % 12.68 C
2118 02-06-2019 07:00:00 13.95833 C 95.9167 % 13.32 C
2119 02-06-2019 08:00:00 15.03333 C 96.0000 % 14.4 C
2120 02-06-2019 09:00:00 16.60833 C 95.9167 % 15.95 C
2121 02-06-2019 10:00:00 19.64167 C 88.6667 % 17.72 C
2122 02-06-2019 11:00:00 23.11667 C 77.1667 % 18.9 C
2123 02-06-2019 12:00:00 26.66667 C 57.8333 % 17.67 C
2124 02-06-2019 13:00:00 27.96667 C 46.3333 % 15.38 C
2125 02-06-2019 14:00:00 29.1 C 45.5833 % 16.16 C
Sensor: Nr:Datum:Temp:Feuchte:Taupunkt:
Aussen-T/F 2126 02-06-2019 15:00:00 31.04167 C 42.4167 % 16.77 C
2127 02-06-2019 16:00:00 32.76667 C 37.2500 % 16.26 C
2128 02-06-2019 17:00:00 33.1 C 37.2500 % 16.56 C
2129 02-06-2019 18:00:00 33 C 37.9167 % 16.75 C
2130 02-06-2019 19:00:00 32.23333 C 40.0000 % 16.91 C
2131 02-06-2019 20:00:00 28.7 C 49.5000 % 17.09 C
2132 02-06-2019 21:00:00 24.375 C 58.3333 % 15.67 C
2133 02-06-2019 22:00:00 21.35833 C 67.9167 % 15.19 C
2134 02-06-2019 23:00:00 19.30833 C 74.8333 % 14.73 C
2135 03-06-2019 00:00:00 17.75833 C 79.8333 % 14.23 C
2136 03-06-2019 01:00:00 16.825 C 82.3333 % 13.8 C
2137 03-06-2019 02:00:00 16.15 C 84.9167 % 13.61 C
2138 03-06-2019 03:00:00 15.51667 C 87.5833 % 13.47 C
2139 03-06-2019 04:00:00 14.84167 C 89.9167 % 13.2 C
2140 03-06-2019 05:00:00 14.775 C 91.8333 % 13.46 C
2141 03-06-2019 06:00:00 15.23333 C 92.0000 % 13.94 C
2142 03-06-2019 07:00:00 16.11667 C 91.5833 % 14.75 C
2143 03-06-2019 08:00:00 17.63333 C 88.6667 % 15.74 C
2144 03-06-2019 09:00:00 20.30833 C 85.2500 % 17.75 C
2145 03-06-2019 10:00:00 21.325 C 86.5833 % 18.99 C
2146 03-06-2019 11:00:00 23.475 C 74.5833 % 18.7 C
2147 03-06-2019 12:00:00 26.39167 C 59.7500 % 17.93 C
2148 03-06-2019 13:00:00 27.69167 C 52.7500 % 17.17 C
2149 03-06-2019 14:00:00 28.44167 C 40.5000 % 13.73 C
2150 03-06-2019 15:00:00 29.40833 C 35.0000 % 12.35 C
Sensor: Nr:Datum:Temp:Feuchte:Taupunkt:
Aussen-T/F 2151 03-06-2019 16:00:00 26.71667 C 46.0833 % 14.17 C
2152 03-06-2019 17:00:00 25.15833 C 57.9167 % 16.29 C
2153 03-06-2019 18:00:00 23.71667 C 63.9167 % 16.48 C
2154 03-06-2019 19:00:00 22.66667 C 68.0833 % 16.48 C
2155 03-06-2019 20:00:00 22.29167 C 70.0000 % 16.56 C
2156 03-06-2019 21:00:00 20.63333 C 74.5833 % 15.96 C
2157 03-06-2019 22:00:00 19.40833 C 77.7500 % 15.42 C
2158 03-06-2019 23:00:00 18.06667 C 81.5833 % 14.87 C
2159 04-06-2019 00:00:00 16.71667 C 86.5000 % 14.45 C
2160 04-06-2019 01:00:00 15.84167 C 89.7500 % 14.16 C
2161 04-06-2019 02:00:00 15.15 C 91.8333 % 13.83 C
2162 04-06-2019 03:00:00 14.41667 C 92.9167 % 13.29 C
2163 04-06-2019 04:00:00 13.65833 C 93.5000 % 12.63 C
2164 04-06-2019 05:00:00 13.2 C 94.2500 % 12.3 C
2165 04-06-2019 06:00:00 13.275 C 95.1667 % 12.52 C
2166 04-06-2019 07:00:00 14.525 C 95.0000 % 13.73 C
2167 04-06-2019 08:00:00 16.05 C 91.9167 % 14.74 C
2168 04-06-2019 09:00:00 17.45 C 88.6667 % 15.56 C
2169 04-06-2019 10:00:00 20.16667 C 78.6667 % 16.34 C
2170 04-06-2019 11:00:00 22.35833 C 71.0833 % 16.86 C
2171 04-06-2019 12:00:00 23.89167 C 68.1667 % 17.66 C
2172 04-06-2019 13:00:00 25.74167 C 60.4167 % 17.5 C
2173 04-06-2019 14:00:00 27.4 C 54.5833 % 17.44 C
2174 04-06-2019 15:00:00 28.7 C 52.2500 % 17.95 C
2175 04-06-2019 16:00:00 30.56667 C 49.5833 % 18.82 C
Sensor: Nr:Datum:Temp:Feuchte:Taupunkt:
Aussen-T/F 2176 04-06-2019 17:00:00 31.925 C 44.4167 % 18.3 C
2177 04-06-2019 18:00:00 31.24167 C 47.4167 % 18.72 C
2178 04-06-2019 19:00:00 29.25 C 54.9167 % 19.25 C
2179 04-06-2019 20:00:00 26.51667 C 62.5833 % 18.79 C
2180 04-06-2019 21:00:00 23.36667 C 67.6667 % 17.05 C
2181 04-06-2019 22:00:00 22.025 C 70.6667 % 16.45 C
2182 04-06-2019 23:00:00 22.70833 C 64.8333 % 15.75 C
2183 05-06-2019 00:00:00 23.28333 C 63.0000 % 15.85 C
2184 05-06-2019 01:00:00 21.33333 C 69.9167 % 15.62 C
2185 05-06-2019 02:00:00 20.575 C 74.1667 % 15.81 C
2186 05-06-2019 03:00:00 19.35 C 77.8333 % 15.38 C
2187 05-06-2019 04:00:00 18.80833 C 80.2500 % 15.33 C
2188 05-06-2019 05:00:00 17.44167 C 83.8333 % 14.68 C
2189 05-06-2019 06:00:00 17.69167 C 85.2500 % 15.18 C
2190 05-06-2019 07:00:00 17.98333 C 86.5833 % 15.71 C
2191 05-06-2019 08:00:00 18.38333 C 88.0000 % 16.36 C
2192 05-06-2019 09:00:00 21.025 C 76.4167 % 16.72 C
2193 05-06-2019 10:00:00 22.73333 C 70.5833 % 17.11 C
2194 05-06-2019 11:00:00 23.64167 C 66.3333 % 17 C
2195 05-06-2019 12:00:00 24.34167 C 63.2500 % 16.91 C
2196 05-06-2019 13:00:00 25.925 C 60.1667 % 17.61 C
2197 05-06-2019 14:00:00 27.25833 C 56.0833 % 17.74 C
2198 05-06-2019 15:00:00 29.5 C 49.5833 % 17.85 C
2199 05-06-2019 16:00:00 31.35 C 41.7500 % 16.8 C
2200 05-06-2019 17:00:00 30.43333 C 46.7500 % 17.76 C
Sensor: Nr:Datum:Temp:Feuchte:Taupunkt:
Aussen-T/F 2201 05-06-2019 18:00:00 28.60833 C 56.1667 % 19.01 C
2202 05-06-2019 19:00:00 29.73333 C 54.6667 % 19.62 C
2203 05-06-2019 20:00:00 27.55833 C 56.5833 % 18.16 C
2204 05-06-2019 21:00:00 23.44167 C 68.3333 % 17.27 C
2205 05-06-2019 22:00:00 21.625 C 75.6667 % 17.14 C
2206 05-06-2019 23:00:00 20.83333 C 77.2500 % 16.7 C
2207 06-06-2019 00:00:00 21.575 C 69.2500 % 15.7 C
2208 06-06-2019 01:00:00 18.925 C 81.5833 % 15.71 C
2209 06-06-2019 02:00:00 17.10833 C 91.9167 % 15.78 C
2210 06-06-2019 03:00:00 16.70833 C 93.6667 % 15.68 C
2211 06-06-2019 04:00:00 16.48333 C 94.5833 % 15.61 C
2212 06-06-2019 05:00:00 15.51667 C 93.6667 % 14.5 C
2213 06-06-2019 06:00:00 13.94167 C 92.3333 % 12.72 C
2214 06-06-2019 07:00:00 13.19167 C 89.6667 % 11.53 C
2215 06-06-2019 08:00:00 13.325 C 84.5833 % 10.78 C
2216 06-06-2019 09:00:00 13.10833 C 81.1667 % 9.96 C
2217 06-06-2019 10:00:00 13.80833 C 80.0000 % 10.42 C
2218 06-06-2019 11:00:00 14.93333 C 75.5000 % 10.64 C
2219 06-06-2019 12:00:00 15.40833 C 73.2500 % 10.65 C
2220 06-06-2019 13:00:00 16.49167 C 69.3333 % 10.86 C
2221 06-06-2019 14:00:00 17.025 C 68.1667 % 11.12 C
2222 06-06-2019 15:00:00 17.75833 C 66.4167 % 11.42 C
2223 06-06-2019 16:00:00 18 C 65.5000 % 11.44 C
2224 06-06-2019 17:00:00 16.73333 C 69.1667 % 11.06 C
2225 06-06-2019 18:00:00 16.975 C 69.9167 % 11.45 C
Sensor: Nr:Datum:Temp:Feuchte:Taupunkt:
Aussen-T/F 2226 06-06-2019 19:00:00 18.26667 C 63.5833 % 11.25 C
2227 06-06-2019 20:00:00 17.725 C 65.3333 % 11.14 C
2228 06-06-2019 21:00:00 15.43333 C 75.4167 % 11.11 C
2229 06-06-2019 22:00:00 12.75 C 83.8333 % 10.09 C
2230 06-06-2019 23:00:00 11.43333 C 87.5000 % 9.43 C
2231 07-06-2019 00:00:00 10.475 C 90.4167 % 8.97 C
2232 07-06-2019 01:00:00 9.875 C 92.1667 % 8.66 C
2233 07-06-2019 02:00:00 9.425 C 93.0833 % 8.36 C
2234 07-06-2019 03:00:00 9.56667 C 94.5000 % 8.73 C
2235 07-06-2019 04:00:00 10.13333 C 94.6667 % 9.32 C
2236 07-06-2019 05:00:00 9.23333 C 94.3333 % 8.37 C
2237 07-06-2019 06:00:00 9.60833 C 95.7500 % 8.96 C
2238 07-06-2019 07:00:00 10.38333 C 96.0000 % 9.77 C
2239 07-06-2019 08:00:00 11.86667 C 92.5833 % 10.7 C
2240 07-06-2019 09:00:00 13.75833 C 84.1667 % 11.13 C
2241 07-06-2019 10:00:00 16.65 C 75.8333 % 12.37 C
2242 07-06-2019 11:00:00 18.75833 C 65.5000 % 12.16 C
2243 07-06-2019 12:00:00 19.9 C 63.4167 % 12.75 C
2244 07-06-2019 13:00:00 20.89167 C 64.3333 % 13.91 C
2245 07-06-2019 14:00:00 21.09167 C 68.1667 % 15 C
2246 07-06-2019 15:00:00 24.175 C 57.1667 % 15.17 C
2247 07-06-2019 16:00:00 25.96667 C 50.5833 % 14.92 C
2248 07-06-2019 17:00:00 25.36667 C 57.9167 % 16.48 C
2249 07-06-2019 18:00:00 21.74167 C 58.5833 % 13.27 C
2250 07-06-2019 19:00:00 17.18333 C 62.6667 % 10.01 C
Sensor: Nr:Datum:Temp:Feuchte:Taupunkt:
Aussen-T/F 2251 07-06-2019 20:00:00 15.41667 C 71.6667 % 10.33 C
2252 07-06-2019 21:00:00 14.95 C 72.9167 % 10.14 C
2253 07-06-2019 22:00:00 14.8 C 69.8333 % 9.35 C
2254 07-06-2019 23:00:00 15.125 C 66.5000 % 8.94 C
2255 08-06-2019 00:00:00 15.46667 C 66.4167 % 9.24 C
2256 08-06-2019 01:00:00 15.61667 C 65.2500 % 9.12 C
2257 08-06-2019 02:00:00 15.34167 C 67.0833 % 9.27 C
2258 08-06-2019 03:00:00 15.06667 C 67.0000 % 8.99 C
2259 08-06-2019 04:00:00 14.86667 C 64.0000 % 8.13 C
2260 08-06-2019 05:00:00 14.10833 C 63.3333 % 7.26 C
2261 08-06-2019 06:00:00 13.325 C 66.7500 % 7.28 C
2262 08-06-2019 07:00:00 13.69167 C 65.5000 % 7.35 C
2263 08-06-2019 08:00:00 14.29167 C 65.3333 % 7.88 C
2264 08-06-2019 09:00:00 14.575 C 66.0833 % 8.32 C
2265 08-06-2019 10:00:00 14.90833 C 66.5833 % 8.75 C
2266 08-06-2019 11:00:00 15.70833 C 64.1667 % 8.96 C
2267 08-06-2019 12:00:00 16.525 C 61.5000 % 9.11 C
2268 08-06-2019 13:00:00 17.38333 C 57.6667 % 8.96 C
2269 08-06-2019 14:00:00 18.325 C 55.7500 % 9.34 C
2270 08-06-2019 15:00:00 19.15 C 52.5000 % 9.21 C
2271 08-06-2019 16:00:00 19.65833 C 50.8333 % 9.2 C
2272 08-06-2019 17:00:00 19.925 C 49.5000 % 9.05 C
2273 08-06-2019 18:00:00 19.95833 C 49.4167 % 9.06 C
2274 08-06-2019 19:00:00 18.98333 C 54.5000 % 9.61 C
2275 08-06-2019 20:00:00 17.61667 C 62.2500 % 10.32 C
Sensor: Nr:Datum:Temp:Feuchte:Taupunkt:
Aussen-T/F 2276 08-06-2019 21:00:00 16.11667 C 70.0000 % 10.65 C
2277 08-06-2019 22:00:00 14.39167 C 74.5833 % 9.94 C
2278 08-06-2019 23:00:00 12.65833 C 80.5833 % 9.41 C
2279 09-06-2019 00:00:00 11.66667 C 84.6667 % 9.17 C
2280 09-06-2019 01:00:00 11.08333 C 86.9167 % 8.99 C
2281 09-06-2019 02:00:00 10.925 C 87.3333 % 8.91 C
2282 09-06-2019 03:00:00 10.28333 C 89.0833 % 8.57 C
2283 09-06-2019 04:00:00 9.4 C 90.3333 % 7.9 C
2284 09-06-2019 05:00:00 8.675 C 92.3333 % 7.5 C
2285 09-06-2019 06:00:00 8.63333 C 93.4167 % 7.63 C
2286 09-06-2019 07:00:00 9.68333 C 94.4167 % 8.83 C
2287 09-06-2019 08:00:00 11.03333 C 94.2500 % 10.15 C
2288 09-06-2019 09:00:00 12.80833 C 90.8333 % 11.35 C
2289 09-06-2019 10:00:00 16.55 C 73.0000 % 11.7 C
2290 09-06-2019 11:00:00 18.86667 C 57.5833 % 10.32 C
2291 09-06-2019 12:00:00 19.76667 C 53.6667 % 10.11 C
2292 09-06-2019 13:00:00 20.71667 C 51.6667 % 10.42 C
2293 09-06-2019 14:00:00 21.925 C 50.5000 % 11.19 C
2294 09-06-2019 15:00:00 22.45833 C 50.3333 % 11.63 C
2295 09-06-2019 16:00:00 22.79167 C 50.6667 % 12.03 C
2296 09-06-2019 17:00:00 22.7 C 51.5833 % 12.22 C
2297 09-06-2019 18:00:00 23.09167 C 50.4167 % 12.23 C
2298 09-06-2019 19:00:00 21.64167 C 63.5000 % 14.42 C
2299 09-06-2019 20:00:00 19.74167 C 69.0833 % 13.91 C
2300 09-06-2019 21:00:00 18.86667 C 72.1667 % 13.75 C
Sensor: Nr:Datum:Temp:Feuchte:Taupunkt:
Aussen-T/F 2301 09-06-2019 22:00:00 18.36667 C 74.5833 % 13.77 C
2302 09-06-2019 23:00:00 17.95 C 76.1667 % 13.69 C
2303 10-06-2019 00:00:00 17.525 C 77.8333 % 13.62 C
2304 10-06-2019 01:00:00 16.95833 C 77.6667 % 13.03 C
2305 10-06-2019 02:00:00 16.08333 C 79.7500 % 12.59 C
2306 10-06-2019 03:00:00 14.94167 C 84.7500 % 12.4 C
2307 10-06-2019 04:00:00 14.625 C 86.5000 % 12.4 C
2308 10-06-2019 05:00:00 14.775 C 87.5000 % 12.72 C
2309 10-06-2019 06:00:00 14.825 C 88.5000 % 12.94 C
2310 10-06-2019 07:00:00 15.5 C 87.4167 % 13.42 C
2311 10-06-2019 08:00:00 17.725 C 80.2500 % 14.28 C
2312 10-06-2019 09:00:00 18.94167 C 75.8333 % 14.58 C
2313 10-06-2019 10:00:00 19.85 C 73.1667 % 14.91 C
2314 10-06-2019 11:00:00 21.15833 C 68.5000 % 15.13 C
2315 10-06-2019 12:00:00 22.34167 C 63.6667 % 15.12 C
2316 10-06-2019 13:00:00 23.06667 C 61.5833 % 15.29 C
2317 10-06-2019 14:00:00 23.225 C 62.5833 % 15.69 C
2318 10-06-2019 15:00:00 23.225 C 62.9167 % 15.77 C
2319 10-06-2019 16:00:00 24.06667 C 59.8333 % 15.78 C
2320 10-06-2019 17:00:00 23.65 C 60.7500 % 15.62 C
2321 10-06-2019 18:00:00 23.19167 C 61.9167 % 15.49 C
2322 10-06-2019 19:00:00 21.7 C 64.6667 % 14.76 C
2323 10-06-2019 20:00:00 20.61667 C 69.9167 % 14.94 C
2324 10-06-2019 21:00:00 19.38333 C 74.6667 % 14.77 C
2325 10-06-2019 22:00:00 17.975 C 79.5000 % 14.38 C
Sensor: Nr:Datum:Temp:Feuchte:Taupunkt:
Aussen-T/F 2326 10-06-2019 23:00:00 17.09167 C 82.5000 % 14.09 C
2327 11-06-2019 00:00:00 16.55833 C 85.5000 % 14.12 C
2328 11-06-2019 01:00:00 16.38333 C 86.8333 % 14.19 C
2329 11-06-2019 02:00:00 16.15833 C 86.2500 % 13.86 C
2330 11-06-2019 03:00:00 15.29167 C 90.6667 % 13.78 C
2331 11-06-2019 04:00:00 14.6 C 93.0833 % 13.5 C
2332 11-06-2019 05:00:00 14.21667 C 94.0000 % 13.27 C
2333 11-06-2019 06:00:00 14.15833 C 94.8333 % 13.34 C
2334 11-06-2019 07:00:00 14.5 C 95.3333 % 13.76 C
2335 11-06-2019 08:00:00 15.01667 C 95.5833 % 14.32 C
2336 11-06-2019 09:00:00 15.34167 C 93.8333 % 14.35 C
2337 11-06-2019 10:00:00 16.16667 C 90.7500 % 14.65 C
2338 11-06-2019 11:00:00 16.925 C 85.2500 % 14.43 C
2339 11-06-2019 12:00:00 17.81667 C 78.5833 % 14.05 C
2340 11-06-2019 13:00:00 19.09167 C 71.9167 % 13.91 C
2341 11-06-2019 14:00:00 20.24167 C 66.0833 % 13.71 C
2342 11-06-2019 15:00:00 21.31667 C 61.8333 % 13.7 C
2343 11-06-2019 16:00:00 20.94167 C 66.5000 % 14.47 C
2344 11-06-2019 17:00:00 19.28333 C 79.3333 % 15.62 C
2345 11-06-2019 18:00:00 18.75833 C 82.1667 % 15.65 C
2346 11-06-2019 19:00:00 20.35 C 71.0000 % 14.92 C
2347 11-06-2019 20:00:00 19.19167 C 79.8333 % 15.63 C
2348 11-06-2019 21:00:00 17.76667 C 83.1667 % 14.87 C
2349 11-06-2019 22:00:00 16.79167 C 84.7500 % 14.21 C
2350 11-06-2019 23:00:00 15.70833 C 86.5000 % 13.46 C
Sensor: Nr:Datum:Temp:Feuchte:Taupunkt:
Aussen-T/F 2351 12-06-2019 00:00:00 15.16667 C 87.0000 % 13.02 C
2352 12-06-2019 01:00:00 14.39167 C 88.8333 % 12.57 C
2353 12-06-2019 02:00:00 14.59167 C 90.0000 % 12.97 C
2354 12-06-2019 03:00:00 14.525 C 90.7500 % 13.03 C
2355 12-06-2019 04:00:00 14.39167 C 91.0000 % 12.94 C
2356 12-06-2019 05:00:00 14.125 C 91.7500 % 12.8 C
2357 12-06-2019 06:00:00 13.95833 C 92.4167 % 12.75 C
2358 12-06-2019 07:00:00 14.875 C 91.3333 % 13.48 C
2359 12-06-2019 08:00:00 15.81667 C 88.6667 % 13.95 C
2360 12-06-2019 09:00:00 16.53333 C 85.8333 % 14.15 C
2361 12-06-2019 10:00:00 15.15 C 91.9167 % 13.85 C
2362 12-06-2019 11:00:00 13.975 C 93.4167 % 12.93 C
2363 12-06-2019 12:00:00 14.40833 C 95.0000 % 13.62 C
2364 12-06-2019 13:00:00 15.325 C 93.0000 % 14.2 C
2365 12-06-2019 14:00:00 17.175 C 83.9167 % 14.43 C
2366 12-06-2019 15:00:00 18.2 C 77.9167 % 14.29 C
2367 12-06-2019 16:00:00 20.125 C 66.5833 % 13.71 C
2368 12-06-2019 17:00:00 21.81667 C 59.0000 % 13.45 C
2369 12-06-2019 18:00:00 22.64167 C 53.9167 % 12.84 C
2370 12-06-2019 19:00:00 21.925 C 53.0833 % 11.94 C
2371 12-06-2019 20:00:00 21.23333 C 62.8333 % 13.87 C
2372 12-06-2019 21:00:00 17.83333 C 74.5000 % 13.24 C
2373 12-06-2019 22:00:00 14.38333 C 84.7500 % 11.85 C
2374 12-06-2019 23:00:00 13.15833 C 88.2500 % 11.26 C
2375 13-06-2019 00:00:00 12.55833 C 89.5833 % 10.89 C
Sensor: Nr:Datum:Temp:Feuchte:Taupunkt:
Aussen-T/F 2376 13-06-2019 01:00:00 11.68333 C 90.7500 % 10.22 C
2377 13-06-2019 02:00:00 10.9 C 92.4167 % 9.72 C
2378 13-06-2019 03:00:00 10.29167 C 93.5833 % 9.3 C
2379 13-06-2019 04:00:00 9.775 C 94.0000 % 8.86 C
2380 13-06-2019 05:00:00 9.45833 C 94.9167 % 8.69 C
2381 13-06-2019 06:00:00 9.50833 C 95.3333 % 8.8 C
2382 13-06-2019 07:00:00 10.31667 C 96.0000 % 9.71 C
2383 13-06-2019 08:00:00 11.75 C 95.6667 % 11.08 C
2384 13-06-2019 09:00:00 15.15833 C 79.0833 % 11.56 C
2385 13-06-2019 10:00:00 17.91667 C 65.0833 % 11.27 C
2386 13-06-2019 11:00:00 19.15 C 60.8333 % 11.41 C
2387 13-06-2019 12:00:00 19.41667 C 57.0000 % 10.68 C
2388 13-06-2019 13:00:00 20.875 C 53.3333 % 11.04 C
2389 13-06-2019 14:00:00 21.26667 C 51.1667 % 10.78 C
2390 13-06-2019 15:00:00 22.13333 C 48.6667 % 10.82 C
2391 13-06-2019 16:00:00 23.85833 C 42.2500 % 10.27 C
2392 13-06-2019 17:00:00 24.41667 C 41.5833 % 10.53 C
2393 13-06-2019 18:00:00 24.325 C 43.0833 % 10.98 C
2394 13-06-2019 19:00:00 20.40833 C 65.3333 % 13.69 C
2395 13-06-2019 20:00:00 15.975 C 89.5000 % 14.25 C
2396 13-06-2019 21:00:00 15.11667 C 89.0000 % 13.32 C
2397 13-06-2019 22:00:00 13.21667 C 91.6667 % 11.89 C
2398 13-06-2019 23:00:00 12.78333 C 93.8333 % 11.82 C
2399 14-06-2019 00:00:00 12.06667 C 94.1667 % 11.16 C
2400 14-06-2019 01:00:00 11.73333 C 95.1667 % 10.99 C
Sensor: Nr:Datum:Temp:Feuchte:Taupunkt:
Aussen-T/F 2401 14-06-2019 02:00:00 12.16667 C 96.0000 % 11.55 C
2402 14-06-2019 03:00:00 12.00833 C 96.0000 % 11.39 C
2403 14-06-2019 04:00:00 11.59167 C 96.0000 % 10.98 C
2404 14-06-2019 05:00:00 11.41667 C 96.4167 % 10.87 C
2405 14-06-2019 06:00:00 11.33333 C 96.7500 % 10.84 C
2406 14-06-2019 07:00:00 11.43333 C 97.0000 % 10.97 C
2407 14-06-2019 08:00:00 12.15 C 97.0000 % 11.69 C
2408 14-06-2019 09:00:00 14.29167 C 97.8333 % 13.95 C
2409 14-06-2019 10:00:00 17.16667 C 98.0000 % 16.85 C
2410 14-06-2019 11:00:00 18.61667 C 96.0000 % 17.97 C
2411 14-06-2019 12:00:00 21.65833 C 71.3333 % 16.25 C
2412 14-06-2019 13:00:00 24.26667 C 57.5833 % 15.37 C
2413 14-06-2019 14:00:00 26 C 50.2500 % 14.85 C
2414 14-06-2019 15:00:00 26.35 C 50.6667 % 15.3 C
2415 14-06-2019 16:00:00 25.95 C 57.5000 % 16.91 C
2416 14-06-2019 17:00:00 25.23333 C 65.7500 % 18.37 C
2417 14-06-2019 18:00:00 24.49167 C 68.7500 % 18.37 C
2418 14-06-2019 19:00:00 22.55 C 74.2500 % 17.74 C
2419 14-06-2019 20:00:00 20.29167 C 78.3333 % 16.4 C
2420 14-06-2019 21:00:00 19.08333 C 83.5000 % 16.22 C
2421 14-06-2019 22:00:00 18.79167 C 83.7500 % 15.98 C
2422 14-06-2019 23:00:00 18.6 C 86.5000 % 16.3 C
2423 15-06-2019 00:00:00 17.59167 C 91.5833 % 16.21 C
2424 15-06-2019 01:00:00 16.49167 C 93.1667 % 15.38 C
2425 15-06-2019 02:00:00 15.68333 C 94.1667 % 14.75 C
Sensor: Nr:Datum:Temp:Feuchte:Taupunkt:
Aussen-T/F 2426 15-06-2019 03:00:00 15.16667 C 95.0833 % 14.38 C
2427 15-06-2019 04:00:00 15.14167 C 95.6667 % 14.45 C
2428 15-06-2019 05:00:00 15.01667 C 96.0833 % 14.4 C
2429 15-06-2019 06:00:00 15.54167 C 96.4167 % 14.97 C
2430 15-06-2019 07:00:00 16.175 C 97.0000 % 15.7 C
2431 15-06-2019 08:00:00 16.94167 C 96.4167 % 16.37 C
2432 15-06-2019 09:00:00 18.45833 C 89.9167 % 16.77 C
2433 15-06-2019 10:00:00 19.93333 C 81.8333 % 16.74 C
2434 15-06-2019 11:00:00 20.8 C 72.4167 % 15.66 C
2435 15-06-2019 12:00:00 21.60833 C 69.5833 % 15.81 C
2436 15-06-2019 13:00:00 21.28333 C 73.9167 % 16.44 C
2437 15-06-2019 14:00:00 21.65833 C 73.5000 % 16.72 C
2438 15-06-2019 15:00:00 22.11667 C 69.6667 % 16.31 C
2439 15-06-2019 16:00:00 23.775 C 63.6667 % 16.48 C
2440 15-06-2019 17:00:00 25.35833 C 54.7500 % 15.59 C
2441 15-06-2019 18:00:00 26.24167 C 48.8333 % 14.63 C
2442 15-06-2019 19:00:00 25.35833 C 54.0833 % 15.4 C
2443 15-06-2019 20:00:00 23.43333 C 65.5000 % 16.6 C
2444 15-06-2019 21:00:00 21.01667 C 71.0833 % 15.58 C
2445 15-06-2019 22:00:00 18.48333 C 78.6667 % 14.71 C
2446 15-06-2019 23:00:00 17.625 C 81.7500 % 14.47 C
2447 16-06-2019 00:00:00 17.3 C 83.2500 % 14.43 C
2448 16-06-2019 01:00:00 17.4 C 83.0833 % 14.5 C
2449 16-06-2019 02:00:00 17.19167 C 83.9167 % 14.45 C
2450 16-06-2019 03:00:00 16.9 C 84.5000 % 14.27 C
Sensor: Nr:Datum:Temp:Feuchte:Taupunkt:
Aussen-T/F 2451 16-06-2019 04:00:00 17.08333 C 82.4167 % 14.07 C
2452 16-06-2019 05:00:00 16.3 C 85.1667 % 13.81 C
2453 16-06-2019 06:00:00 15.46667 C 89.4167 % 13.73 C
2454 16-06-2019 07:00:00 15.55 C 91.3333 % 14.14 C
2455 16-06-2019 08:00:00 16.04167 C 89.7500 % 14.36 C
2456 16-06-2019 09:00:00 17.04167 C 81.2500 % 13.81 C
2457 16-06-2019 10:00:00 19.3 C 69.7500 % 13.64 C
2458 16-06-2019 11:00:00 20.84167 C 60.6667 % 12.96 C
2459 16-06-2019 12:00:00 21.34167 C 59.1667 % 13.05 C
2460 16-06-2019 13:00:00 22.35 C 54.7500 % 12.8 C
2461 16-06-2019 14:00:00 22.56667 C 55.9167 % 13.33 C
2462 16-06-2019 15:00:00 23.03333 C 54.9167 % 13.48 C
2463 16-06-2019 16:00:00 23.225 C 55.0833 % 13.71 C
2464 16-06-2019 17:00:00 22.275 C 58.5833 % 13.77 C
2465 16-06-2019 18:00:00 24.04167 C 51.7500 % 13.51 C
2466 16-06-2019 19:00:00 23.55 C 54.6667 % 13.89 C
2467 16-06-2019 20:00:00 22.61667 C 57.8333 % 13.89 C
2468 16-06-2019 21:00:00 20.29167 C 67.7500 % 14.14 C
2469 16-06-2019 22:00:00 17.21667 C 76.5833 % 13.07 C
2470 16-06-2019 23:00:00 15.35 C 82.7500 % 12.43 C
2471 17-06-2019 00:00:00 14.14167 C 85.6667 % 11.78 C
2472 17-06-2019 01:00:00 13.31667 C 88.2500 % 11.42 C
2473 17-06-2019 02:00:00 12.625 C 90.4167 % 11.1 C
2474 17-06-2019 03:00:00 11.95833 C 91.8333 % 10.67 C
2475 17-06-2019 04:00:00 11.43333 C 93.0000 % 10.34 C
Sensor: Nr:Datum:Temp:Feuchte:Taupunkt:
Aussen-T/F 2476 17-06-2019 05:00:00 11.075 C 93.9167 % 10.13 C
2477 17-06-2019 06:00:00 11.08333 C 95.0000 % 10.31 C
2478 17-06-2019 07:00:00 11.575 C 95.2500 % 10.84 C
2479 17-06-2019 08:00:00 12.66667 C 96.0000 % 12.05 C
2480 17-06-2019 09:00:00 14.46667 C 94.8333 % 13.65 C
2481 17-06-2019 10:00:00 18.59167 C 82.0833 % 15.48 C
2482 17-06-2019 11:00:00 22.31667 C 63.0000 % 14.93 C
2483 17-06-2019 12:00:00 23.475 C 58.1667 % 14.78 C
2484 17-06-2019 13:00:00 24.45833 C 54.7500 % 14.76 C
2485 17-06-2019 14:00:00 25.15833 C 50.7500 % 14.23 C
2486 17-06-2019 15:00:00 25.26667 C 50.6667 % 14.31 C
2487 17-06-2019 16:00:00 26.71667 C 49.6667 % 15.33 C
2488 17-06-2019 17:00:00 28.43333 C 42.1667 % 14.34 C
2489 17-06-2019 18:00:00 27.90833 C 46.3333 % 15.33 C
2490 17-06-2019 19:00:00 27.64167 C 47.5833 % 15.5 C
2491 17-06-2019 20:00:00 23.58333 C 61.1667 % 15.67 C
2492 17-06-2019 21:00:00 20.78333 C 68.0833 % 14.68 C
2493 17-06-2019 22:00:00 18.73333 C 75.2500 % 14.26 C
2494 17-06-2019 23:00:00 17.06667 C 80.8333 % 13.75 C
2495 18-06-2019 00:00:00 15.86667 C 84.5000 % 13.26 C
2496 18-06-2019 01:00:00 15.09167 C 87.2500 % 12.99 C
2497 18-06-2019 02:00:00 14.43333 C 89.1667 % 12.67 C
2498 18-06-2019 03:00:00 13.8 C 91.3333 % 12.41 C
2499 18-06-2019 04:00:00 13.8 C 92.2500 % 12.56 C
2500 18-06-2019 05:00:00 13.625 C 92.4167 % 12.42 C
Sensor: Nr:Datum:Temp:Feuchte:Taupunkt:
Aussen-T/F 2501 18-06-2019 06:00:00 13.65 C 93.7500 % 12.66 C
2502 18-06-2019 07:00:00 14.75 C 92.1667 % 13.49 C
2503 18-06-2019 08:00:00 16.01667 C 90.0000 % 14.38 C
2504 18-06-2019 09:00:00 17.65 C 88.2500 % 15.68 C
2505 18-06-2019 10:00:00 20.80833 C 82.3333 % 17.69 C
2506 18-06-2019 11:00:00 24.26667 C 67.8333 % 17.94 C
2507 18-06-2019 12:00:00 26.78333 C 53.9167 % 16.67 C
2508 18-06-2019 13:00:00 28.125 C 47.0000 % 15.75 C
2509 18-06-2019 14:00:00 28.825 C 45.3333 % 15.82 C
2510 18-06-2019 15:00:00 29.825 C 43.5000 % 16.08 C
2511 18-06-2019 16:00:00 29.575 C 46.0833 % 16.76 C
2512 18-06-2019 17:00:00 29.48333 C 56.4167 % 19.9 C
2513 18-06-2019 18:00:00 29.725 C 55.1667 % 19.76 C
2514 18-06-2019 19:00:00 27.95 C 60.5833 % 19.62 C
2515 18-06-2019 20:00:00 26.03333 C 63.7500 % 18.63 C
2516 18-06-2019 21:00:00 23.73333 C 68.0833 % 17.49 C
2517 18-06-2019 22:00:00 21.45 C 74.5833 % 16.75 C
2518 18-06-2019 23:00:00 19.83333 C 79.5833 % 16.2 C
2519 19-06-2019 00:00:00 18.48333 C 83.5833 % 15.65 C
2520 19-06-2019 01:00:00 17.61667 C 86.5833 % 15.35 C
2521 19-06-2019 02:00:00 17.39167 C 88.3333 % 15.44 C
2522 19-06-2019 03:00:00 16.53333 C 89.8333 % 14.86 C
2523 19-06-2019 04:00:00 15.775 C 91.0000 % 14.31 C
2524 19-06-2019 05:00:00 15.19167 C 92.8333 % 14.04 C
2525 19-06-2019 06:00:00 14.99167 C 93.6667 % 13.98 C
Sensor: Nr:Datum:Temp:Feuchte:Taupunkt:
Aussen-T/F 2526 19-06-2019 07:00:00 15.425 C 94.8333 % 14.6 C
2527 19-06-2019 08:00:00 16.54167 C 95.0000 % 15.74 C
2528 19-06-2019 09:00:00 18.46667 C 93.8333 % 17.45 C
2529 19-06-2019 10:00:00 23.44167 C 73.4167 % 18.41 C
2530 19-06-2019 11:00:00 26.775 C 54.0833 % 16.71 C
2531 19-06-2019 12:00:00 26.475 C 59.5833 % 17.97 C
2532 19-06-2019 13:00:00 26 C 63.0000 % 18.41 C
2533 19-06-2019 14:00:00 27.00833 C 53.5000 % 16.76 C
2534 19-06-2019 15:00:00 27.25 C 56.8333 % 17.94 C
2535 19-06-2019 16:00:00 29.925 C 48.6667 % 17.94 C
2536 19-06-2019 17:00:00 31.25833 C 41.2500 % 16.53 C
2537 19-06-2019 18:00:00 28.4 C 56.5833 % 18.94 C
2538 19-06-2019 19:00:00 28.94167 C 53.0833 % 18.42 C
2539 19-06-2019 20:00:00 25.31667 C 65.3333 % 18.34 C
2540 19-06-2019 21:00:00 23.275 C 70.8333 % 17.68 C
2541 19-06-2019 22:00:00 21.68333 C 74.0000 % 16.85 C
2542 19-06-2019 23:00:00 19.925 C 79.8333 % 16.34 C
2543 20-06-2019 00:00:00 18.75 C 83.3333 % 15.87 C
2544 20-06-2019 01:00:00 17.98333 C 86.2500 % 15.65 C
2545 20-06-2019 02:00:00 17.45833 C 88.7500 % 15.58 C
2546 20-06-2019 03:00:00 17.7 C 89.5000 % 15.95 C
2547 20-06-2019 04:00:00 17.31667 C 89.5833 % 15.59 C
2548 20-06-2019 05:00:00 16.68333 C 91.3333 % 15.26 C
2549 20-06-2019 06:00:00 16.85833 C 92.3333 % 15.61 C
2550 20-06-2019 07:00:00 17.73333 C 89.2500 % 15.94 C
Sensor: Nr:Datum:Temp:Feuchte:Taupunkt:
Aussen-T/F 2551 20-06-2019 08:00:00 19.45 C 81.4167 % 16.18 C
2552 20-06-2019 09:00:00 20.2 C 75.9167 % 15.82 C
2553 20-06-2019 10:00:00 21.30833 C 70.7500 % 15.78 C
2554 20-06-2019 11:00:00 21.89167 C 69.9167 % 16.15 C
2555 20-06-2019 12:00:00 22.65 C 66.5000 % 16.09 C
2556 20-06-2019 13:00:00 23.24167 C 64.7500 % 16.24 C
2557 20-06-2019 14:00:00 24.61667 C 58.7500 % 16.01 C
2558 20-06-2019 15:00:00 21.45833 C 75.0833 % 16.86 C
2559 20-06-2019 16:00:00 22.75 C 71.9167 % 17.42 C
2560 20-06-2019 17:00:00 21.25833 C 76.5000 % 16.96 C
2561 20-06-2019 18:00:00 20 C 81.0833 % 16.66 C
2562 20-06-2019 19:00:00 18.75833 C 81.8333 % 15.59 C
2563 20-06-2019 20:00:00 18.66667 C 82.3333 % 15.6 C
2564 20-06-2019 21:00:00 18.21667 C 84.0833 % 15.48 C
2565 20-06-2019 22:00:00 16.9 C 87.0000 % 14.72 C
2566 20-06-2019 23:00:00 15.725 C 90.6667 % 14.2 C
2567 21-06-2019 00:00:00 15.5 C 93.5000 % 14.46 C
2568 21-06-2019 01:00:00 14.89167 C 93.0000 % 13.77 C
2569 21-06-2019 02:00:00 14.78333 C 94.3333 % 13.88 C
2570 21-06-2019 03:00:00 15.06667 C 94.2500 % 14.15 C
2571 21-06-2019 04:00:00 14.91667 C 94.1667 % 13.99 C
2572 21-06-2019 05:00:00 14.325 C 93.9167 % 13.36 C
2573 21-06-2019 06:00:00 14.175 C 93.4167 % 13.13 C
2574 21-06-2019 07:00:00 14.63333 C 92.6667 % 13.46 C
2575 21-06-2019 08:00:00 15.88333 C 79.4167 % 12.33 C
Sensor: Nr:Datum:Temp:Feuchte:Taupunkt:
Aussen-T/F 2576 21-06-2019 09:00:00 16.7 C 73.2500 % 11.89 C
2577 21-06-2019 10:00:00 18.28333 C 66.5000 % 11.94 C
2578 21-06-2019 11:00:00 19.45 C 61.0000 % 11.74 C
2579 21-06-2019 12:00:00 20.10833 C 58.2500 % 11.66 C
2580 21-06-2019 13:00:00 21.3 C 52.6667 % 11.24 C
2581 21-06-2019 14:00:00 22.03333 C 47.4167 % 10.34 C
2582 21-06-2019 15:00:00 22.6 C 46.2500 % 10.48 C
2583 21-06-2019 16:00:00 23.64167 C 43.2500 % 10.42 C
2584 21-06-2019 17:00:00 25.125 C 39.5000 % 10.39 C
2585 21-06-2019 18:00:00 24.95833 C 39.5000 % 10.24 C
2586 21-06-2019 19:00:00 23.63333 C 42.8333 % 10.27 C
2587 21-06-2019 20:00:00 22.15 C 47.1667 % 10.37 C
2588 21-06-2019 21:00:00 19.375 C 57.1667 % 10.69 C
2589 21-06-2019 22:00:00 16.6 C 66.4167 % 10.32 C
2590 21-06-2019 23:00:00 15.23333 C 72.5000 % 10.33 C
2591 22-06-2019 00:00:00 13.71667 C 79.0000 % 10.14 C
2592 22-06-2019 01:00:00 13.01667 C 82.2500 % 10.06 C
2593 22-06-2019 02:00:00 12.10833 C 85.6667 % 9.78 C
2594 22-06-2019 03:00:00 11.5 C 88.5000 % 9.67 C
2595 22-06-2019 04:00:00 11.05833 C 90.4167 % 9.55 C
2596 22-06-2019 05:00:00 10.675 C 91.7500 % 9.39 C
2597 22-06-2019 06:00:00 10.70833 C 93.0000 % 9.62 C
2598 22-06-2019 07:00:00 11.80833 C 94.3333 % 10.93 C
2599 22-06-2019 08:00:00 13.84167 C 90.5833 % 12.33 C
2600 22-06-2019 09:00:00 16.275 C 79.8333 % 12.79 C
Sensor: Nr:Datum:Temp:Feuchte:Taupunkt:
Aussen-T/F 2601 22-06-2019 10:00:00 19.475 C 67.1667 % 13.23 C
2602 22-06-2019 11:00:00 21.21667 C 62.1667 % 13.69 C
2603 22-06-2019 12:00:00 22.66667 C 59.5833 % 14.4 C
2604 22-06-2019 13:00:00 24.175 C 55.6667 % 14.75 C
2605 22-06-2019 14:00:00 25.025 C 53.9167 % 15.05 C
2606 22-06-2019 15:00:00 25.59167 C 49.9167 % 14.37 C
2607 22-06-2019 16:00:00 26.50833 C 47.1667 % 14.34 C
2608 22-06-2019 17:00:00 26.26667 C 48.6667 % 14.6 C
2609 22-06-2019 18:00:00 27.45 C 43.5000 % 13.94 C
2610 22-06-2019 19:00:00 27.53333 C 43.7500 % 14.1 C
2611 22-06-2019 20:00:00 26.95 C 48.1667 % 15.06 C
2612 22-06-2019 21:00:00 23.525 C 62.3333 % 15.91 C
2613 22-06-2019 22:00:00 20.3 C 73.0833 % 15.32 C
2614 22-06-2019 23:00:00 18.63333 C 79.3333 % 14.99 C
2615 23-06-2019 00:00:00 17.4 C 83.5000 % 14.58 C
2616 23-06-2019 01:00:00 16.33333 C 86.9167 % 14.15 C
2617 23-06-2019 02:00:00 15.64167 C 89.2500 % 13.88 C
2618 23-06-2019 03:00:00 14.98333 C 91.0000 % 13.53 C
2619 23-06-2019 04:00:00 14.53333 C 92.2500 % 13.29 C
2620 23-06-2019 05:00:00 14.075 C 93.3333 % 13.02 C
2621 23-06-2019 06:00:00 14.20833 C 94.1667 % 13.28 C
2622 23-06-2019 07:00:00 14.74167 C 94.9167 % 13.94 C
2623 23-06-2019 08:00:00 16.09167 C 94.5833 % 15.22 C
2624 23-06-2019 09:00:00 18.65833 C 86.5000 % 16.36 C
2625 23-06-2019 10:00:00 22.525 C 69.0000 % 16.55 C
Sensor: Nr:Datum:Temp:Feuchte:Taupunkt:
Aussen-T/F 2626 23-06-2019 11:00:00 24.14167 C 64.3333 % 16.99 C
2627 23-06-2019 12:00:00 25.21667 C 61.5000 % 17.29 C
2628 23-06-2019 13:00:00 26.58333 C 56.0000 % 17.09 C
2629 23-06-2019 14:00:00 27.84167 C 51.0833 % 16.8 C
2630 23-06-2019 15:00:00 28.575 C 48.2500 % 16.57 C
2631 23-06-2019 16:00:00 30.24167 C 43.1667 % 16.33 C
2632 23-06-2019 17:00:00 30.6 C 43.1667 % 16.65 C
2633 23-06-2019 18:00:00 30.3 C 44.1667 % 16.74 C
2634 23-06-2019 19:00:00 29.025 C 50.3333 % 17.65 C
2635 23-06-2019 20:00:00 25.85833 C 62.0000 % 18.02 C
2636 23-06-2019 21:00:00 23.39167 C 67.6667 % 17.07 C
2637 23-06-2019 22:00:00 21.70833 C 72.3333 % 16.51 C
2638 23-06-2019 23:00:00 20.25 C 77.8333 % 16.26 C
2639 24-06-2019 00:00:00 19.11667 C 82.1667 % 16 C
2640 24-06-2019 01:00:00 18.43333 C 84.3333 % 15.74 C
2641 24-06-2019 02:00:00 17.54167 C 87.0833 % 15.37 C
2642 24-06-2019 03:00:00 16.95833 C 89.0833 % 15.15 C
2643 24-06-2019 04:00:00 16.55 C 90.6667 % 15.02 C
2644 24-06-2019 05:00:00 16.40833 C 92.0833 % 15.12 C
2645 24-06-2019 06:00:00 16.70833 C 92.9167 % 15.56 C
2646 24-06-2019 07:00:00 17.45 C 92.9167 % 16.29 C
2647 24-06-2019 08:00:00 18.55 C 91.7500 % 17.18 C
2648 24-06-2019 09:00:00 21.25833 C 84.6667 % 18.57 C
2649 24-06-2019 10:00:00 25.475 C 67.0833 % 18.92 C
2650 24-06-2019 11:00:00 26.95833 C 59.6667 % 18.44 C
Sensor: Nr:Datum:Temp:Feuchte:Taupunkt:
Aussen-T/F 2651 24-06-2019 12:00:00 27.88333 C 55.5000 % 18.15 C
2652 24-06-2019 13:00:00 29.05833 C 52.0000 % 18.2 C
2653 24-06-2019 14:00:00 30.1 C 49.8333 % 18.48 C
2654 24-06-2019 15:00:00 31.38333 C 46.8333 % 18.65 C
2655 24-06-2019 16:00:00 32.73333 C 44.0000 % 18.87 C
2656 24-06-2019 17:00:00 32.96667 C 44.5833 % 19.3 C
2657 24-06-2019 18:00:00 33.1 C 44.0000 % 19.2 C
2658 24-06-2019 19:00:00 32.375 C 45.5000 % 19.09 C
2659 24-06-2019 20:00:00 30.64167 C 50.5000 % 19.18 C
2660 24-06-2019 21:00:00 26.81667 C 63.7500 % 19.37 C
2661 24-06-2019 22:00:00 23.99167 C 71.0000 % 18.41 C
2662 24-06-2019 23:00:00 22.68333 C 74.0000 % 17.81 C
2663 25-06-2019 00:00:00 21.4 C 77.5000 % 17.3 C
2664 25-06-2019 01:00:00 20.425 C 80.8333 % 17.02 C
2665 25-06-2019 02:00:00 19.35833 C 83.5833 % 16.51 C
2666 25-06-2019 03:00:00 18.46667 C 85.5833 % 16.01 C
2667 25-06-2019 04:00:00 17.825 C 88.0833 % 15.83 C
2668 25-06-2019 05:00:00 17.51667 C 89.4167 % 15.76 C
2669 25-06-2019 06:00:00 17.76667 C 90.8333 % 16.25 C
2670 25-06-2019 07:00:00 18.44167 C 90.6667 % 16.89 C
2671 25-06-2019 08:00:00 20.1 C 88.5000 % 18.14 C
2672 25-06-2019 09:00:00 22.56667 C 81.7500 % 19.29 C
2673 25-06-2019 10:00:00 26.46667 C 65.7500 % 19.54 C
2674 25-06-2019 11:00:00 28.05833 C 59.2500 % 19.36 C
2675 25-06-2019 12:00:00 29.51667 C 55.8333 % 19.76 C
Sensor: Nr:Datum:Temp:Feuchte:Taupunkt:
Aussen-T/F 2676 25-06-2019 13:00:00 31.1 C 52.0000 % 20.08 C
2677 25-06-2019 14:00:00 32.75833 C 46.9167 % 19.93 C
2678 25-06-2019 15:00:00 34.91667 C 41.7500 % 19.99 C
2679 25-06-2019 16:00:00 36.45833 C 38.0833 % 19.87 C
2680 25-06-2019 17:00:00 37.69167 C 32.9167 % 18.61 C
2681 25-06-2019 18:00:00 36.71667 C 36.7500 % 19.53 C
2682 25-06-2019 19:00:00 34.225 C 48.5000 % 21.8 C
2683 25-06-2019 20:00:00 31.78333 C 52.1667 % 20.76 C
2684 25-06-2019 21:00:00 28.025 C 58.9167 % 19.24 C
2685 25-06-2019 22:00:00 25.60833 C 64.0000 % 18.29 C
2686 25-06-2019 23:00:00 24.15833 C 65.9167 % 17.39 C
2687 26-06-2019 00:00:00 23.41667 C 69.5000 % 17.52 C
2688 26-06-2019 01:00:00 22.38333 C 74.1667 % 17.56 C
2689 26-06-2019 02:00:00 21.20833 C 79.0000 % 17.42 C
2690 26-06-2019 03:00:00 20.575 C 81.9167 % 17.38 C
2691 26-06-2019 04:00:00 19.825 C 84.4167 % 17.12 C
2692 26-06-2019 05:00:00 19.475 C 86.5000 % 17.16 C
2693 26-06-2019 06:00:00 19.575 C 87.8333 % 17.5 C
2694 26-06-2019 07:00:00 20.29167 C 88.1667 % 18.27 C
2695 26-06-2019 08:00:00 21.89167 C 87.8333 % 19.78 C
2696 26-06-2019 09:00:00 24.64167 C 83.0000 % 21.56 C
2697 26-06-2019 10:00:00 27.25 C 74.0833 % 22.22 C
2698 26-06-2019 11:00:00 28.95 C 68.1667 % 22.48 C
2699 26-06-2019 12:00:00 30.24167 C 62.8333 % 22.36 C
2700 26-06-2019 13:00:00 31.63333 C 53.0833 % 20.9 C
Sensor: Nr:Datum:Temp:Feuchte:Taupunkt:
Aussen-T/F 2701 26-06-2019 14:00:00 32.64167 C 50.5000 % 21.02 C
2702 26-06-2019 15:00:00 33.9 C 49.5833 % 21.87 C
2703 26-06-2019 16:00:00 34.76667 C 45.8333 % 21.37 C
2704 26-06-2019 17:00:00 34.76667 C 44.0000 % 20.7 C
2705 26-06-2019 18:00:00 34.36667 C 41.8333 % 19.53 C
2706 26-06-2019 19:00:00 33.36667 C 43.5833 % 19.29 C
2707 26-06-2019 20:00:00 30.94167 C 50.2500 % 19.38 C
2708 26-06-2019 21:00:00 28.8 C 56.5000 % 19.29 C
2709 26-06-2019 22:00:00 26.4 C 65.2500 % 19.35 C
2710 26-06-2019 23:00:00 26.03333 C 69.3333 % 19.98 C
2711 27-06-2019 00:00:00 25.24167 C 73.0000 % 20.05 C
2712 27-06-2019 01:00:00 24.11667 C 76.5000 % 19.72 C
2713 27-06-2019 02:00:00 23.25833 C 78.5000 % 19.31 C
2714 27-06-2019 03:00:00 22.41667 C 78.0000 % 18.39 C
2715 27-06-2019 04:00:00 21.66667 C 77.0000 % 17.46 C
2716 27-06-2019 05:00:00 20.54167 C 79.4167 % 16.86 C
2717 27-06-2019 06:00:00 20.01667 C 80.7500 % 16.61 C
2718 27-06-2019 07:00:00 20.03333 C 79.7500 % 16.43 C
2719 27-06-2019 08:00:00 20.6 C 77.5000 % 16.53 C
2720 27-06-2019 09:00:00 21.45833 C 74.0000 % 16.63 C
2721 27-06-2019 10:00:00 22.83333 C 68.0000 % 16.62 C
2722 27-06-2019 11:00:00 24.03333 C 62.0833 % 16.32 C
2723 27-06-2019 12:00:00 24.84167 C 58.9167 % 16.26 C
2724 27-06-2019 13:00:00 25.875 C 53.2500 % 15.64 C
2725 27-06-2019 14:00:00 26.98333 C 48.3333 % 15.15 C
Sensor: Nr:Datum:Temp:Feuchte:Taupunkt:
Aussen-T/F 2726 27-06-2019 15:00:00 28.6 C 41.0833 % 14.09 C
2727 27-06-2019 16:00:00 30.18333 C 32.4167 % 11.86 C
2728 27-06-2019 17:00:00 30.54167 C 28.0000 % 9.97 C
2729 27-06-2019 18:00:00 30.225 C 26.3333 % 8.79 C
2730 27-06-2019 19:00:00 29.59167 C 25.7500 % 7.92 C
2731 27-06-2019 20:00:00 27.43333 C 32.5000 % 9.51 C
2732 27-06-2019 21:00:00 24.48333 C 41.6667 % 10.62 C
2733 27-06-2019 22:00:00 21.28333 C 55.0000 % 11.88 C
2734 27-06-2019 23:00:00 19.9 C 60.8333 % 12.12 C
2735 28-06-2019 00:00:00 18.53333 C 66.0833 % 12.08 C
2736 28-06-2019 01:00:00 17.18333 C 71.6667 % 12.03 C
2737 28-06-2019 02:00:00 16.26667 C 76.5000 % 12.13 C
2738 28-06-2019 03:00:00 15.48333 C 80.2500 % 12.1 C
2739 28-06-2019 04:00:00 14.35 C 84.2500 % 11.73 C
2740 28-06-2019 05:00:00 13.51667 C 87.4167 % 11.47 C
2741 28-06-2019 06:00:00 13.35833 C 89.7500 % 11.71 C
2742 28-06-2019 07:00:00 13.86667 C 90.8333 % 12.4 C
2743 28-06-2019 08:00:00 15.39167 C 85.5000 % 12.97 C
2744 28-06-2019 09:00:00 17.7 C 74.9167 % 13.2 C
2745 28-06-2019 10:00:00 19.81667 C 67.4167 % 13.61 C
2746 28-06-2019 11:00:00 21.475 C 60.3333 % 13.47 C
2747 28-06-2019 12:00:00 22.84167 C 55.6667 % 13.51 C
2748 28-06-2019 13:00:00 24.66667 C 47.2500 % 12.69 C
2749 28-06-2019 14:00:00 26.31667 C 42.3333 % 12.5 C
2750 28-06-2019 15:00:00 28.225 C 38.5833 % 12.79 C
Sensor: Nr:Datum:Temp:Feuchte:Taupunkt:
Aussen-T/F 2751 28-06-2019 16:00:00 30.25 C 33.5833 % 12.46 C
2752 28-06-2019 17:00:00 31.13333 C 29.7500 % 11.38 C
2753 28-06-2019 18:00:00 31.66667 C 28.0000 % 10.93 C
2754 28-06-2019 19:00:00 31.2 C 30.0833 % 11.61 C
2755 28-06-2019 20:00:00 29.49167 C 36.8333 % 13.2 C
2756 28-06-2019 21:00:00 25.61667 C 48.1667 % 13.85 C
2757 28-06-2019 22:00:00 21.58333 C 54.6667 % 12.07 C
2758 28-06-2019 23:00:00 19.275 C 63.6667 % 12.22 C
2759 29-06-2019 00:00:00 18.40833 C 65.9167 % 11.93 C
2760 29-06-2019 01:00:00 17.83333 C 68.0833 % 11.87 C
2761 29-06-2019 02:00:00 17.09167 C 70.9167 % 11.78 C
2762 29-06-2019 03:00:00 16.39167 C 74.3333 % 11.82 C
2763 29-06-2019 04:00:00 15.175 C 78.5833 % 11.48 C
2764 29-06-2019 05:00:00 14.09167 C 82.7500 % 11.21 C
2765 29-06-2019 06:00:00 13.70833 C 85.5000 % 11.32 C
2766 29-06-2019 07:00:00 14.075 C 87.6667 % 12.06 C
2767 29-06-2019 08:00:00 15.26667 C 86.9167 % 13.1 C
2768 29-06-2019 09:00:00 19.2 C 71.5000 % 13.92 C
2769 29-06-2019 10:00:00 23.49167 C 55.0833 % 13.96 C
2770 29-06-2019 11:00:00 25.775 C 48.0000 % 13.94 C
2771 29-06-2019 12:00:00 27.41667 C 44.5833 % 14.29 C
2772 29-06-2019 13:00:00 29.11667 C 35.4167 % 12.28 C
2773 29-06-2019 14:00:00 30.58333 C 30.5000 % 11.29 C
2774 29-06-2019 15:00:00 32.63333 C 26.5000 % 10.92 C
2775 29-06-2019 16:00:00 34.24167 C 23.5000 % 10.47 C
Sensor: Nr:Datum:Temp:Feuchte:Taupunkt:
Aussen-T/F 2776 29-06-2019 17:00:00 35.325 C 22.2500 % 10.55 C
2777 29-06-2019 18:00:00 35.64167 C 22.5833 % 11.03 C
2778 29-06-2019 19:00:00 35.26667 C 23.4167 % 11.27 C
2779 29-06-2019 20:00:00 32.425 C 34.0833 % 14.58 C
2780 29-06-2019 21:00:00 27.60833 C 40.0833 % 12.83 C
2781 29-06-2019 22:00:00 24.225 C 45.4167 % 11.68 C
2782 29-06-2019 23:00:00 21.23333 C 57.4167 % 12.49 C
2783 30-06-2019 00:00:00 18.93333 C 65.8333 % 12.41 C
2784 30-06-2019 01:00:00 17.525 C 72.1667 % 12.46 C
2785 30-06-2019 02:00:00 16.75 C 75.5833 % 12.42 C
2786 30-06-2019 03:00:00 16.10833 C 78.7500 % 12.42 C
2787 30-06-2019 04:00:00 15.58333 C 81.3333 % 12.4 C
2788 30-06-2019 05:00:00 15.05 C 83.5833 % 12.29 C
2789 30-06-2019 06:00:00 14.85 C 86.5000 % 12.62 C
2790 30-06-2019 07:00:00 15.44167 C 87.8333 % 13.44 C
2791 30-06-2019 08:00:00 17.025 C 86.4167 % 14.74 C
2792 30-06-2019 09:00:00 19.65833 C 81.5833 % 16.42 C
2793 30-06-2019 10:00:00 25.225 C 64.7500 % 18.11 C
2794 30-06-2019 11:00:00 30.59167 C 45.2500 % 17.39 C
2795 30-06-2019 12:00:00 32.48333 C 40.0000 % 17.14 C
2796 30-06-2019 13:00:00 34.6 C 35.0000 % 16.89 C
2797 30-06-2019 14:00:00 36.00833 C 34.3333 % 17.82 C
2798 30-06-2019 15:00:00 35.5 C 40.7500 % 20.12 C
2799 30-06-2019 16:00:00 35.49167 C 45.0000 % 21.72 C
2800 30-06-2019 17:00:00 35.875 C 45.5833 % 22.28 C
Sensor: Nr:Datum:Temp:Feuchte:Taupunkt:
Aussen-T/F 2801 30-06-2019 18:00:00 34.975 C 46.3333 % 21.73 C
2802 30-06-2019 19:00:00 32.65833 C 50.6667 % 21.09 C
2803 30-06-2019 20:00:00 29.35 C 58.8333 % 20.45 C
2804 30-06-2019 21:00:00 27.18333 C 62.5000 % 19.4 C
2805 30-06-2019 22:00:00 26.25833 C 63.6667 % 18.82 C
2806 30-06-2019 23:00:00 24.55833 C 67.0000 % 18.02 C
2807 01-07-2019 00:00:00 22.68333 C 73.0833 % 17.61 C
2808 01-07-2019 01:00:00 22.36667 C 73.0833 % 17.31 C
2809 01-07-2019 02:00:00 21.63333 C 73.9167 % 16.78 C
2810 01-07-2019 03:00:00 20.98333 C 72.0833 % 15.76 C
2811 01-07-2019 04:00:00 20.34167 C 71.7500 % 15.07 C
2812 01-07-2019 05:00:00 19.65833 C 73.0833 % 14.7 C
2813 01-07-2019 06:00:00 19.68333 C 70.9167 % 14.26 C
2814 01-07-2019 07:00:00 19.675 C 70.9167 % 14.25 C
2815 01-07-2019 08:00:00 19.79167 C 70.6667 % 14.31 C
2816 01-07-2019 09:00:00 20.24167 C 69.2500 % 14.43 C
2817 01-07-2019 10:00:00 21.20833 C 68.8333 % 15.26 C
2818 01-07-2019 11:00:00 21.78333 C 69.2500 % 15.9 C
2819 01-07-2019 12:00:00 23.16667 C 62.7500 % 15.67 C
2820 01-07-2019 13:00:00 24.89167 C 50.9167 % 14.04 C
2821 01-07-2019 14:00:00 25.55833 C 51.1667 % 14.73 C
2822 01-07-2019 15:00:00 26.675 C 47.1667 % 14.49 C
2823 01-07-2019 16:00:00 26.89167 C 44.3333 % 13.73 C
2824 01-07-2019 17:00:00 27.04167 C 42.0833 % 13.06 C
2825 01-07-2019 18:00:00 26.3 C 44.0000 % 13.08 C
Sensor: Nr:Datum:Temp:Feuchte:Taupunkt:
Aussen-T/F 2826 01-07-2019 19:00:00 25.96667 C 42.7500 % 12.34 C
2827 01-07-2019 20:00:00 24.53333 C 46.6667 % 12.38 C
2828 01-07-2019 21:00:00 22.55833 C 51.1667 % 11.97 C
2829 01-07-2019 22:00:00 20.825 C 57.2500 % 12.06 C
2830 01-07-2019 23:00:00 20.03333 C 59.4167 % 11.89 C
2831 02-07-2019 00:00:00 18.85833 C 63.1667 % 11.71 C
2832 02-07-2019 01:00:00 16.89167 C 70.3333 % 11.46 C
2833 02-07-2019 02:00:00 15.85 C 74.3333 % 11.3 C
2834 02-07-2019 03:00:00 15.49167 C 75.2500 % 11.13 C
2835 02-07-2019 04:00:00 14.525 C 78.8333 % 10.9 C
2836 02-07-2019 05:00:00 13.45 C 83.2500 % 10.67 C
2837 02-07-2019 06:00:00 13.10833 C 85.5000 % 10.73 C
2838 02-07-2019 07:00:00 13.23333 C 87.0000 % 11.12 C
2839 02-07-2019 08:00:00 14.925 C 82.0000 % 11.88 C
2840 02-07-2019 09:00:00 17.48333 C 70.3333 % 12.03 C
2841 02-07-2019 10:00:00 19 C 62.7500 % 11.74 C
2842 02-07-2019 11:00:00 19.60833 C 60.5833 % 11.78 C
2843 02-07-2019 12:00:00 20.48333 C 55.0833 % 11.16 C
2844 02-07-2019 13:00:00 21.46667 C 51.4167 % 11.04 C
2845 02-07-2019 14:00:00 22.31667 C 49.1667 % 11.14 C
2846 02-07-2019 15:00:00 23.00833 C 47.5833 % 11.28 C
2847 02-07-2019 16:00:00 24.98333 C 40.2500 % 10.55 C
2848 02-07-2019 17:00:00 25.49167 C 38.5000 % 10.33 C
2849 02-07-2019 18:00:00 24.36667 C 41.3333 % 10.39 C
2850 02-07-2019 19:00:00 24.775 C 38.5833 % 9.73 C
Sensor: Nr:Datum:Temp:Feuchte:Taupunkt:
Aussen-T/F 2851 02-07-2019 20:00:00 22.95 C 41.7500 % 9.27 C
2852 02-07-2019 21:00:00 20.825 C 48.5833 % 9.6 C
2853 02-07-2019 22:00:00 17.64167 C 58.2500 % 9.35 C
2854 02-07-2019 23:00:00 16.3 C 62.2500 % 9.07 C
2855 03-07-2019 00:00:00 14.80833 C 68.0833 % 8.98 C
2856 03-07-2019 01:00:00 13.23333 C 73.7500 % 8.65 C
2857 03-07-2019 02:00:00 12.30833 C 77.2500 % 8.44 C
2858 03-07-2019 03:00:00 11.475 C 80.5000 % 8.24 C
2859 03-07-2019 04:00:00 10.65 C 83.2500 % 7.93 C
2860 03-07-2019 05:00:00 10.10833 C 85.8333 % 7.85 C
2861 03-07-2019 06:00:00 10.13333 C 88.0000 % 8.24 C
2862 03-07-2019 07:00:00 10.91667 C 88.6667 % 9.12 C
2863 03-07-2019 08:00:00 12.31667 C 86.1667 % 10.07 C
2864 03-07-2019 09:00:00 14.475 C 77.0000 % 10.5 C
2865 03-07-2019 10:00:00 18.01667 C 60.9167 % 10.37 C
2866 03-07-2019 11:00:00 19.95 C 50.8333 % 9.47 C
2867 03-07-2019 12:00:00 20.75833 C 48.7500 % 9.59 C
2868 03-07-2019 13:00:00 21.4 C 46.6667 % 9.52 C
2869 03-07-2019 14:00:00 21.975 C 46.3333 % 9.94 C
2870 03-07-2019 15:00:00 22.625 C 45.1667 % 10.15 C
2871 03-07-2019 16:00:00 24.44167 C 39.9167 % 9.94 C
2872 03-07-2019 17:00:00 24.56667 C 38.0833 % 9.35 C
2873 03-07-2019 18:00:00 24.70833 C 37.5000 % 9.25 C
2874 03-07-2019 19:00:00 23.79167 C 38.8333 % 8.95 C
2875 03-07-2019 20:00:00 22.35833 C 41.9167 % 8.8 C
Sensor: Nr:Datum:Temp:Feuchte:Taupunkt:
Aussen-T/F 2876 03-07-2019 21:00:00 20.40833 C 46.4167 % 8.54 C
2877 03-07-2019 22:00:00 17.54167 C 55.0833 % 8.43 C
2878 03-07-2019 23:00:00 15.46667 C 61.8333 % 8.19 C
2879 04-07-2019 00:00:00 14.2 C 65.9167 % 7.93 C
2880 04-07-2019 01:00:00 13.48333 C 68.0833 % 7.72 C
2881 04-07-2019 02:00:00 12.625 C 71.6667 % 7.65 C
2882 04-07-2019 03:00:00 11.24167 C 77.1667 % 7.39 C
2883 04-07-2019 04:00:00 10.78333 C 79.6667 % 7.42 C
2884 04-07-2019 05:00:00 10.51667 C 81.7500 % 7.53 C
2885 04-07-2019 06:00:00 10.28333 C 83.7500 % 7.66 C
2886 04-07-2019 07:00:00 10.55 C 86.0000 % 8.31 C
2887 04-07-2019 08:00:00 11.76667 C 83.9167 % 9.14 C
2888 04-07-2019 09:00:00 14.4 C 73.1667 % 9.66 C
2889 04-07-2019 10:00:00 18.125 C 56.0833 % 9.24 C
2890 04-07-2019 11:00:00 19.58333 C 49.0833 % 8.61 C
2891 04-07-2019 12:00:00 20.4 C 45.3333 % 8.19 C
2892 04-07-2019 13:00:00 21.63333 C 41.5833 % 8.03 C
2893 04-07-2019 14:00:00 22.71667 C 38.0000 % 7.68 C
2894 04-07-2019 15:00:00 24.7 C 33.5833 % 7.61 C
2895 04-07-2019 16:00:00 26.80833 C 31.4167 % 8.47 C
2896 04-07-2019 17:00:00 26.9 C 31.9167 % 8.78 C
2897 04-07-2019 18:00:00 27.35 C 30.7500 % 8.62 C
2898 04-07-2019 19:00:00 26.94167 C 31.6667 % 8.7 C
2899 04-07-2019 20:00:00 24.95 C 36.1667 % 8.92 C
2900 04-07-2019 21:00:00 21.60833 C 47.4167 % 9.95 C
Sensor: Nr:Datum:Temp:Feuchte:Taupunkt:
Aussen-T/F 2901 04-07-2019 22:00:00 18.56667 C 53.4167 % 8.93 C
2902 04-07-2019 23:00:00 17.39167 C 57.0000 % 8.79 C
2903 05-07-2019 00:00:00 16.41667 C 61.5000 % 9 C
2904 05-07-2019 01:00:00 15.18333 C 65.8333 % 8.84 C
2905 05-07-2019 02:00:00 14.13333 C 69.1667 % 8.57 C
2906 05-07-2019 03:00:00 13.70833 C 73.2500 % 9.01 C
2907 05-07-2019 04:00:00 14.08333 C 73.8333 % 9.49 C
2908 05-07-2019 05:00:00 13.75833 C 74.5833 % 9.33 C
2909 05-07-2019 06:00:00 13.93333 C 76.3333 % 9.84 C
2910 05-07-2019 07:00:00 14.55 C 75.4167 % 10.26 C
2911 05-07-2019 08:00:00 15.8 C 72.5833 % 10.89 C
2912 05-07-2019 09:00:00 17.29167 C 67.5833 % 11.24 C
2913 05-07-2019 10:00:00 20.225 C 58.6667 % 11.87 C
2914 05-07-2019 11:00:00 21.94167 C 53.1667 % 11.98 C
2915 05-07-2019 12:00:00 22.84167 C 50.2500 % 11.95 C
2916 05-07-2019 13:00:00 24.38333 C 45.4167 % 11.83 C
2917 05-07-2019 14:00:00 25.5 C 42.7500 % 11.92 C
2918 05-07-2019 15:00:00 27.45 C 37.8333 % 11.81 C
2919 05-07-2019 16:00:00 28.91667 C 34.8333 % 11.85 C
2920 05-07-2019 17:00:00 29.6 C 33.7500 % 11.97 C
2921 05-07-2019 18:00:00 29.41667 C 35.0000 % 12.36 C
2922 05-07-2019 19:00:00 27.68333 C 38.6667 % 12.35 C
2923 05-07-2019 20:00:00 26.10833 C 42.6667 % 12.44 C
2924 05-07-2019 21:00:00 23.225 C 52.6667 % 13.02 C
2925 05-07-2019 22:00:00 21.18333 C 58.7500 % 12.79 C
Sensor: Nr:Datum:Temp:Feuchte:Taupunkt:
Aussen-T/F 2926 05-07-2019 23:00:00 20.4 C 62.6667 % 13.04 C
2927 06-07-2019 00:00:00 18.45833 C 69.9167 % 12.87 C
2928 06-07-2019 01:00:00 17.60833 C 73.0833 % 12.73 C
2929 06-07-2019 02:00:00 17.05833 C 76.2500 % 12.85 C
2930 06-07-2019 03:00:00 16.875 C 77.5000 % 12.92 C
2931 06-07-2019 04:00:00 16.16667 C 79.6667 % 12.65 C
2932 06-07-2019 05:00:00 15.425 C 81.8333 % 12.34 C
2933 06-07-2019 06:00:00 15.18333 C 84.5833 % 12.61 C
2934 06-07-2019 07:00:00 15.18333 C 85.0833 % 12.7 C
2935 06-07-2019 08:00:00 16.78333 C 81.2500 % 13.55 C
2936 06-07-2019 09:00:00 19.425 C 71.6667 % 14.18 C
2937 06-07-2019 10:00:00 22.16667 C 62.5000 % 14.67 C
2938 06-07-2019 11:00:00 24.41667 C 52.9167 % 14.19 C
2939 06-07-2019 12:00:00 25.48333 C 50.0000 % 14.3 C
2940 06-07-2019 13:00:00 26.84167 C 43.5000 % 13.39 C
2941 06-07-2019 14:00:00 28.7 C 32.0833 % 10.42 C
2942 06-07-2019 15:00:00 30.95833 C 22.5833 % 7.15 C
2943 06-07-2019 16:00:00 29.08333 C 21.6667 % 5 C
2944 06-07-2019 17:00:00 27.89167 C 28.8333 % 8.14 C
2945 06-07-2019 18:00:00 22.825 C 51.7500 % 12.38 C
2946 06-07-2019 19:00:00 21.60833 C 55.9167 % 12.44 C
2947 06-07-2019 20:00:00 20.35833 C 64.4167 % 13.43 C
2948 06-07-2019 21:00:00 19.75833 C 66.8333 % 13.42 C
2949 06-07-2019 22:00:00 19.86667 C 71.1667 % 14.49 C
2950 06-07-2019 23:00:00 20.35833 C 71.4167 % 15.02 C
Sensor: Nr:Datum:Temp:Feuchte:Taupunkt:
Aussen-T/F 2951 07-07-2019 00:00:00 18.93333 C 74.1667 % 14.23 C
2952 07-07-2019 01:00:00 17.88333 C 77.4167 % 13.88 C
2953 07-07-2019 02:00:00 17.33333 C 74.5000 % 12.76 C
2954 07-07-2019 03:00:00 17 C 75.5833 % 12.66 C
2955 07-07-2019 04:00:00 16.825 C 75.8333 % 12.54 C
2956 07-07-2019 05:00:00 16.35 C 79.9167 % 12.88 C
2957 07-07-2019 06:00:00 14.99167 C 89.7500 % 13.32 C
2958 07-07-2019 07:00:00 14.65 C 92.9167 % 13.52 C
2959 07-07-2019 08:00:00 14.28333 C 93.7500 % 13.29 C
2960 07-07-2019 09:00:00 14.78333 C 94.1667 % 13.85 C
2961 07-07-2019 10:00:00 15.38333 C 86.1667 % 13.08 C
2962 07-07-2019 11:00:00 16.50833 C 75.4167 % 12.15 C
2963 07-07-2019 12:00:00 17.73333 C 67.5833 % 11.66 C
2964 07-07-2019 13:00:00 18.5 C 62.4167 % 11.19 C
2965 07-07-2019 14:00:00 19.25833 C 55.6667 % 10.18 C
2966 07-07-2019 15:00:00 20.91667 C 48.5000 % 9.66 C
2967 07-07-2019 16:00:00 21.78333 C 43.6667 % 8.89 C
2968 07-07-2019 17:00:00 21.475 C 44.0833 % 8.75 C
2969 07-07-2019 18:00:00 21.775 C 44.4167 % 9.13 C
2970 07-07-2019 19:00:00 21.325 C 44.5000 % 8.75 C
2971 07-07-2019 20:00:00 20 C 48.0000 % 8.67 C
2972 07-07-2019 21:00:00 18.65 C 52.5833 % 8.77 C
2973 07-07-2019 22:00:00 15.64167 C 66.2500 % 9.37 C
2974 07-07-2019 23:00:00 13.85 C 73.9167 % 9.28 C
2975 08-07-2019 00:00:00 12.875 C 77.5000 % 9.04 C
Sensor: Nr:Datum:Temp:Feuchte:Taupunkt:
Aussen-T/F 2976 08-07-2019 01:00:00 11.89167 C 81.2500 % 8.78 C
2977 08-07-2019 02:00:00 11.05 C 83.7500 % 8.41 C
2978 08-07-2019 03:00:00 10.94167 C 83.5000 % 8.26 C
2979 08-07-2019 04:00:00 10.78333 C 83.9167 % 8.18 C
2980 08-07-2019 05:00:00 9.89167 C 86.7500 % 7.79 C
2981 08-07-2019 06:00:00 9.55833 C 89.5833 % 7.93 C
2982 08-07-2019 07:00:00 9.975 C 91.0000 % 8.58 C
2983 08-07-2019 08:00:00 11.225 C 90.0833 % 9.66 C
2984 08-07-2019 09:00:00 14.18333 C 73.8333 % 9.59 C
2985 08-07-2019 10:00:00 15.65833 C 62.6667 % 8.57 C
2986 08-07-2019 11:00:00 16.14167 C 61.8333 % 8.82 C
2987 08-07-2019 12:00:00 16.68333 C 59.5833 % 8.79 C
2988 08-07-2019 13:00:00 17.05833 C 58.1667 % 8.78 C
2989 08-07-2019 14:00:00 17.33333 C 57.6667 % 8.91 C
2990 08-07-2019 15:00:00 17.49167 C 57.8333 % 9.1 C
2991 08-07-2019 16:00:00 18.025 C 57.0000 % 9.39 C
2992 08-07-2019 17:00:00 18.16667 C 57.1667 % 9.56 C
2993 08-07-2019 18:00:00 18.04167 C 57.2500 % 9.47 C
2994 08-07-2019 19:00:00 17.75833 C 58.0833 % 9.42 C
2995 08-07-2019 20:00:00 17.69167 C 58.5000 % 9.46 C
2996 08-07-2019 21:00:00 16.26667 C 65.0833 % 9.7 C
2997 08-07-2019 22:00:00 13.975 C 74.8333 % 9.59 C
2998 08-07-2019 23:00:00 14.11667 C 75.4167 % 9.84 C
2999 09-07-2019 00:00:00 13.29167 C 79.3333 % 9.79 C
3000 09-07-2019 01:00:00 12.7 C 81.4167 % 9.6 C
Sensor: Nr:Datum:Temp:Feuchte:Taupunkt:
Aussen-T/F 3001 09-07-2019 02:00:00 11.88333 C 83.8333 % 9.24 C
3002 09-07-2019 03:00:00 11.11667 C 87.1667 % 9.07 C
3003 09-07-2019 04:00:00 10.43333 C 88.3333 % 8.59 C
3004 09-07-2019 05:00:00 9.80833 C 90.1667 % 8.28 C
3005 09-07-2019 06:00:00 9.725 C 91.2500 % 8.37 C
3006 09-07-2019 07:00:00 10.91667 C 90.6667 % 9.45 C
3007 09-07-2019 08:00:00 12.98333 C 81.4167 % 9.88 C
3008 09-07-2019 09:00:00 14.2 C 75.8333 % 10 C
3009 09-07-2019 10:00:00 14.9 C 70.6667 % 9.62 C
3010 09-07-2019 11:00:00 16.09167 C 60.4167 % 8.44 C
3011 09-07-2019 12:00:00 16.86667 C 56.6667 % 8.22 C
3012 09-07-2019 13:00:00 17.68333 C 52.4167 % 7.83 C
3013 09-07-2019 14:00:00 18.6 C 49.1667 % 7.74 C
3014 09-07-2019 15:00:00 19.73333 C 45.9167 % 7.77 C
3015 09-07-2019 16:00:00 20.475 C 43.7500 % 7.73 C
3016 09-07-2019 17:00:00 21.725 C 39.5000 % 7.36 C
3017 09-07-2019 18:00:00 21.06667 C 39.7500 % 6.86 C
3018 09-07-2019 19:00:00 20.98333 C 40.7500 % 7.15 C
3019 09-07-2019 20:00:00 19.525 C 46.5000 % 7.76 C
3020 09-07-2019 21:00:00 17.04167 C 56.8333 % 8.42 C
3021 09-07-2019 22:00:00 14.95 C 62.5000 % 7.86 C
3022 09-07-2019 23:00:00 13.10833 C 71.8333 % 8.15 C
3023 10-07-2019 00:00:00 12.05 C 75.0833 % 7.78 C
3024 10-07-2019 01:00:00 11.01667 C 78.0000 % 7.33 C
3025 10-07-2019 02:00:00 10.01667 C 81.1667 % 6.94 C
Sensor: Nr:Datum:Temp:Feuchte:Taupunkt:
Aussen-T/F 3026 10-07-2019 03:00:00 9.05 C 84.6667 % 6.61 C
3027 10-07-2019 04:00:00 8.5 C 87.0000 % 6.46 C
3028 10-07-2019 05:00:00 8.23333 C 88.5833 % 6.46 C
3029 10-07-2019 06:00:00 8.10833 C 89.7500 % 6.53 C
3030 10-07-2019 07:00:00 8.46667 C 90.5833 % 7.02 C
3031 10-07-2019 08:00:00 10 C 90.1667 % 8.46 C
3032 10-07-2019 09:00:00 12.49167 C 81.8333 % 9.48 C
3033 10-07-2019 10:00:00 16.09167 C 68.5000 % 10.3 C
3034 10-07-2019 11:00:00 18.40833 C 54.5833 % 9.1 C
3035 10-07-2019 12:00:00 19.80833 C 42.6667 % 6.77 C
3036 10-07-2019 13:00:00 21.15833 C 35.4167 % 5.28 C
3037 10-07-2019 14:00:00 22.70833 C 30.8333 % 4.65 C
3038 10-07-2019 15:00:00 24.41667 C 28.2500 % 4.87 C
3039 10-07-2019 16:00:00 25.66667 C 26.6667 % 5.11 C
3040 10-07-2019 17:00:00 26.63333 C 25.4167 % 5.24 C
3041 10-07-2019 18:00:00 26.76667 C 25.7500 % 5.54 C
3042 10-07-2019 19:00:00 25.75 C 28.0833 % 5.92 C
3043 10-07-2019 20:00:00 23.525 C 33.6667 % 6.62 C
3044 10-07-2019 21:00:00 20.74167 C 43.3333 % 7.83 C
3045 10-07-2019 22:00:00 19.21667 C 48.2500 % 8.03 C
3046 10-07-2019 23:00:00 18.9 C 52.0000 % 8.84 C
3047 11-07-2019 00:00:00 19.10833 C 54.4167 % 9.7 C
3048 11-07-2019 01:00:00 17.8 C 61.0833 % 10.21 C
3049 11-07-2019 02:00:00 17.175 C 65.8333 % 10.74 C
3050 11-07-2019 03:00:00 16.875 C 70.1667 % 11.41 C
Sensor: Nr:Datum:Temp:Feuchte:Taupunkt:
Aussen-T/F 3051 11-07-2019 04:00:00 16.59167 C 72.6667 % 11.67 C
3052 11-07-2019 05:00:00 16.34167 C 73.1667 % 11.53 C
3053 11-07-2019 06:00:00 16.39167 C 74.2500 % 11.8 C
3054 11-07-2019 07:00:00 17.23333 C 71.7500 % 12.09 C
3055 11-07-2019 08:00:00 17.85833 C 69.0000 % 12.1 C
3056 11-07-2019 09:00:00 18.675 C 68.5000 % 12.77 C
3057 11-07-2019 10:00:00 18.7 C 70.6667 % 13.27 C
3058 11-07-2019 11:00:00 18.9 C 69.5000 % 13.2 C
3059 11-07-2019 12:00:00 17.35 C 81.9167 % 14.23 C
3060 11-07-2019 13:00:00 16.31667 C 90.8333 % 14.82 C
3061 11-07-2019 14:00:00 16.79167 C 92.7500 % 15.61 C
3062 11-07-2019 15:00:00 17.575 C 92.5000 % 16.35 C
3063 11-07-2019 16:00:00 19.11667 C 89.3333 % 17.32 C
3064 11-07-2019 17:00:00 20.88333 C 84.5000 % 18.17 C
3065 11-07-2019 18:00:00 19.50833 C 90.0833 % 17.84 C
3066 11-07-2019 19:00:00 18.3 C 93.0833 % 17.16 C
3067 11-07-2019 20:00:00 18.04167 C 94.0000 % 17.06 C
3068 11-07-2019 21:00:00 17.44167 C 94.0000 % 16.47 C
3069 11-07-2019 22:00:00 16.85 C 94.9167 % 16.03 C
3070 11-07-2019 23:00:00 16.43333 C 95.0833 % 15.64 C
3071 12-07-2019 00:00:00 16.05 C 96.0000 % 15.41 C
3072 12-07-2019 01:00:00 15.70833 C 96.0000 % 15.07 C
3073 12-07-2019 02:00:00 15.34167 C 96.0000 % 14.71 C
3074 12-07-2019 03:00:00 15.31667 C 96.5000 % 14.76 C
3075 12-07-2019 04:00:00 14.93333 C 96.4167 % 14.37 C
Sensor: Nr:Datum:Temp:Feuchte:Taupunkt:
Aussen-T/F 3076 12-07-2019 05:00:00 14.58333 C 97.0000 % 14.11 C
3077 12-07-2019 06:00:00 14.75833 C 97.0000 % 14.29 C
3078 12-07-2019 07:00:00 15.73333 C 97.1667 % 15.29 C
3079 12-07-2019 08:00:00 16.45833 C 97.0833 % 15.99 C
3080 12-07-2019 09:00:00 17.45 C 97.4167 % 17.04 C
3081 12-07-2019 10:00:00 18.78333 C 95.0000 % 17.97 C
3082 12-07-2019 11:00:00 20.325 C 88.7500 % 18.41 C
3083 12-07-2019 12:00:00 19.04167 C 91.7500 % 17.67 C
3084 12-07-2019 13:00:00 17.98333 C 94.2500 % 17.05 C
3085 12-07-2019 14:00:00 17.70833 C 94.1667 % 16.76 C
3086 12-07-2019 15:00:00 19.6 C 89.0833 % 17.75 C
3087 12-07-2019 16:00:00 20.76667 C 86.8333 % 18.49 C
3088 12-07-2019 17:00:00 19.975 C 79.9167 % 16.4 C
3089 12-07-2019 18:00:00 18.30833 C 84.9167 % 15.73 C
3090 12-07-2019 19:00:00 17.55833 C 87.6667 % 15.49 C
3091 12-07-2019 20:00:00 18.23333 C 88.2500 % 16.26 C
3092 12-07-2019 21:00:00 17.63333 C 87.0000 % 15.44 C
3093 12-07-2019 22:00:00 17.3 C 86.2500 % 14.98 C
3094 12-07-2019 23:00:00 16.55 C 88.3333 % 14.61 C
3095 13-07-2019 00:00:00 16.34167 C 86.6667 % 14.11 C
3096 13-07-2019 01:00:00 16.13333 C 89.9167 % 14.48 C
3097 13-07-2019 02:00:00 15.51667 C 94.0000 % 14.56 C
3098 13-07-2019 03:00:00 15.175 C 94.9167 % 14.37 C
3099 13-07-2019 04:00:00 14.99167 C 95.0833 % 14.21 C
3100 13-07-2019 05:00:00 14.90833 C 96.0000 % 14.28 C
Sensor: Nr:Datum:Temp:Feuchte:Taupunkt:
Aussen-T/F 3101 13-07-2019 06:00:00 14.75 C 96.0000 % 14.12 C
3102 13-07-2019 07:00:00 14.93333 C 96.1667 % 14.33 C
3103 13-07-2019 08:00:00 15.61667 C 96.1667 % 15.01 C
3104 13-07-2019 09:00:00 15.83333 C 95.5000 % 15.12 C
3105 13-07-2019 10:00:00 16.5 C 91.0000 % 15.03 C
3106 13-07-2019 11:00:00 17.51667 C 88.3333 % 15.57 C
3107 13-07-2019 12:00:00 18.75833 C 81.5000 % 15.53 C
3108 13-07-2019 13:00:00 19.725 C 75.9167 % 15.36 C
3109 13-07-2019 14:00:00 21.15 C 69.2500 % 15.3 C
3110 13-07-2019 15:00:00 21.18333 C 71.0833 % 15.74 C
3111 13-07-2019 16:00:00 20.90833 C 68.9167 % 14.99 C
3112 13-07-2019 17:00:00 21.84167 C 67.1667 % 15.48 C
3113 13-07-2019 18:00:00 22.38333 C 64.2500 % 15.3 C
3114 13-07-2019 19:00:00 22.70833 C 63.0000 % 15.3 C
3115 13-07-2019 20:00:00 20.45833 C 70.1667 % 14.84 C
3116 13-07-2019 21:00:00 19.2 C 77.2500 % 15.12 C
3117 13-07-2019 22:00:00 18.225 C 85.0833 % 15.68 C
3118 13-07-2019 23:00:00 17.21667 C 89.5833 % 15.49 C
3119 14-07-2019 00:00:00 16.95 C 89.7500 % 15.26 C
3120 14-07-2019 01:00:00 16.975 C 88.5833 % 15.08 C
3121 14-07-2019 02:00:00 16.35833 C 89.6667 % 14.66 C
3122 14-07-2019 03:00:00 15.44167 C 90.9167 % 13.97 C
3123 14-07-2019 04:00:00 15.11667 C 90.9167 % 13.64 C
3124 14-07-2019 05:00:00 14.85 C 90.2500 % 13.27 C
3125 14-07-2019 06:00:00 14.71667 C 90.9167 % 13.25 C
Sensor: Nr:Datum:Temp:Feuchte:Taupunkt:
Aussen-T/F 3126 14-07-2019 07:00:00 14.86667 C 86.8333 % 12.69 C
3127 14-07-2019 08:00:00 15.40833 C 85.3333 % 12.96 C
3128 14-07-2019 09:00:00 15.26667 C 84.1667 % 12.61 C
3129 14-07-2019 10:00:00 16.00833 C 77.7500 % 12.13 C
3130 14-07-2019 11:00:00 16.83333 C 73.1667 % 12 C
3131 14-07-2019 12:00:00 17.53333 C 69.4167 % 11.88 C
3132 14-07-2019 13:00:00 17.80833 C 66.8333 % 11.57 C
3133 14-07-2019 14:00:00 18.19167 C 64.3333 % 11.35 C
3134 14-07-2019 15:00:00 18.925 C 61.0833 % 11.26 C
3135 14-07-2019 16:00:00 19.33333 C 58.8333 % 11.08 C
3136 14-07-2019 17:00:00 19.34167 C 58.5833 % 11.03 C
3137 14-07-2019 18:00:00 18.65833 C 61.8333 % 11.2 C
3138 14-07-2019 19:00:00 18.36667 C 62.0000 % 10.96 C
3139 14-07-2019 20:00:00 17.89167 C 66.0000 % 11.46 C
3140 14-07-2019 21:00:00 17.45 C 67.4167 % 11.36 C
3141 14-07-2019 22:00:00 17.125 C 68.0833 % 11.19 C
3142 14-07-2019 23:00:00 16.8 C 71.0833 % 11.53 C
3143 15-07-2019 00:00:00 16.06667 C 76.7500 % 11.99 C
3144 15-07-2019 01:00:00 15.63333 C 78.7500 % 11.96 C
3145 15-07-2019 02:00:00 15.55833 C 80.3333 % 12.19 C
3146 15-07-2019 03:00:00 14.99167 C 83.5000 % 12.22 C
3147 15-07-2019 04:00:00 15.30833 C 78.2500 % 11.55 C
3148 15-07-2019 05:00:00 15.65 C 74.4167 % 11.12 C
3149 15-07-2019 06:00:00 15.6 C 74.1667 % 11.02 C
3150 15-07-2019 07:00:00 15.69167 C 74.0000 % 11.07 C
Sensor: Nr:Datum:Temp:Feuchte:Taupunkt:
Aussen-T/F 3151 15-07-2019 08:00:00 15.83333 C 74.0833 % 11.23 C
3152 15-07-2019 09:00:00 16.53333 C 71.4167 % 11.35 C
3153 15-07-2019 10:00:00 16.8 C 72.1667 % 11.76 C
3154 15-07-2019 11:00:00 16.84167 C 74.4167 % 12.27 C
3155 15-07-2019 12:00:00 17.10833 C 72.8333 % 12.2 C
3156 15-07-2019 13:00:00 17.49167 C 69.7500 % 11.91 C
3157 15-07-2019 14:00:00 18.09167 C 66.3333 % 11.72 C
3158 15-07-2019 15:00:00 17.68333 C 67.9167 % 11.69 C
3159 15-07-2019 16:00:00 17.11667 C 70.5000 % 11.71 C
3160 15-07-2019 17:00:00 16.775 C 71.6667 % 11.63 C
3161 15-07-2019 18:00:00 16.69167 C 71.5833 % 11.54 C
3162 15-07-2019 19:00:00 16.78333 C 71.0000 % 11.5 C
3163 15-07-2019 20:00:00 16.69167 C 71.0833 % 11.43 C
3164 15-07-2019 21:00:00 16.34167 C 73.9167 % 11.68 C
3165 15-07-2019 22:00:00 15.61667 C 79.5000 % 12.09 C
3166 15-07-2019 23:00:00 15.44167 C 77.2500 % 11.48 C
3167 16-07-2019 00:00:00 14.75 C 79.8333 % 11.31 C
3168 16-07-2019 01:00:00 13.675 C 80.3333 % 10.35 C
3169 16-07-2019 02:00:00 12.23333 C 85.5000 % 9.88 C
3170 16-07-2019 03:00:00 10.9 C 90.2500 % 9.37 C
3171 16-07-2019 04:00:00 10.28333 C 92.2500 % 9.08 C
3172 16-07-2019 05:00:00 9.98333 C 93.1667 % 8.93 C
3173 16-07-2019 06:00:00 10.125 C 94.4167 % 9.27 C
3174 16-07-2019 07:00:00 11.01667 C 93.7500 % 10.05 C
3175 16-07-2019 08:00:00 12.625 C 90.7500 % 11.15 C
Sensor: Nr:Datum:Temp:Feuchte:Taupunkt:
Aussen-T/F 3176 16-07-2019 09:00:00 14.58333 C 84.1667 % 11.94 C
3177 16-07-2019 10:00:00 15.51667 C 77.5000 % 11.6 C
3178 16-07-2019 11:00:00 15.99167 C 74.6667 % 11.5 C
3179 16-07-2019 12:00:00 16.725 C 71.8333 % 11.62 C
3180 16-07-2019 13:00:00 17.40833 C 69.4167 % 11.76 C
3181 16-07-2019 14:00:00 18.38333 C 66.5000 % 12.04 C
3182 16-07-2019 15:00:00 20.325 C 60.9167 % 12.54 C
3183 16-07-2019 16:00:00 22.31667 C 54.8333 % 12.8 C
3184 16-07-2019 17:00:00 22.8 C 53.0833 % 12.75 C
3185 16-07-2019 18:00:00 23.075 C 52.0000 % 12.69 C
3186 16-07-2019 19:00:00 22.125 C 54.1667 % 12.43 C
3187 16-07-2019 20:00:00 20.81667 C 58.3333 % 12.34 C
3188 16-07-2019 21:00:00 18.30833 C 70.1667 % 12.78 C
3189 16-07-2019 22:00:00 15.85 C 78.8333 % 12.18 C
3190 16-07-2019 23:00:00 15.08333 C 81.7500 % 11.99 C
3191 17-07-2019 00:00:00 14.09167 C 84.3333 % 11.49 C
3192 17-07-2019 01:00:00 13.08333 C 88.2500 % 11.19 C
3193 17-07-2019 02:00:00 12.40833 C 89.7500 % 10.77 C
3194 17-07-2019 03:00:00 11.64167 C 91.5833 % 10.32 C
3195 17-07-2019 04:00:00 11.225 C 92.8333 % 10.11 C
3196 17-07-2019 05:00:00 10.83333 C 93.7500 % 9.87 C
3197 17-07-2019 06:00:00 10.74167 C 94.5000 % 9.9 C
3198 17-07-2019 07:00:00 11.51667 C 95.0833 % 10.76 C
3199 17-07-2019 08:00:00 12.79167 C 94.5000 % 11.93 C
3200 17-07-2019 09:00:00 14.85833 C 88.5833 % 12.99 C
Sensor: Nr:Datum:Temp:Feuchte:Taupunkt:
Aussen-T/F 3201 17-07-2019 10:00:00 17.23333 C 77.4167 % 13.25 C
3202 17-07-2019 11:00:00 18.58333 C 71.6667 % 13.37 C
3203 17-07-2019 12:00:00 19.39167 C 68.7500 % 13.51 C
3204 17-07-2019 13:00:00 20.5 C 62.9167 % 13.2 C
3205 17-07-2019 14:00:00 21.69167 C 58.9167 % 13.31 C
3206 17-07-2019 15:00:00 22.69167 C 58.0000 % 14.01 C
3207 17-07-2019 16:00:00 23.675 C 54.9167 % 14.08 C
3208 17-07-2019 17:00:00 24.575 C 53.0000 % 14.36 C
3209 17-07-2019 18:00:00 24.24167 C 54.1667 % 14.39 C
3210 17-07-2019 19:00:00 23.20833 C 58.5000 % 14.62 C
3211 17-07-2019 20:00:00 21.525 C 64.2500 % 14.49 C
3212 17-07-2019 21:00:00 19.69167 C 70.6667 % 14.22 C
3213 17-07-2019 22:00:00 17.05 C 80.0000 % 13.58 C
3214 17-07-2019 23:00:00 16.025 C 84.5000 % 13.41 C
3215 18-07-2019 00:00:00 15.29167 C 86.0833 % 12.98 C
3216 18-07-2019 01:00:00 14.29167 C 88.5000 % 12.42 C
3217 18-07-2019 02:00:00 13.69167 C 91.2500 % 12.29 C
3218 18-07-2019 03:00:00 13.45833 C 92.2500 % 12.23 C
3219 18-07-2019 04:00:00 13.24167 C 92.9167 % 12.12 C
3220 18-07-2019 05:00:00 12.675 C 93.0833 % 11.59 C
3221 18-07-2019 06:00:00 12.45833 C 94.3333 % 11.57 C
3222 18-07-2019 07:00:00 13.25833 C 95.0000 % 12.48 C
3223 18-07-2019 08:00:00 14.31667 C 93.1667 % 13.23 C
3224 18-07-2019 09:00:00 16.21667 C 89.0833 % 14.42 C
3225 18-07-2019 10:00:00 18.83333 C 81.3333 % 15.57 C
Sensor: Nr:Datum:Temp:Feuchte:Taupunkt:
Aussen-T/F 3226 18-07-2019 11:00:00 21.89167 C 64.4167 % 14.88 C
3227 18-07-2019 12:00:00 24.18333 C 54.1667 % 14.34 C
3228 18-07-2019 13:00:00 25.71667 C 49.0833 % 14.23 C
3229 18-07-2019 14:00:00 27.20833 C 41.0833 % 12.85 C
3230 18-07-2019 15:00:00 26.04167 C 44.9167 % 13.16 C
3231 18-07-2019 16:00:00 24.76667 C 52.4167 % 14.37 C
3232 18-07-2019 17:00:00 24.84167 C 56.0833 % 15.49 C
3233 18-07-2019 18:00:00 23.975 C 62.7500 % 16.44 C
3234 18-07-2019 19:00:00 21.06667 C 74.2500 % 16.31 C
3235 18-07-2019 20:00:00 20.86667 C 70.0000 % 15.19 C
3236 18-07-2019 21:00:00 20.35 C 69.0833 % 14.49 C
3237 18-07-2019 22:00:00 19.66667 C 71.6667 % 14.41 C
3238 18-07-2019 23:00:00 19.35833 C 72.5000 % 14.29 C
3239 19-07-2019 00:00:00 19.33333 C 74.0833 % 14.6 C
3240 19-07-2019 01:00:00 18.45833 C 82.4167 % 15.41 C
3241 19-07-2019 02:00:00 17.05833 C 89.9167 % 15.39 C
3242 19-07-2019 03:00:00 16.60833 C 92.3333 % 15.36 C
3243 19-07-2019 04:00:00 16.375 C 93.4167 % 15.31 C
3244 19-07-2019 05:00:00 16.3 C 94.1667 % 15.36 C
3245 19-07-2019 06:00:00 16.35 C 95.0000 % 15.55 C
3246 19-07-2019 07:00:00 16.7 C 95.2500 % 15.94 C
3247 19-07-2019 08:00:00 17.23333 C 96.0000 % 16.59 C
3248 19-07-2019 09:00:00 18.025 C 94.8333 % 17.18 C
3249 19-07-2019 10:00:00 19.275 C 90.3333 % 17.65 C
3250 19-07-2019 11:00:00 20.475 C 83.6667 % 17.62 C
Sensor: Nr:Datum:Temp:Feuchte:Taupunkt:
Aussen-T/F 3251 19-07-2019 12:00:00 20.04167 C 86.1667 % 17.66 C
3252 19-07-2019 13:00:00 21.975 C 74.8333 % 17.31 C
3253 19-07-2019 14:00:00 23.525 C 60.9167 % 15.55 C
3254 19-07-2019 15:00:00 24.875 C 52.8333 % 14.59 C
3255 19-07-2019 16:00:00 25.21667 C 50.5833 % 14.23 C
3256 19-07-2019 17:00:00 25.91667 C 49.5833 % 14.57 C
3257 19-07-2019 18:00:00 25.43333 C 51.0833 % 14.59 C
3258 19-07-2019 19:00:00 24.78333 C 60.1667 % 16.54 C
3259 19-07-2019 20:00:00 23.25833 C 64.2500 % 16.13 C
3260 19-07-2019 21:00:00 20.90833 C 71.5833 % 15.58 C
3261 19-07-2019 22:00:00 19.20833 C 79.0833 % 15.5 C
3262 19-07-2019 23:00:00 18.525 C 82.9167 % 15.57 C
3263 20-07-2019 00:00:00 17.39167 C 86.1667 % 15.06 C
3264 20-07-2019 01:00:00 16.6 C 88.2500 % 14.65 C
3265 20-07-2019 02:00:00 15.74167 C 90.5000 % 14.19 C
3266 20-07-2019 03:00:00 15.025 C 92.4167 % 13.81 C
3267 20-07-2019 04:00:00 14.55833 C 93.4167 % 13.51 C
3268 20-07-2019 05:00:00 14.18333 C 94.0833 % 13.25 C
3269 20-07-2019 06:00:00 13.96667 C 94.9167 % 13.17 C
3270 20-07-2019 07:00:00 14.56667 C 95.7500 % 13.9 C
3271 20-07-2019 08:00:00 15.86667 C 96.0000 % 15.23 C
3272 20-07-2019 09:00:00 17.73333 C 94.8333 % 16.89 C
3273 20-07-2019 10:00:00 21.4 C 87.2500 % 19.19 C
3274 20-07-2019 11:00:00 25.8 C 63.2500 % 18.28 C
3275 20-07-2019 12:00:00 27.775 C 51.4167 % 16.84 C
Sensor: Nr:Datum:Temp:Feuchte:Taupunkt:
Aussen-T/F 3276 20-07-2019 13:00:00 28.175 C 50.5000 % 16.92 C
3277 20-07-2019 14:00:00 30.04167 C 45.4167 % 16.95 C
3278 20-07-2019 15:00:00 30.8 C 43.7500 % 17.04 C
3279 20-07-2019 16:00:00 28.94167 C 64.4167 % 21.55 C
3280 20-07-2019 17:00:00 28.35 C 60.9167 % 20.08 C
3281 20-07-2019 18:00:00 28.925 C 49.3333 % 17.24 C
3282 20-07-2019 19:00:00 27.50833 C 53.5833 % 17.25 C
3283 20-07-2019 20:00:00 23.425 C 69.5833 % 17.55 C
3284 20-07-2019 21:00:00 21.725 C 76.0833 % 17.33 C
3285 20-07-2019 22:00:00 20.56667 C 80.0833 % 17.01 C
3286 20-07-2019 23:00:00 19.75 C 83.5833 % 16.89 C
3287 21-07-2019 00:00:00 19.08333 C 85.6667 % 16.63 C
3288 21-07-2019 01:00:00 18.58333 C 87.9167 % 16.54 C
3289 21-07-2019 02:00:00 18.875 C 87.7500 % 16.8 C
3290 21-07-2019 03:00:00 18.65 C 88.6667 % 16.74 C
3291 21-07-2019 04:00:00 17.95 C 89.3333 % 16.17 C
3292 21-07-2019 05:00:00 17.46667 C 91.1667 % 16.01 C
3293 21-07-2019 06:00:00 17.73333 C 91.6667 % 16.36 C
3294 21-07-2019 07:00:00 18.5 C 89.1667 % 16.68 C
3295 21-07-2019 08:00:00 19.34167 C 80.4167 % 15.89 C
3296 21-07-2019 09:00:00 20.30833 C 74.0000 % 15.52 C
3297 21-07-2019 10:00:00 21.85833 C 66.2500 % 15.28 C
3298 21-07-2019 11:00:00 23.79167 C 53.8333 % 13.88 C
3299 21-07-2019 12:00:00 24.96667 C 51.0833 % 14.16 C
3300 21-07-2019 13:00:00 24.95833 C 53.2500 % 14.79 C
Sensor: Nr:Datum:Temp:Feuchte:Taupunkt:
Aussen-T/F 3301 21-07-2019 14:00:00 26.01667 C 51.0833 % 15.12 C
3302 21-07-2019 15:00:00 26.84167 C 48.3333 % 15.02 C
3303 21-07-2019 16:00:00 27.76667 C 45.9167 % 15.06 C
3304 21-07-2019 17:00:00 27.275 C 47.5833 % 15.17 C
3305 21-07-2019 18:00:00 26.44167 C 49.2500 % 14.94 C
3306 21-07-2019 19:00:00 25.40833 C 52.1667 % 14.89 C
3307 21-07-2019 20:00:00 24.4 C 54.8333 % 14.73 C
3308 21-07-2019 21:00:00 22.64167 C 61.1667 % 14.78 C
3309 21-07-2019 22:00:00 19.85 C 71.5000 % 14.55 C
3310 21-07-2019 23:00:00 18.35 C 78.1667 % 14.48 C
3311 22-07-2019 00:00:00 17.075 C 81.0833 % 13.81 C
3312 22-07-2019 01:00:00 16.15833 C 84.1667 % 13.48 C
3313 22-07-2019 02:00:00 15.64167 C 87.4167 % 13.56 C
3314 22-07-2019 03:00:00 15.33333 C 88.3333 % 13.42 C
3315 22-07-2019 04:00:00 14.74167 C 89.5000 % 13.03 C
3316 22-07-2019 05:00:00 14.3 C 90.9167 % 12.84 C
3317 22-07-2019 06:00:00 14.175 C 91.8333 % 12.87 C
3318 22-07-2019 07:00:00 14.725 C 92.7500 % 13.56 C
3319 22-07-2019 08:00:00 16.28333 C 89.2500 % 14.51 C
3320 22-07-2019 09:00:00 18.20833 C 83.9167 % 15.45 C
3321 22-07-2019 10:00:00 20.80833 C 74.2500 % 16.06 C
3322 22-07-2019 11:00:00 24.00833 C 58.0000 % 15.24 C
3323 22-07-2019 12:00:00 25.55833 C 52.5833 % 15.15 C
3324 22-07-2019 13:00:00 26.41667 C 50.1667 % 15.21 C
3325 22-07-2019 14:00:00 27.775 C 45.7500 % 15.01 C
Sensor: Nr:Datum:Temp:Feuchte:Taupunkt:
Aussen-T/F 3326 22-07-2019 15:00:00 29.05 C 43.0833 % 15.23 C
3327 22-07-2019 16:00:00 30.80833 C 38.7500 % 15.15 C
3328 22-07-2019 17:00:00 31.51667 C 36.8333 % 14.99 C
3329 22-07-2019 18:00:00 32.31667 C 35.3333 % 15.04 C
3330 22-07-2019 19:00:00 31.475 C 36.3333 % 14.74 C
3331 22-07-2019 20:00:00 29.425 C 42.9167 % 15.51 C
3332 22-07-2019 21:00:00 25.59167 C 56.5000 % 16.3 C
3333 22-07-2019 22:00:00 22.85 C 63.6667 % 15.6 C
3334 22-07-2019 23:00:00 20.925 C 71.0000 % 15.47 C
3335 23-07-2019 00:00:00 19.4 C 76.2500 % 15.11 C
3336 23-07-2019 01:00:00 18.375 C 79.8333 % 14.83 C
3337 23-07-2019 02:00:00 17.55833 C 82.5000 % 14.55 C
3338 23-07-2019 03:00:00 16.84167 C 85.0833 % 14.32 C
3339 23-07-2019 04:00:00 16.29167 C 87.4167 % 14.2 C
3340 23-07-2019 05:00:00 15.825 C 89.0833 % 14.03 C
3341 23-07-2019 06:00:00 15.65833 C 90.8333 % 14.17 C
3342 23-07-2019 07:00:00 16.10833 C 91.0000 % 14.64 C
3343 23-07-2019 08:00:00 16.83333 C 90.5833 % 15.28 C
3344 23-07-2019 09:00:00 18.70833 C 87.0833 % 16.52 C
3345 23-07-2019 10:00:00 22.425 C 75.0000 % 17.77 C
3346 23-07-2019 11:00:00 27.35 C 53.3333 % 17.03 C
3347 23-07-2019 12:00:00 29.59167 C 44.0000 % 16.05 C
3348 23-07-2019 13:00:00 30.78333 C 39.9167 % 15.59 C
3349 23-07-2019 14:00:00 32.11667 C 37.1667 % 15.66 C
3350 23-07-2019 15:00:00 33.90833 C 35.0833 % 16.33 C
Sensor: Nr:Datum:Temp:Feuchte:Taupunkt:
Aussen-T/F 3351 23-07-2019 16:00:00 35.8 C 30.9167 % 15.99 C
3352 23-07-2019 17:00:00 36.38333 C 28.6667 % 15.31 C
3353 23-07-2019 18:00:00 36.76667 C 28.4167 % 15.5 C
3354 23-07-2019 19:00:00 35.64167 C 30.8333 % 15.81 C
3355 23-07-2019 20:00:00 32.725 C 40.6667 % 17.61 C
3356 23-07-2019 21:00:00 28.00833 C 50.3333 % 16.72 C
3357 23-07-2019 22:00:00 25.2 C 57.8333 % 16.3 C
3358 23-07-2019 23:00:00 22.93333 C 66.0000 % 16.24 C
3359 24-07-2019 00:00:00 21.44167 C 71.5000 % 16.07 C
3360 24-07-2019 01:00:00 20.31667 C 76.4167 % 16.03 C
3361 24-07-2019 02:00:00 19.30833 C 79.0000 % 15.58 C
3362 24-07-2019 03:00:00 18.63333 C 81.7500 % 15.45 C
3363 24-07-2019 04:00:00 17.76667 C 84.5833 % 15.14 C
3364 24-07-2019 05:00:00 17.23333 C 87.0833 % 15.07 C
3365 24-07-2019 06:00:00 17.075 C 88.2500 % 15.12 C
3366 24-07-2019 07:00:00 17.26667 C 90.0000 % 15.61 C
3367 24-07-2019 08:00:00 18.325 C 88.8333 % 16.45 C
3368 24-07-2019 09:00:00 20.23333 C 85.3333 % 17.69 C
3369 24-07-2019 10:00:00 23.75 C 72.4167 % 18.49 C
3370 24-07-2019 11:00:00 27.43333 C 59.5000 % 18.84 C
3371 24-07-2019 12:00:00 32.04167 C 41.6667 % 17.39 C
3372 24-07-2019 13:00:00 34.175 C 29.0833 % 13.64 C
3373 24-07-2019 14:00:00 35.31667 C 26.8333 % 13.38 C
3374 24-07-2019 15:00:00 36.975 C 26.0000 % 14.29 C
3375 24-07-2019 16:00:00 39.59167 C 23.0833 % 14.64 C
Sensor: Nr:Datum:Temp:Feuchte:Taupunkt:
Aussen-T/F 3376 24-07-2019 17:00:00 39.60833 C 22.9167 % 14.54 C
3377 24-07-2019 18:00:00 39.31667 C 22.6667 % 14.13 C
3378 24-07-2019 19:00:00 38.49167 C 27.5833 % 16.49 C
3379 24-07-2019 20:00:00 33.13333 C 40.0000 % 17.71 C
3380 24-07-2019 21:00:00 28.825 C 48.8333 % 16.99 C
3381 24-07-2019 22:00:00 27.375 C 52.0000 % 16.65 C
3382 24-07-2019 23:00:00 25.58333 C 58.3333 % 16.8 C
3383 25-07-2019 00:00:00 23.68333 C 63.0833 % 16.24 C
3384 25-07-2019 01:00:00 22.53333 C 66.5833 % 16 C
3385 25-07-2019 02:00:00 21.6 C 70.5000 % 16.01 C
3386 25-07-2019 03:00:00 20.89167 C 73.9167 % 16.07 C
3387 25-07-2019 04:00:00 20.075 C 77.7500 % 16.07 C
3388 25-07-2019 05:00:00 19.35833 C 80.0000 % 15.82 C
3389 25-07-2019 06:00:00 19.19167 C 82.2500 % 16.09 C
3390 25-07-2019 07:00:00 19.55833 C 83.8333 % 16.75 C
3391 25-07-2019 08:00:00 20.73333 C 82.7500 % 17.69 C
3392 25-07-2019 09:00:00 22.75833 C 76.9167 % 18.5 C
3393 25-07-2019 10:00:00 25.84167 C 66.6667 % 19.16 C
3394 25-07-2019 11:00:00 29.93333 C 53.3333 % 19.41 C
3395 25-07-2019 12:00:00 34.525 C 35.4167 % 17.02 C
3396 25-07-2019 13:00:00 36.46667 C 31.0000 % 16.6 C
3397 25-07-2019 14:00:00 37.425 C 28.8333 % 16.28 C
3398 25-07-2019 15:00:00 38.79167 C 26.3333 % 16.02 C
3399 25-07-2019 16:00:00 40.15 C 23.6667 % 15.49 C
3400 25-07-2019 17:00:00 39.80833 C 22.5833 % 14.48 C
Sensor: Nr:Datum:Temp:Feuchte:Taupunkt:
Aussen-T/F 3401 25-07-2019 18:00:00 39.09167 C 23.5000 % 14.5 C
3402 25-07-2019 19:00:00 36.66667 C 33.4167 % 17.96 C
3403 25-07-2019 20:00:00 32.81667 C 41.8333 % 18.14 C
3404 25-07-2019 21:00:00 30.34167 C 44.6667 % 16.96 C
3405 25-07-2019 22:00:00 28.75833 C 47.2500 % 16.41 C
3406 25-07-2019 23:00:00 27.56667 C 49.6667 % 16.1 C
3407 26-07-2019 00:00:00 26.19167 C 53.4167 % 15.98 C
3408 26-07-2019 01:00:00 25 C 57.0833 % 15.91 C
3409 26-07-2019 02:00:00 22.51667 C 67.0000 % 16.08 C
3410 26-07-2019 03:00:00 20.99167 C 71.6667 % 15.68 C
3411 26-07-2019 04:00:00 20.125 C 76.5833 % 15.88 C
3412 26-07-2019 05:00:00 19.29167 C 79.0000 % 15.56 C
3413 26-07-2019 06:00:00 18.95833 C 80.3333 % 15.5 C
3414 26-07-2019 07:00:00 19.61667 C 82.5000 % 16.56 C
3415 26-07-2019 08:00:00 21.10833 C 80.0000 % 17.52 C
3416 26-07-2019 09:00:00 23.50833 C 69.2500 % 17.55 C
3417 26-07-2019 10:00:00 28.225 C 49.5000 % 16.65 C
3418 26-07-2019 11:00:00 32.05 C 38.8333 % 16.28 C
3419 26-07-2019 12:00:00 34.35 C 34.5000 % 16.45 C
3420 26-07-2019 13:00:00 36.00833 C 30.9167 % 16.16 C
3421 26-07-2019 14:00:00 37.35833 C 26.7500 % 15.06 C
3422 26-07-2019 15:00:00 37.1 C 28.3333 % 15.73 C
3423 26-07-2019 16:00:00 35.28333 C 34.0000 % 17.03 C
3424 26-07-2019 17:00:00 32.5 C 42.4167 % 18.08 C
3425 26-07-2019 18:00:00 30.44167 C 45.5000 % 17.34 C
Sensor: Nr:Datum:Temp:Feuchte:Taupunkt:
Aussen-T/F 3426 26-07-2019 19:00:00 28.825 C 52.1667 % 18.04 C
3427 26-07-2019 20:00:00 27.525 C 57.7500 % 18.45 C
3428 26-07-2019 21:00:00 26.33333 C 59.3333 % 17.77 C
3429 26-07-2019 22:00:00 25.5 C 62.0833 % 17.7 C
3430 26-07-2019 23:00:00 24.35833 C 66.7500 % 17.78 C
3431 27-07-2019 00:00:00 23.15 C 70.2500 % 17.43 C
3432 27-07-2019 01:00:00 22.63333 C 73.2500 % 17.6 C
3433 27-07-2019 02:00:00 22.33333 C 75.1667 % 17.72 C
3434 27-07-2019 03:00:00 22.59167 C 74.7500 % 17.88 C
3435 27-07-2019 04:00:00 20.9 C 86.4167 % 18.55 C
3436 27-07-2019 05:00:00 20.275 C 88.7500 % 18.36 C
3437 27-07-2019 06:00:00 20.525 C 88.5833 % 18.57 C
3438 27-07-2019 07:00:00 21.25 C 88.1667 % 19.21 C
3439 27-07-2019 08:00:00 22.575 C 81.4167 % 19.23 C
3440 27-07-2019 09:00:00 24.725 C 73.5000 % 19.67 C
3441 27-07-2019 10:00:00 24.64167 C 81.6667 % 21.29 C
3442 27-07-2019 11:00:00 23.94167 C 86.5833 % 21.56 C
3443 27-07-2019 12:00:00 23.75 C 83.5000 % 20.79 C
3444 27-07-2019 13:00:00 26 C 73.8333 % 20.97 C
3445 27-07-2019 14:00:00 25.725 C 71.0833 % 20.09 C
3446 27-07-2019 15:00:00 25.04167 C 74.0833 % 20.1 C
3447 27-07-2019 16:00:00 25.96667 C 68.5000 % 19.72 C
3448 27-07-2019 17:00:00 24.49167 C 75.9167 % 19.96 C
3449 27-07-2019 18:00:00 24.90833 C 75.7500 % 20.33 C
3450 27-07-2019 19:00:00 23.84167 C 80.7500 % 20.33 C
Sensor: Nr:Datum:Temp:Feuchte:Taupunkt:
Aussen-T/F 3451 27-07-2019 20:00:00 22.88333 C 84.9167 % 20.21 C
3452 27-07-2019 21:00:00 22.075 C 85.6667 % 19.56 C
3453 27-07-2019 22:00:00 21.45 C 87.1667 % 19.23 C
3454 27-07-2019 23:00:00 21.14167 C 88.7500 % 19.21 C
3455 28-07-2019 00:00:00 20.83333 C 89.9167 % 19.12 C
3456 28-07-2019 01:00:00 20.70833 C 90.0000 % 19.01 C
3457 28-07-2019 02:00:00 20.7 C 90.0000 % 19 C
3458 28-07-2019 03:00:00 20.68333 C 90.0000 % 18.98 C
3459 28-07-2019 04:00:00 20.60833 C 90.8333 % 19.06 C
3460 28-07-2019 05:00:00 20.55 C 91.0000 % 19.03 C
3461 28-07-2019 06:00:00 20.54167 C 91.0000 % 19.02 C
3462 28-07-2019 07:00:00 20.69167 C 90.0000 % 18.99 C
3463 28-07-2019 08:00:00 20.71667 C 89.0833 % 18.85 C
3464 28-07-2019 09:00:00 20.425 C 90.3333 % 18.79 C
3465 28-07-2019 10:00:00 20.025 C 91.8333 % 18.66 C
3466 28-07-2019 11:00:00 20.08333 C 91.8333 % 18.71 C
3467 28-07-2019 12:00:00 20.50833 C 87.8333 % 18.42 C
3468 28-07-2019 13:00:00 20.30833 C 87.3333 % 18.13 C
3469 28-07-2019 14:00:00 19.98333 C 89.2500 % 18.16 C
3470 28-07-2019 15:00:00 19.90833 C 88.1667 % 17.89 C
3471 28-07-2019 16:00:00 19.81667 C 87.6667 % 17.71 C
3472 28-07-2019 17:00:00 19.45833 C 89.8333 % 17.75 C
3473 28-07-2019 18:00:00 19.175 C 90.4167 % 17.57 C
3474 28-07-2019 19:00:00 18.875 C 91.5833 % 17.47 C
3475 28-07-2019 20:00:00 18.5 C 92.7500 % 17.3 C
Sensor: Nr:Datum:Temp:Feuchte:Taupunkt:
Aussen-T/F 3476 28-07-2019 21:00:00 18.175 C 93.8333 % 17.17 C
3477 28-07-2019 22:00:00 17.90833 C 94.7500 % 17.05 C
3478 28-07-2019 23:00:00 17.6 C 95.0000 % 16.79 C
3479 29-07-2019 00:00:00 17.325 C 95.0000 % 16.52 C
3480 29-07-2019 01:00:00 17.10833 C 95.0000 % 16.3 C
3481 29-07-2019 02:00:00 16.975 C 95.7500 % 16.29 C
3482 29-07-2019 03:00:00 16.84167 C 96.0000 % 16.2 C
3483 29-07-2019 04:00:00 16.80833 C 96.0000 % 16.17 C
3484 29-07-2019 05:00:00 16.74167 C 96.0000 % 16.1 C
3485 29-07-2019 06:00:00 16.725 C 96.0000 % 16.08 C
3486 29-07-2019 07:00:00 16.99167 C 95.7500 % 16.31 C
3487 29-07-2019 08:00:00 17.46667 C 92.5833 % 16.25 C
3488 29-07-2019 09:00:00 18.49167 C 86.3333 % 16.17 C
3489 29-07-2019 10:00:00 19.39167 C 79.3333 % 15.72 C
3490 29-07-2019 11:00:00 20.475 C 73.7500 % 15.63 C
3491 29-07-2019 12:00:00 21.95 C 66.4167 % 15.41 C
3492 29-07-2019 13:00:00 23.25 C 62.0000 % 15.56 C
3493 29-07-2019 14:00:00 24.41667 C 57.5000 % 15.48 C
3494 29-07-2019 15:00:00 25.83333 C 51.4167 % 15.05 C
3495 29-07-2019 16:00:00 27.6 C 45.7500 % 14.85 C
3496 29-07-2019 17:00:00 28.23333 C 43.2500 % 14.56 C
3497 29-07-2019 18:00:00 27.70833 C 43.5000 % 14.17 C
3498 29-07-2019 19:00:00 28.1 C 43.3333 % 14.46 C
3499 29-07-2019 20:00:00 26.33333 C 49.1667 % 14.82 C
3500 29-07-2019 21:00:00 23.05833 C 61.6667 % 15.3 C
Sensor: Nr:Datum:Temp:Feuchte:Taupunkt:
Aussen-T/F 3501 29-07-2019 22:00:00 20.75833 C 69.6667 % 15.02 C
3502 29-07-2019 23:00:00 19.34167 C 75.5833 % 14.92 C
3503 30-07-2019 00:00:00 17.95 C 81.0833 % 14.66 C
3504 30-07-2019 01:00:00 17.425 C 83.5000 % 14.6 C
3505 30-07-2019 02:00:00 16.6 C 85.5000 % 14.16 C
3506 30-07-2019 03:00:00 15.875 C 88.1667 % 13.92 C
3507 30-07-2019 04:00:00 15.4 C 90.0833 % 13.78 C
3508 30-07-2019 05:00:00 15.03333 C 91.5000 % 13.66 C
3509 30-07-2019 06:00:00 14.725 C 92.8333 % 13.58 C
3510 30-07-2019 07:00:00 14.93333 C 93.8333 % 13.95 C
3511 30-07-2019 08:00:00 15.88333 C 93.9167 % 14.91 C
3512 30-07-2019 09:00:00 17.4 C 91.8333 % 16.06 C
3513 30-07-2019 10:00:00 20.275 C 82.2500 % 17.15 C
3514 30-07-2019 11:00:00 24.96667 C 57.9167 % 16.11 C
3515 30-07-2019 12:00:00 27.025 C 45.5000 % 14.25 C
3516 30-07-2019 13:00:00 28.24167 C 39.2500 % 13.07 C
3517 30-07-2019 14:00:00 29.49167 C 37.6667 % 13.55 C
3518 30-07-2019 15:00:00 30.69167 C 36.0833 % 13.94 C
3519 30-07-2019 16:00:00 31.20833 C 34.2500 % 13.59 C
3520 30-07-2019 17:00:00 29.30833 C 37.8333 % 13.45 C
3521 30-07-2019 18:00:00 26.625 C 40.7500 % 12.2 C
3522 30-07-2019 19:00:00 24.55833 C 51.0833 % 13.78 C
3523 30-07-2019 20:00:00 24.09167 C 55.1667 % 14.54 C
3524 30-07-2019 21:00:00 23.675 C 56.7500 % 14.59 C
3525 30-07-2019 22:00:00 22.20833 C 62.7500 % 14.77 C
Sensor: Nr:Datum:Temp:Feuchte:Taupunkt:
Aussen-T/F 3526 30-07-2019 23:00:00 21.175 C 68.0000 % 15.04 C
3527 31-07-2019 00:00:00 20.55 C 69.8333 % 14.85 C
3528 31-07-2019 01:00:00 20.325 C 71.0000 % 14.9 C
3529 31-07-2019 02:00:00 19.70833 C 71.6667 % 14.45 C
3530 31-07-2019 03:00:00 18.63333 C 75.0833 % 14.13 C
3531 31-07-2019 04:00:00 18.575 C 77.0000 % 14.47 C
3532 31-07-2019 05:00:00 17.83333 C 78.0000 % 13.95 C
3533 31-07-2019 06:00:00 17.64167 C 78.4167 % 13.84 C
3534 31-07-2019 07:00:00 17.375 C 79.9167 % 13.88 C
3535 31-07-2019 08:00:00 18.44167 C 75.4167 % 14.02 C
3536 31-07-2019 09:00:00 20.01667 C 67.6667 % 13.86 C
3537 31-07-2019 10:00:00 21.35833 C 58.7500 % 12.96 C
3538 31-07-2019 11:00:00 21.60833 C 55.2500 % 12.25 C
3539 31-07-2019 12:00:00 22.66667 C 50.8333 % 11.97 C
3540 31-07-2019 13:00:00 23.69167 C 47.0000 % 11.72 C
3541 31-07-2019 14:00:00 24.76667 C 42.4167 % 11.14 C
3542 31-07-2019 15:00:00 25.55 C 40.0833 % 10.99 C
3543 31-07-2019 16:00:00 24.95833 C 42.3333 % 11.28 C
3544 31-07-2019 17:00:00 25.25 C 42.9167 % 11.75 C
3545 31-07-2019 18:00:00 23.875 C 47.0833 % 11.91 C
3546 31-07-2019 19:00:00 23.49167 C 48.5000 % 12.01 C
3547 31-07-2019 20:00:00 22.09167 C 55.7500 % 12.84 C
3548 31-07-2019 21:00:00 19.925 C 59.6667 % 11.85 C
3549 31-07-2019 22:00:00 18.68333 C 61.0000 % 11.02 C
3550 31-07-2019 23:00:00 18.45 C 63.0833 % 11.3 C
Sensor: Nr:Datum:Temp:Feuchte:Taupunkt:
Aussen-T/F 3551 01-08-2019 00:00:00 16.88333 C 70.2500 % 11.44 C
3552 01-08-2019 01:00:00 15.525 C 75.0000 % 11.12 C
3553 01-08-2019 02:00:00 14.73333 C 78.9167 % 11.12 C
3554 01-08-2019 03:00:00 14.15833 C 81.0000 % 10.95 C
3555 01-08-2019 04:00:00 12.95833 C 84.9167 % 10.48 C
3556 01-08-2019 05:00:00 12.625 C 86.8333 % 10.49 C
3557 01-08-2019 06:00:00 12.125 C 88.5000 % 10.28 C
3558 01-08-2019 07:00:00 12.55833 C 89.1667 % 10.82 C
3559 01-08-2019 08:00:00 15.175 C 81.5000 % 12.03 C
3560 01-08-2019 09:00:00 17.56667 C 73.5833 % 12.8 C
3561 01-08-2019 10:00:00 20.3 C 62.4167 % 12.89 C
3562 01-08-2019 11:00:00 21.775 C 55.7500 % 12.55 C
3563 01-08-2019 12:00:00 22.45 C 53.5000 % 12.54 C
3564 01-08-2019 13:00:00 23.16667 C 53.0000 % 13.06 C
3565 01-08-2019 14:00:00 24.15 C 49.4167 % 12.9 C
3566 01-08-2019 15:00:00 24.575 C 48.9167 % 13.13 C
3567 01-08-2019 16:00:00 24.4 C 50.0000 % 13.31 C
3568 01-08-2019 17:00:00 25.13333 C 47.6667 % 13.25 C
3569 01-08-2019 18:00:00 26.35 C 44.7500 % 13.38 C
3570 01-08-2019 19:00:00 26.26667 C 45.1667 % 13.45 C
3571 01-08-2019 20:00:00 24.10833 C 53.8333 % 14.17 C
3572 01-08-2019 21:00:00 21.15 C 62.6667 % 13.75 C
3573 01-08-2019 22:00:00 19.76667 C 67.6667 % 13.62 C
3574 01-08-2019 23:00:00 19.24167 C 69.5833 % 13.55 C
3575 02-08-2019 00:00:00 18.81667 C 73.2500 % 13.93 C
Sensor: Nr:Datum:Temp:Feuchte:Taupunkt:
Aussen-T/F 3576 02-08-2019 01:00:00 18.34167 C 75.6667 % 13.97 C
3577 02-08-2019 02:00:00 17.86667 C 76.8333 % 13.75 C
3578 02-08-2019 03:00:00 16.94167 C 79.6667 % 13.41 C
3579 02-08-2019 04:00:00 16.31667 C 82.5000 % 13.33 C
3580 02-08-2019 05:00:00 16.2 C 83.6667 % 13.43 C
3581 02-08-2019 06:00:00 16.25 C 85.0000 % 13.73 C
3582 02-08-2019 07:00:00 16.925 C 84.5000 % 14.3 C
3583 02-08-2019 08:00:00 17.93333 C 82.3333 % 14.88 C
3584 02-08-2019 09:00:00 19.35 C 77.9167 % 15.4 C
3585 02-08-2019 10:00:00 20.71667 C 72.1667 % 15.52 C
3586 02-08-2019 11:00:00 22.16667 C 64.8333 % 15.24 C
3587 02-08-2019 12:00:00 21.275 C 75.5000 % 16.77 C
3588 02-08-2019 13:00:00 21.125 C 71.2500 % 15.72 C
3589 02-08-2019 14:00:00 23.16667 C 61.7500 % 15.42 C
3590 02-08-2019 15:00:00 24.58333 C 56.3333 % 15.32 C
3591 02-08-2019 16:00:00 25.59167 C 51.0833 % 14.73 C
3592 02-08-2019 17:00:00 26.725 C 46.0000 % 14.15 C
3593 02-08-2019 18:00:00 25.00833 C 53.4167 % 14.89 C
3594 02-08-2019 19:00:00 23.7 C 54.8333 % 14.08 C
3595 02-08-2019 20:00:00 22.45833 C 60.4167 % 14.42 C
3596 02-08-2019 21:00:00 21.275 C 63.5833 % 14.09 C
3597 02-08-2019 22:00:00 20.95 C 65.3333 % 14.2 C
3598 02-08-2019 23:00:00 18.975 C 78.8333 % 15.22 C
3599 03-08-2019 00:00:00 17.75833 C 84.3333 % 15.08 C
3600 03-08-2019 01:00:00 18.28333 C 82.5000 % 15.25 C
Sensor: Nr:Datum:Temp:Feuchte:Taupunkt:
Aussen-T/F 3601 03-08-2019 02:00:00 18.24167 C 84.4167 % 15.57 C
3602 03-08-2019 03:00:00 18.2 C 85.6667 % 15.76 C
3603 03-08-2019 04:00:00 18.15 C 86.9167 % 15.94 C
3604 03-08-2019 05:00:00 18.14167 C 87.0000 % 15.94 C
3605 03-08-2019 06:00:00 17.89167 C 87.2500 % 15.74 C
3606 03-08-2019 07:00:00 17.84167 C 85.6667 % 15.41 C
3607 03-08-2019 08:00:00 17.95 C 84.5000 % 15.3 C
3608 03-08-2019 09:00:00 18.6 C 79.2500 % 14.94 C
3609 03-08-2019 10:00:00 19.61667 C 75.5000 % 15.17 C
3610 03-08-2019 11:00:00 20.35833 C 73.1667 % 15.39 C
3611 03-08-2019 12:00:00 21.55833 C 66.9167 % 15.15 C
3612 03-08-2019 13:00:00 22.05 C 66.3333 % 15.48 C
3613 03-08-2019 14:00:00 22.20833 C 65.8333 % 15.52 C
3614 03-08-2019 15:00:00 23.80833 C 58.0000 % 15.05 C
3615 03-08-2019 16:00:00 25.16667 C 53.1667 % 14.96 C
3616 03-08-2019 17:00:00 25.49167 C 51.0000 % 14.61 C
3617 03-08-2019 18:00:00 25.46667 C 51.0000 % 14.59 C
3618 03-08-2019 19:00:00 24.30833 C 54.5000 % 14.55 C
3619 03-08-2019 20:00:00 22.61667 C 59.8333 % 14.42 C
3620 03-08-2019 21:00:00 20.55833 C 65.7500 % 13.93 C
3621 03-08-2019 22:00:00 18.10833 C 74.1667 % 13.44 C
3622 03-08-2019 23:00:00 17.05 C 79.3333 % 13.45 C
3623 04-08-2019 00:00:00 16.225 C 81.8333 % 13.12 C
3624 04-08-2019 01:00:00 15.125 C 85.5000 % 12.71 C
3625 04-08-2019 02:00:00 14 C 88.7500 % 12.17 C
Sensor: Nr:Datum:Temp:Feuchte:Taupunkt:
Aussen-T/F 3626 04-08-2019 03:00:00 13.3 C 90.9167 % 11.85 C
3627 04-08-2019 04:00:00 12.88333 C 92.0833 % 11.63 C
3628 04-08-2019 05:00:00 12.49167 C 93.0000 % 11.39 C
3629 04-08-2019 06:00:00 12.34167 C 93.8333 % 11.38 C
3630 04-08-2019 07:00:00 12.725 C 94.4167 % 11.85 C
3631 04-08-2019 08:00:00 13.73333 C 95.0000 % 12.95 C
3632 04-08-2019 09:00:00 15.34167 C 93.0833 % 14.23 C
3633 04-08-2019 10:00:00 18.10833 C 83.3333 % 15.24 C
3634 04-08-2019 11:00:00 21.31667 C 67.5000 % 15.06 C
3635 04-08-2019 12:00:00 23.3 C 59.5000 % 14.97 C
3636 04-08-2019 13:00:00 24.75 C 53.6667 % 14.72 C
3637 04-08-2019 14:00:00 25.86667 C 48.5833 % 14.21 C
3638 04-08-2019 15:00:00 28.225 C 40.6667 % 13.6 C
3639 04-08-2019 16:00:00 30.03333 C 34.5000 % 12.68 C
3640 04-08-2019 17:00:00 30.95833 C 32.0833 % 12.38 C
3641 04-08-2019 18:00:00 30.79167 C 33.7500 % 13.01 C
3642 04-08-2019 19:00:00 28.75833 C 41.6667 % 14.45 C
3643 04-08-2019 20:00:00 25.78333 C 51.9167 % 15.16 C
3644 04-08-2019 21:00:00 22.51667 C 60.3333 % 14.45 C
3645 04-08-2019 22:00:00 21.95833 C 63.6667 % 14.76 C
3646 04-08-2019 23:00:00 22.39167 C 61.2500 % 14.57 C
3647 05-08-2019 00:00:00 22.875 C 57.8333 % 14.13 C
3648 05-08-2019 01:00:00 21.65833 C 62.4167 % 14.17 C
3649 05-08-2019 02:00:00 20.28333 C 66.8333 % 13.92 C
3650 05-08-2019 03:00:00 19.6 C 69.6667 % 13.91 C
Sensor: Nr:Datum:Temp:Feuchte:Taupunkt:
Aussen-T/F 3651 05-08-2019 04:00:00 19.31667 C 75.7500 % 14.93 C
3652 05-08-2019 05:00:00 19.325 C 78.0000 % 15.39 C
3653 05-08-2019 06:00:00 18.28333 C 87.3333 % 16.14 C
3654 05-08-2019 07:00:00 17.53333 C 92.3333 % 16.28 C
3655 05-08-2019 08:00:00 17.64167 C 94.5000 % 16.75 C
3656 05-08-2019 09:00:00 18.75 C 94.9167 % 17.92 C
3657 05-08-2019 10:00:00 20.08333 C 92.5833 % 18.84 C
3658 05-08-2019 11:00:00 21.99167 C 84.0833 % 19.18 C
3659 05-08-2019 12:00:00 24.25 C 68.7500 % 18.14 C
3660 05-08-2019 13:00:00 26 C 59.7500 % 17.57 C
3661 05-08-2019 14:00:00 27.11667 C 54.6667 % 17.2 C
3662 05-08-2019 15:00:00 28.375 C 46.5000 % 15.81 C
3663 05-08-2019 16:00:00 28.875 C 41.3333 % 14.43 C
3664 05-08-2019 17:00:00 28.225 C 42.0833 % 14.13 C
3665 05-08-2019 18:00:00 27.7 C 42.1667 % 13.68 C
3666 05-08-2019 19:00:00 26.7 C 46.4167 % 14.26 C
3667 05-08-2019 20:00:00 25.1 C 53.5833 % 15.02 C
3668 05-08-2019 21:00:00 22.075 C 61.1667 % 14.25 C
3669 05-08-2019 22:00:00 20.53333 C 69.3333 % 14.73 C
3670 05-08-2019 23:00:00 19.28333 C 74.0000 % 14.54 C
3671 06-08-2019 00:00:00 18.00833 C 78.2500 % 14.17 C
3672 06-08-2019 01:00:00 17.10833 C 81.4167 % 13.9 C
3673 06-08-2019 02:00:00 17.00833 C 82.9167 % 14.09 C
3674 06-08-2019 03:00:00 17.45833 C 83.0833 % 14.56 C
3675 06-08-2019 04:00:00 17.20833 C 83.8333 % 14.45 C
Sensor: Nr:Datum:Temp:Feuchte:Taupunkt:
Aussen-T/F 3676 06-08-2019 05:00:00 16.60833 C 85.6667 % 14.2 C
3677 06-08-2019 06:00:00 16.66667 C 86.5833 % 14.42 C
3678 06-08-2019 07:00:00 17.83333 C 83.2500 % 14.95 C
3679 06-08-2019 08:00:00 18.675 C 81.0833 % 15.37 C
3680 06-08-2019 09:00:00 20.1 C 76.5000 % 15.84 C
3681 06-08-2019 10:00:00 19.91667 C 83.7500 % 17.09 C
3682 06-08-2019 11:00:00 19.65 C 89.1667 % 17.82 C
3683 06-08-2019 12:00:00 21.31667 C 82.2500 % 18.17 C
3684 06-08-2019 13:00:00 22.325 C 77.4167 % 18.18 C
3685 06-08-2019 14:00:00 23.61667 C 69.8333 % 17.79 C
3686 06-08-2019 15:00:00 24.725 C 64.7500 % 17.64 C
3687 06-08-2019 16:00:00 25.39167 C 61.9167 % 17.56 C
3688 06-08-2019 17:00:00 26.4 C 57.5000 % 17.33 C
3689 06-08-2019 18:00:00 25.20833 C 61.8333 % 17.37 C
3690 06-08-2019 19:00:00 22.54167 C 76.7500 % 18.25 C
3691 06-08-2019 20:00:00 19.05 C 90.4167 % 17.44 C
3692 06-08-2019 21:00:00 18.00833 C 93.1667 % 16.89 C
3693 06-08-2019 22:00:00 17.51667 C 94.0000 % 16.54 C
3694 06-08-2019 23:00:00 17.08333 C 94.9167 % 16.26 C
3695 07-08-2019 00:00:00 16.68333 C 95.0000 % 15.88 C
3696 07-08-2019 01:00:00 16.3 C 95.5000 % 15.58 C
3697 07-08-2019 02:00:00 16.45833 C 96.0000 % 15.82 C
3698 07-08-2019 03:00:00 16.58333 C 96.2500 % 15.98 C
3699 07-08-2019 04:00:00 16.63333 C 97.0000 % 16.15 C
3700 07-08-2019 05:00:00 16.66667 C 97.0000 % 16.19 C
Sensor: Nr:Datum:Temp:Feuchte:Taupunkt:
Aussen-T/F 3701 07-08-2019 06:00:00 16.875 C 97.0000 % 16.4 C
3702 07-08-2019 07:00:00 17.25 C 97.0000 % 16.77 C
3703 07-08-2019 08:00:00 17.75833 C 97.0000 % 17.28 C
3704 07-08-2019 09:00:00 18.25 C 97.0000 % 17.77 C
3705 07-08-2019 10:00:00 18.96667 C 96.4167 % 18.38 C
3706 07-08-2019 11:00:00 19.725 C 93.0833 % 18.57 C
3707 07-08-2019 12:00:00 20.83333 C 84.5000 % 18.12 C
3708 07-08-2019 13:00:00 21.85833 C 76.3333 % 17.51 C
3709 07-08-2019 14:00:00 22.525 C 75.3333 % 17.94 C
3710 07-08-2019 15:00:00 22.59167 C 72.9167 % 17.49 C
3711 07-08-2019 16:00:00 22.08333 C 72.8333 % 16.98 C
3712 07-08-2019 17:00:00 22.53333 C 71.2500 % 17.07 C
3713 07-08-2019 18:00:00 23.35833 C 68.4167 % 17.21 C
3714 07-08-2019 19:00:00 22.38333 C 73.7500 % 17.47 C
3715 07-08-2019 20:00:00 20.05833 C 83.5000 % 17.18 C
3716 07-08-2019 21:00:00 18.05 C 86.7500 % 15.81 C
3717 07-08-2019 22:00:00 16.74167 C 89.7500 % 15.05 C
3718 07-08-2019 23:00:00 16.64167 C 89.1667 % 14.85 C
3719 08-08-2019 00:00:00 15.76667 C 91.4167 % 14.37 C
3720 08-08-2019 01:00:00 16.35 C 92.0000 % 15.05 C
3721 08-08-2019 02:00:00 16.45 C 92.0000 % 15.15 C
3722 08-08-2019 03:00:00 16.44167 C 91.9167 % 15.12 C
3723 08-08-2019 04:00:00 16.06667 C 92.6667 % 14.88 C
3724 08-08-2019 05:00:00 15.31667 C 93.2500 % 14.23 C
3725 08-08-2019 06:00:00 15.7 C 94.0000 % 14.74 C
Sensor: Nr:Datum:Temp:Feuchte:Taupunkt:
Aussen-T/F 3726 08-08-2019 07:00:00 15.95 C 93.5833 % 14.92 C
3727 08-08-2019 08:00:00 17.05833 C 91.1667 % 15.61 C
3728 08-08-2019 09:00:00 18.55833 C 84.0833 % 15.82 C
3729 08-08-2019 10:00:00 20.05833 C 73.0000 % 15.07 C
3730 08-08-2019 11:00:00 21.74167 C 65.7500 % 15.05 C
3731 08-08-2019 12:00:00 22.99167 C 61.1667 % 15.11 C
3732 08-08-2019 13:00:00 24.025 C 57.4167 % 15.1 C
3733 08-08-2019 14:00:00 24.20833 C 57.3333 % 15.24 C
3734 08-08-2019 15:00:00 24.51667 C 57.1667 % 15.49 C
3735 08-08-2019 16:00:00 26.58333 C 51.4167 % 15.74 C
3736 08-08-2019 17:00:00 27.18333 C 48.1667 % 15.28 C
3737 08-08-2019 18:00:00 27.46667 C 47.3333 % 15.26 C
3738 08-08-2019 19:00:00 25.43333 C 62.0833 % 17.64 C
3739 08-08-2019 20:00:00 23.575 C 67.5833 % 17.23 C
3740 08-08-2019 21:00:00 20.625 C 76.4167 % 16.33 C
3741 08-08-2019 22:00:00 19.15833 C 83.1667 % 16.23 C
3742 08-08-2019 23:00:00 18.16667 C 87.5000 % 16.06 C
3743 09-08-2019 00:00:00 17.15833 C 89.4167 % 15.4 C
3744 09-08-2019 01:00:00 16.25833 C 91.2500 % 14.83 C
3745 09-08-2019 02:00:00 15.875 C 92.0000 % 14.58 C
3746 09-08-2019 03:00:00 15.21667 C 92.7500 % 14.05 C
3747 09-08-2019 04:00:00 14.725 C 93.6667 % 13.71 C
3748 09-08-2019 05:00:00 14.44167 C 94.0833 % 13.5 C
3749 09-08-2019 06:00:00 14.56667 C 95.0000 % 13.78 C
3750 09-08-2019 07:00:00 15.40833 C 95.3333 % 14.67 C
Sensor: Nr:Datum:Temp:Feuchte:Taupunkt:
Aussen-T/F 3751 09-08-2019 08:00:00 16.44167 C 93.1667 % 15.33 C
3752 09-08-2019 09:00:00 18.26667 C 87.8333 % 16.22 C
3753 09-08-2019 10:00:00 20.60833 C 80.7500 % 17.18 C
3754 09-08-2019 11:00:00 23.8 C 71.5833 % 18.35 C
3755 09-08-2019 12:00:00 25.26667 C 65.8333 % 18.42 C
3756 09-08-2019 13:00:00 25.275 C 66.4167 % 18.57 C
3757 09-08-2019 14:00:00 24.75 C 77.3333 % 20.51 C
3758 09-08-2019 15:00:00 24.43333 C 82.0833 % 21.17 C
3759 09-08-2019 16:00:00 27.25 C 69.9167 % 21.28 C
3760 09-08-2019 17:00:00 25.45 C 81.5000 % 22.05 C
3761 09-08-2019 18:00:00 22.78333 C 88.9167 % 20.86 C
3762 09-08-2019 19:00:00 21.5 C 93.0833 % 20.33 C
3763 09-08-2019 20:00:00 19.63333 C 94.0833 % 18.65 C
3764 09-08-2019 21:00:00 19.31667 C 95.5000 % 18.58 C